[[{"header":{"parameterUnit":"m.s-1","parameterCategory":1,"la1":30.6,"la2":28.766,"lo1":-90.7593,"lo2":-88.6598,"dy":0.0162,"dx":0.0183,"nx":116,"ny":114,"refTime":"2024-04-12T18:00:00:Z","depth":0,"parameterNumber":2,"parameterNumberName":"U-component_of_WINDS"},"data":[0.0,0.0,0.0,0.0,0.0,0.0,0.0,0.0,0.0,0.0,0.0,0.0,0.0,0.0,0.0,0.0,0.0,0.0,0.0,0.0,0.0,0.0,0.0,0.0,0.0,0.0,0.0,0.0,0.0,0.0,0.0,0.0,0.0,0.0,0.0,0.0,0.0,0.0,0.0,0.0,0.0,0.0,0.0,0.0,0.0,0.0,0.0,0.0,0.0,0.0,0.0,0.0,0.0,0.0,0.0,0.0,0.0,0.0,0.0,0.0,0.0,0.0,0.0,0.0,0.0,0.0,0.0,0.0,0.0,0.0,0.0,0.0,0.0,0.0,0.0,0.0,0.0,0.0,0.0,0.0,0.0,0.0,0.0,0.0,0.0,0.0,0.0,0.0,0.0,0.0,0.0,0.0,0.0,0.0,0.0,0.0,0.0,0.0,0.0,0.0,0.0,0.0,0.0,0.0,0.0,0.0,0.0,0.0,0.0,0.0,0.0,0.0,0.0,0.0,0.0,0.0,0.0,0.0,0.0,0.0,0.0,0.0,0.0,0.0,0.0,0.0,0.0,0.0,0.0,0.0,0.0,0.0,0.0,0.0,0.0,0.0,0.0,0.0,0.0,0.0,0.0,0.0,0.0,0.0,0.0,0.0,0.0,0.0,0.0,0.0,0.0,0.0,0.0,0.0,0.0,0.0,0.0,0.0,0.0,0.0,0.0,0.0,0.0,0.0,0.0,0.0,0.0,0.0,0.0,0.0,0.0,0.0,0.0,0.0,0.0,0.0,0.0,0.0,0.0,0.0,0.0,0.0,0.0,0.0,0.0,0.0,0.0,0.0,0.0,0.0,0.0,0.0,0.0,0.0,0.0,0.0,0.0,0.0,0.0,0.0,0.0,0.0,0.0,0.0,0.0,0.0,0.0,0.0,0.0,0.0,0.0,0.0,0.0,0.0,0.0,0.0,0.0,0.0,0.0,0.0,0.0,0.0,0.0,0.0,0.0,0.0,0.0,0.0,0.0,0.0,0.0,0.0,0.0,0.0,0.0,0.0,0.0,0.0,0.0,0.0,0.0,0.0,0.0,0.0,0.0,0.0,0.0,0.0,0.0,0.0,0.0,0.0,0.0,0.0,0.0,0.0,0.0,0.0,0.0,0.0,0.0,0.0,0.0,0.0,0.0,0.0,0.0,0.0,0.0,0.0,0.0,0.0,0.0,0.0,0.0,0.0,0.0,0.0,0.0,0.0,0.0,0.0,0.0,0.0,0.0,0.0,0.0,0.0,0.0,0.0,0.0,0.0,0.0,0.0,0.0,0.0,0.0,0.0,0.0,0.0,0.0,0.0,0.0,0.0,0.0,0.0,0.0,0.0,0.0,0.0,0.0,0.0,0.0,0.0,0.0,0.0,0.0,0.0,0.0,0.0,0.0,0.0,0.0,0.0,0.0,0.0,0.0,0.0,0.0,0.0,0.0,0.0,0.0,0.0,0.0,0.0,0.0,0.0,0.0,0.0,0.0,0.0,0.0,0.0,0.0,0.0,0.0,0.0,0.0,0.0,0.0,0.0,0.0,0.0,0.0,0.0,0.0,0.0,0.0,0.0,0.0,0.0,0.0,0.0,0.0,0.0,0.0,0.0,0.0,0.0,0.0,0.0,0.0,0.0,0.0,0.0,0.0,0.0,0.0,0.0,0.0,0.0,0.0,0.0,0.0,0.0,0.0,0.0,0.0,0.0,0.0,0.0,0.0,0.0,0.0,0.0,0.0,0.0,0.0,0.0,0.0,0.0,0.0,0.0,0.0,0.0,0.0,0.0,0.0,0.0,0.0,0.0,0.0,0.0,0.0,0.0,0.0,0.0,0.0,0.0,0.0,0.0,0.0,0.0,0.0,0.0,0.0,0.0,0.0,0.0,0.0,0.0,0.0,0.0,0.0,0.0,0.0,0.0,0.0,0.0,0.0,0.0,0.0,0.0,0.0,0.0,0.0,0.0,0.0,0.0,0.0,0.0,0.0,0.0,0.0,0.0,0.0,0.0,0.0,0.0,0.0,0.0,0.0,0.0,0.0,0.0,0.0,0.0,0.0,0.0,0.0,0.0,0.0,0.0,0.0,0.0,0.0,0.0,0.0,0.0,0.0,0.0,0.0,0.0,0.0,0.0,0.0,0.0,0.0,0.0,0.0,0.0,0.0,0.0,0.0,0.0,0.0,0.0,0.0,0.0,0.0,0.0,0.0,0.0,0.0,0.0,0.0,0.0,0.0,0.0,0.0,0.0,0.0,0.0,0.0,0.0,0.0,0.0,0.0,0.0,0.0,0.0,0.0,0.0,0.0,0.0,0.0,0.0,0.0,0.0,0.0,0.0,0.0,0.0,0.0,0.0,0.0,0.0,0.0,0.0,0.0,0.0,0.0,0.0,0.0,0.0,0.0,0.0,0.0,0.0,0.0,0.0,0.0,0.0,0.0,0.0,0.0,0.0,0.0,0.0,0.0,0.0,0.0,0.0,0.0,0.0,0.0,0.0,0.0,0.0,0.0,0.0,0.0,0.0,0.0,0.0,0.0,0.0,0.0,0.0,0.0,0.0,0.0,0.0,0.0,0.0,0.0,0.0,0.0,0.0,0.0,0.0,0.0,0.0,0.0,0.0,0.0,0.0,0.0,0.0,0.0,0.0,0.0,0.0,0.0,0.0,0.0,0.0,0.0,0.0,0.0,0.0,0.0,0.0,0.0,0.0,0.0,0.0,0.0,0.0,0.0,0.0,0.0,0.0,0.0,0.0,0.0,0.0,0.0,0.0,0.0,0.0,0.0,0.0,0.0,0.0,0.0,0.0,0.0,0.0,0.0,0.0,0.0,0.0,0.0,0.0,0.0,0.0,0.0,0.0,0.0,0.0,0.0,0.0,0.0,0.0,0.0,0.0,0.0,0.0,0.0,0.0,0.0,0.0,0.0,0.0,0.0,0.0,0.0,0.0,0.0,0.0,0.0,0.0,0.0,0.0,0.0,0.0,0.0,0.0,0.0,0.0,0.0,0.0,0.0,0.0,0.0,0.0,0.0,0.0,0.0,0.0,0.0,0.0,0.0,0.0,0.0,0.0,0.0,0.0,0.0,0.0,0.0,0.0,0.0,0.0,0.0,0.0,0.0,0.0,0.0,0.0,0.0,0.0,0.0,0.0,0.0,0.0,0.0,0.0,0.0,0.0,0.0,0.0,0.0,0.0,0.0,0.0,0.0,0.0,0.0,0.0,0.0,0.0,0.0,0.0,0.0,0.0,0.0,0.0,0.0,0.0,0.0,0.0,0.0,0.0,0.0,0.0,0.0,0.0,0.0,0.0,0.0,0.0,0.0,0.0,0.0,0.0,0.0,0.0,0.0,0.0,0.0,0.0,0.0,0.0,0.0,0.0,0.0,0.0,0.0,0.0,0.0,0.0,0.0,0.0,0.0,0.0,0.0,0.0,0.0,0.0,0.0,0.0,0.0,0.0,0.0,0.0,0.0,0.0,0.0,0.0,0.0,0.0,0.0,0.0,0.0,0.0,0.0,0.0,0.0,0.0,0.0,0.0,0.0,0.0,0.0,0.0,0.0,0.0,0.0,0.0,0.0,0.0,0.0,0.0,0.0,0.0,0.0,0.0,0.0,0.0,0.0,0.0,0.0,0.0,0.0,0.0,0.0,0.0,0.0,0.0,0.0,0.0,0.0,0.0,0.0,0.0,0.0,0.0,0.0,0.0,0.0,0.0,0.0,0.0,0.0,0.0,0.0,0.0,0.0,0.0,0.0,0.0,0.0,0.0,0.0,0.0,0.0,0.0,0.0,0.0,0.0,0.0,0.0,0.0,0.0,0.0,0.0,0.0,0.0,0.0,0.0,0.0,0.0,0.0,0.0,0.0,0.0,0.0,0.0,0.0,0.0,0.0,0.0,0.0,0.0,0.0,0.0,0.0,0.0,0.0,0.0,0.0,0.0,0.0,0.0,0.0,0.0,0.0,0.0,0.0,0.0,0.0,0.0,0.0,0.0,0.0,0.0,0.0,0.0,0.0,0.0,0.0,0.0,0.0,0.0,0.0,0.0,0.0,0.0,0.0,0.0,0.0,0.0,0.0,0.0,0.0,0.0,0.0,0.0,0.0,0.0,0.0,0.0,0.0,0.0,0.0,0.0,0.0,0.0,0.0,0.0,0.0,0.0,0.0,0.0,0.0,0.0,0.0,0.0,0.0,0.0,0.0,0.0,0.0,0.0,0.0,0.0,0.0,0.0,0.0,0.0,0.0,0.0,0.0,0.0,0.0,0.0,0.0,0.0,0.0,0.0,0.0,0.0,0.0,0.0,0.0,0.0,0.0,0.0,0.0,0.0,0.0,0.0,0.0,0.0,0.0,0.0,0.0,0.0,0.0,0.0,0.0,0.0,0.0,0.0,0.0,0.0,0.0,0.0,0.0,0.0,0.0,0.0,0.0,0.0,0.0,0.0,0.0,0.0,0.0,0.0,0.0,0.0,0.0,0.0,0.0,0.0,0.0,0.0,0.0,0.0,0.0,0.0,0.0,0.0,0.0,0.0,0.0,0.0,0.0,0.0,0.0,0.0,0.0,0.0,0.0,0.0,0.0,0.0,0.0,0.0,0.0,0.0,0.0,0.0,0.0,0.0,0.0,0.0,0.0,0.0,0.0,0.0,0.0,0.0,0.0,0.0,0.0,0.0,0.0,0.0,0.0,0.0,0.0,0.0,0.0,0.0,0.0,0.0,0.0,0.0,0.0,0.0,0.0,0.0,0.0,0.0,0.0,0.0,0.0,0.0,0.0,0.0,0.0,0.0,0.0,0.0,0.0,0.0,0.0,0.0,0.0,0.0,0.0,0.0,0.0,0.0,0.0,0.0,0.0,0.0,0.0,0.0,0.0,0.0,0.0,0.0,0.0,0.0,0.0,0.0,0.0,0.0,0.0,0.0,0.0,0.0,0.0,0.0,0.0,0.0,0.0,0.0,0.0,0.0,0.0,0.0,0.0,0.0,0.0,0.0,0.0,0.0,0.0,0.0,0.0,0.0,0.0,0.0,0.0,0.0,0.0,0.0,0.0,0.0,0.0,0.0,0.0,0.0,0.0,0.0,0.0,0.0,0.0,0.0,0.0,0.0,0.0,0.0,0.0,0.0,0.0,0.0,0.0,0.0,0.0,0.0,0.0,0.0,0.0,0.0,0.0,0.0,0.0,0.0,0.0,0.0,0.0,0.0,0.0,0.0,0.0,0.0,0.0,0.0,0.0,0.0,0.0,0.0,0.0,0.0,0.0,0.0,0.0,0.0,0.0,0.0,0.0,0.0,0.0,0.0,0.0,0.0,0.0,0.0,0.0,0.0,0.0,0.0,0.0,0.0,0.0,0.0,0.0,0.0,0.0,0.0,0.0,0.0,0.0,0.0,0.0,0.0,0.0,0.0,0.0,0.0,0.0,0.0,0.0,0.0,0.0,0.0,0.0,0.0,0.0,0.0,0.0,0.0,0.0,0.0,0.0,0.0,0.0,0.0,0.0,0.0,0.0,0.0,0.0,0.0,0.0,0.0,0.0,0.0,0.0,0.0,0.0,0.0,0.0,0.0,0.0,0.0,0.0,0.0,0.0,0.0,0.0,0.0,0.0,0.0,0.0,0.0,0.0,0.0,0.0,0.0,0.0,0.0,0.0,0.0,0.0,0.0,0.0,0.0,0.0,0.0,0.0,0.0,0.0,0.0,0.0,0.0,0.0,0.0,0.0,0.0,0.0,0.0,0.0,0.0,0.0,0.0,0.0,0.0,0.0,0.0,0.0,0.0,0.0,0.0,0.0,0.0,0.0,0.0,0.0,0.0,0.0,0.0,0.0,0.0,0.0,0.0,0.0,0.0,0.0,0.0,0.0,0.0,0.0,0.0,0.0,0.0,0.0,0.0,0.0,0.0,0.0,0.0,0.0,0.0,0.0,0.0,0.0,0.0,0.0,0.0,0.0,0.0,0.0,0.0,0.0,0.0,0.0,0.0,0.0,0.0,0.0,0.0,0.0,0.0,0.0,0.0,0.0,0.0,0.0,0.0,0.0,0.0,0.0,0.0,0.0,0.0,0.0,0.0,0.0,0.0,0.0,-2.9829,0.0,0.0,0.0,0.0,0.0,0.0,0.0,0.0,0.0,0.0,0.0,0.0,0.0,0.0,0.0,0.0,0.0,0.0,0.0,0.0,0.0,0.0,0.0,0.0,-2.7202,-2.7299,-2.7299,-2.7299,-2.7299,-2.7299,-2.7299,0.0,0.0,0.0,0.0,-2.7299,-2.7299,-2.7299,-2.7299,-2.7299,-2.7661,-2.8368,-2.8368,-2.7971,-2.7299,0.0,0.0,0.0,0.0,0.0,0.0,0.0,0.0,0.0,0.0,0.0,0.0,0.0,0.0,0.0,0.0,0.0,0.0,0.0,0.0,0.0,0.0,0.0,0.0,0.0,0.0,0.0,0.0,0.0,0.0,0.0,0.0,0.0,0.0,0.0,0.0,0.0,0.0,0.0,0.0,0.0,0.0,0.0,0.0,0.0,0.0,0.0,0.0,0.0,0.0,0.0,0.0,0.0,0.0,0.0,0.0,0.0,0.0,0.0,0.0,0.0,0.0,0.0,0.0,0.0,0.0,0.0,0.0,0.0,0.0,0.0,-3.0211,0.0,0.0,0.0,0.0,0.0,0.0,0.0,0.0,0.0,0.0,0.0,0.0,0.0,0.0,0.0,0.0,0.0,0.0,0.0,0.0,0.0,-2.7299,-2.7299,-2.7299,-2.7299,-2.7299,-2.7299,-2.7299,-2.7299,-2.7299,-2.7299,-2.7299,-2.7299,-2.7299,-2.7299,-2.7299,-2.7299,-2.7299,-2.7558,-2.8506,-3.0093,-3.0093,-2.9523,-2.8471,-2.7782,0.0,0.0,0.0,0.0,0.0,0.0,0.0,0.0,0.0,0.0,0.0,0.0,0.0,0.0,0.0,0.0,0.0,0.0,0.0,0.0,0.0,0.0,0.0,0.0,0.0,0.0,0.0,0.0,0.0,0.0,0.0,0.0,0.0,0.0,0.0,0.0,0.0,0.0,0.0,0.0,0.0,0.0,0.0,0.0,0.0,0.0,0.0,0.0,0.0,0.0,0.0,0.0,0.0,0.0,0.0,0.0,0.0,0.0,0.0,0.0,0.0,0.0,0.0,-3.4235,-3.4923,-3.543,-3.543,-3.5335,-3.5057,-3.2267,-3.0911,-3.0624,0.0,0.0,0.0,0.0,0.0,0.0,0.0,0.0,0.0,0.0,0.0,0.0,0.0,0.0,0.0,0.0,0.0,0.0,0.0,0.0,-2.7299,-2.7299,-2.7299,-2.7299,-2.7299,-2.7299,-2.7299,-2.7299,-2.7299,-2.7299,-2.7299,-2.7299,-2.7299,-2.7299,-2.7299,-2.7299,-2.7299,-2.8575,-3.0317,-3.2455,-3.2455,-3.2714,-3.3061,-2.973,0.0,0.0,0.0,0.0,0.0,0.0,0.0,0.0,0.0,0.0,0.0,0.0,0.0,0.0,0.0,0.0,0.0,0.0,0.0,0.0,0.0,0.0,0.0,0.0,0.0,0.0,0.0,0.0,0.0,0.0,0.0,0.0,0.0,0.0,0.0,0.0,0.0,0.0,0.0,0.0,0.0,0.0,0.0,-2.9334,-2.9542,0.0,0.0,0.0,0.0,0.0,0.0,0.0,0.0,0.0,0.0,0.0,0.0,0.0,-3.3834,-3.4541,-3.5411,-3.5889,-3.6003,-3.6814,-3.691,-3.6328,-3.6328,-3.5927,-3.519,-3.4732,0.0,-3.2317,-3.1553,0.0,0.0,0.0,0.0,0.0,0.0,0.0,0.0,0.0,0.0,0.0,0.0,0.0,0.0,0.0,0.0,0.0,0.0,0.0,0.0,0.0,-2.804,-2.8368,-2.7954,-2.9092,-2.9282,-2.7989,-2.8266,-2.8128,-2.7333,-2.7186,-2.7186,-2.7299,-2.7233,-2.7837,-2.9213,-3.1127,-3.3024,-3.4818,-3.4818,-3.5232,-3.5908,-3.3352,-3.1886,-3.1196,-2.9334,0.0,0.0,0.0,0.0,0.0,0.0,0.0,0.0,0.0,0.0,0.0,0.0,0.0,0.0,0.0,0.0,0.0,0.0,0.0,0.0,0.0,0.0,0.0,0.0,0.0,0.0,0.0,0.0,0.0,0.0,0.0,0.0,0.0,0.0,0.0,0.0,0.0,0.0,0.0,-2.9926,-3.0217,-2.9827,-3.0381,-3.0617,0.0,0.0,0.0,0.0,0.0,0.0,0.0,0.0,0.0,-3.4819,-3.5649,-3.6241,-3.6604,-3.7464,-3.8143,-3.8639,-3.9451,-3.9909,-4.0043,-4.0043,-3.9833,-3.9431,-3.8476,-3.736,-3.6061,-3.3796,-3.2095,-3.093,0.0,0.0,0.0,0.0,-3.093,-3.1006,0.0,0.0,0.0,0.0,0.0,0.0,0.0,0.0,0.0,0.0,0.0,0.0,-2.7816,-2.9023,-2.9661,-2.9299,-3.0627,-3.0678,-2.8799,-2.8767,-2.8404,-2.7442,-2.7249,-2.7217,-2.7374,-2.7718,-2.9076,-3.1468,-3.3549,-3.5442,-3.7094,-3.7115,-3.755,-3.8257,-3.6956,-3.5076,-3.2835,-3.0903,-2.9765,0.0,0.0,0.0,0.0,0.0,0.0,0.0,0.0,0.0,0.0,0.0,0.0,0.0,0.0,0.0,0.0,0.0,0.0,0.0,0.0,0.0,0.0,0.0,0.0,0.0,0.0,0.0,0.0,0.0,0.0,0.0,0.0,0.0,0.0,0.0,0.0,0.0,0.0,-3.0772,-3.1124,-3.0094,-3.1066,-3.1389,0.0,0.0,0.0,0.0,0.0,0.0,-3.3635,-3.5469,-3.6901,-3.7742,-3.8782,-3.9412,-3.9642,-4.0482,-4.1246,-4.1886,-4.2488,-4.3004,-4.3424,-4.3214,-4.2985,-4.2737,-4.1476,-4.0329,-3.9088,-3.5935,-3.3777,-3.2458,-3.2458,-3.2057,-3.156,-3.221,-3.2458,-3.2535,0.0,0.0,0.0,0.0,0.0,0.0,0.0,0.0,0.0,0.0,0.0,-2.7833,-2.9248,-3.0144,-3.0903,-3.1576,-3.0969,-3.0246,-2.9489,-2.8045,-2.7362,-2.7657,-2.76,-2.7569,-2.7582,-2.9265,-3.1259,-3.355,-3.5066,-3.7,-3.9268,-3.9328,-3.977,-4.0515,-3.979,-3.8215,-3.5887,-3.2938,-3.1662,-3.1438,0.0,0.0,0.0,0.0,0.0,0.0,0.0,0.0,0.0,0.0,0.0,0.0,0.0,0.0,0.0,0.0,0.0,0.0,0.0,0.0,0.0,0.0,0.0,0.0,0.0,0.0,0.0,0.0,0.0,0.0,0.0,0.0,0.0,0.0,0.0,0.0,0.0,0.0,0.0,-3.0348,-3.1649,0.0,0.0,0.0,0.0,-3.2565,-3.4857,-3.6252,-3.6309,-3.8677,-4.0406,-4.1208,-4.2832,-4.4093,-4.4906,-4.5717,-4.6137,-4.6194,-4.6233,-4.587,-4.5154,-4.4322,-4.351,-4.2794,-4.2717,-4.1762,-4.0034,-3.7436,-3.5832,-3.5018,-3.5018,-3.4999,-3.4961,-3.4999,-3.5018,-3.5018,0.0,0.0,0.0,0.0,0.0,-2.6704,-2.6403,-2.6461,-2.654,-2.654,-2.7385,-2.8592,-3.011,-3.2173,-3.339,-3.3169,-3.3688,-3.3117,-3.0944,-2.9724,-2.9076,-2.9054,-2.8213,-2.8442,-2.9951,-3.1621,-3.3598,-3.5885,-3.741,-3.9067,-4.0827,-4.0933,-4.1351,-4.1962,-4.1332,-4.0291,-3.8774,-3.5411,-3.3421,-3.2317,-3.0024,-2.8628,0.0,0.0,0.0,0.0,0.0,0.0,0.0,0.0,0.0,0.0,0.0,0.0,0.0,0.0,0.0,0.0,0.0,0.0,0.0,0.0,0.0,0.0,0.0,0.0,0.0,0.0,0.0,0.0,0.0,0.0,0.0,0.0,0.0,0.0,0.0,0.0,0.0,-3.3482,-3.54,0.0,-3.5133,-3.6069,-3.6748,-3.6748,-3.8591,-3.9966,-4.052,-4.2431,-4.3883,-4.4685,-4.584,-4.6585,-4.692,-4.7177,-4.733,-4.733,-4.733,-4.6901,-4.6061,-4.5755,-4.5163,-4.438,-4.3825,-4.3223,-4.2574,-4.1141,-3.8773,-3.6042,-3.6042,-3.5679,-3.5267,-3.5832,-3.6042,-3.6099,0.0,0.0,0.0,0.0,0.0,-2.6345,-2.6132,-2.5902,-2.5818,-2.6059,-2.7405,-2.911,-3.1141,-3.3742,-3.524,-3.5004,-3.5348,-3.4417,-3.1686,-3.0288,-2.9472,-2.9169,-2.8762,-2.9572,-3.175,-3.3465,-3.547,-3.7733,-3.9272,-4.0635,-4.1835,-4.1988,-4.2245,-4.2628,-4.2244,-4.1791,-4.1083,-3.8477,-3.592,-3.3429,-3.1399,-3.0298,-2.9678,0.0,0.0,0.0,0.0,0.0,0.0,0.0,0.0,0.0,0.0,0.0,0.0,0.0,0.0,0.0,0.0,0.0,0.0,0.0,0.0,0.0,0.0,0.0,0.0,0.0,0.0,0.0,0.0,0.0,0.0,0.0,0.0,0.0,0.0,0.0,-3.6797,-3.65,-3.8725,-3.9833,-3.8686,-3.9603,-4.0272,-4.0272,-4.2087,-4.3443,-4.4017,-4.566,-4.6825,-4.736,-4.82,-4.8629,-4.8629,-4.8629,-4.8629,-4.8629,-4.8075,-4.7502,-4.692,-4.6347,-4.5793,-4.5269,-4.4685,-4.4274,-4.3968,-4.3414,-4.1399,-3.862,-3.862,-3.8257,-3.7808,-3.8075,-3.819,-3.8228,0.0,0.0,0.0,0.0,0.0,-2.58,-2.5979,-2.5456,-2.5281,-2.5988,-2.7358,-2.9419,-3.2417,-3.4732,-3.6346,-3.7063,-3.5628,-3.3785,-3.1686,-2.9558,-2.8262,-2.7982,-2.9356,-3.101,-3.2926,-3.4763,-3.6823,-3.9089,-4.0527,-4.161,-4.2337,-4.2504,-4.2573,-4.259,-4.2731,-4.2748,-4.2714,-4.1946,-3.9142,-3.5077,-3.3479,-3.2872,-3.2609,0.0,0.0,0.0,0.0,0.0,0.0,0.0,0.0,0.0,0.0,0.0,0.0,0.0,0.0,0.0,0.0,0.0,0.0,0.0,0.0,0.0,0.0,0.0,0.0,0.0,0.0,0.0,0.0,0.0,0.0,0.0,0.0,0.0,-3.4056,-3.7641,-4.0005,-3.927,-4.1418,-4.2316,-4.0683,-4.203,-4.3004,-4.3004,-4.5258,-4.6615,-4.6615,-4.822,-4.9148,-4.9148,-4.9882,-5.0302,-5.0302,-5.0302,-5.0302,-5.0283,-4.8648,-4.7845,-4.7731,-4.6118,-4.5364,-4.5307,-4.5307,-4.4819,-4.4045,-4.4045,-4.3567,-4.287,-4.2813,-4.2794,-4.2698,-4.1839,-4.1514,-4.138,0.0,0.0,0.0,-2.4746,-2.5664,-2.5991,-2.4449,-2.5126,-2.5678,-2.535,-2.7959,-3.0808,-3.3311,-3.5881,-3.7546,-3.7808,-3.5824,-3.3947,-3.2539,-2.9637,-2.8407,-2.9435,-3.1679,0.0,-3.6458,-3.753,-3.9157,-4.139,-4.1796,-4.2371,-4.3115,-4.3837,-4.4398,-4.4795,-4.4402,-4.4164,-4.3997,-4.2664,-4.1163,-3.9426,-3.6904,-3.4895,-3.3236,0.0,0.0,0.0,0.0,0.0,0.0,0.0,0.0,0.0,0.0,0.0,0.0,0.0,0.0,0.0,0.0,0.0,0.0,0.0,0.0,0.0,0.0,0.0,0.0,0.0,0.0,0.0,0.0,0.0,0.0,0.0,0.0,-3.8137,-3.7593,-4.0158,-4.2459,-4.3443,-4.5258,-4.6241,-4.5783,-4.6729,-4.7371,-4.7371,-4.8544,-4.927,-4.927,-4.971,-4.9977,-4.9977,-5.0187,-5.0302,-5.0302,-5.0302,-5.0302,-5.0283,-4.9824,-4.8972,-4.7769,-4.7311,-4.6443,-4.5307,-4.5307,-4.5163,-4.4934,-4.4934,-4.48,-4.4494,-4.3271,-4.2794,-4.2775,-4.2526,-4.203,-4.138,0.0,0.0,0.0,-2.4446,-2.5096,-2.5406,-2.455,-2.5101,-2.5594,-2.5488,-2.8389,-3.1236,-3.3148,-3.5871,-3.7409,-3.7074,-3.5209,-3.3354,-3.1771,-2.9669,-2.9292,-3.1149,0.0,-3.5968,-3.8294,-3.9394,-4.0849,-4.276,-4.276,-4.3318,-4.4384,-4.4908,-4.5518,-4.6143,-4.5801,-4.5416,-4.4993,-4.4096,-4.3142,-4.2104,-4.0408,-3.8442,-3.6292,-3.4551,-3.3502,-3.2812,-3.146,-3.1017,-3.0845,-2.9398,0.0,0.0,0.0,0.0,0.0,0.0,0.0,0.0,0.0,0.0,0.0,0.0,0.0,0.0,0.0,0.0,0.0,0.0,0.0,0.0,0.0,0.0,0.0,0.0,-3.9332,-4.1393,-4.2362,-4.3803,-4.5295,-4.6686,-4.8003,-4.8968,-4.9354,-4.9519,-4.9882,-5.06,-5.076,-5.099,-5.1334,-5.1353,-5.1353,-5.1353,-5.1028,-5.0837,-5.0837,-5.0474,-5.0302,-5.0302,-4.9958,-4.9098,-4.7788,-4.7406,-4.6538,-4.5307,-4.5307,-4.5307,-4.5307,-4.5307,-4.5307,0.0,0.0,0.0,0.0,0.0,-4.2545,-4.1418,0.0,0.0,0.0,-2.4607,-2.4497,-2.466,-2.5421,-2.5347,-2.5409,-2.6025,-2.8664,-3.0995,-3.2232,-3.4857,-3.6243,-3.5554,-3.3981,-3.2171,-3.0125,-2.9861,-3.0778,-3.3022,-3.5248,-3.7348,-3.9334,-4.0747,-4.2185,-4.3646,-4.3589,-4.4333,-4.5821,-4.5821,-4.6227,-4.6921,-4.6921,-4.6566,-4.594,-4.5872,-4.4993,-4.3646,-4.3646,-4.2419,-4.0275,-3.7535,-3.6792,-3.6956,-3.4912,-3.3679,-3.2887,-3.2068,0.0,0.0,0.0,0.0,0.0,0.0,0.0,0.0,0.0,0.0,0.0,0.0,0.0,0.0,0.0,0.0,0.0,0.0,0.0,0.0,0.0,0.0,0.0,0.0,-4.2055,-4.4296,-4.7466,-4.7998,-4.8352,-4.9172,-5.0009,-5.0815,-5.1646,-5.1047,-5.12,-5.269,-5.2136,-5.2059,-5.2747,0.0,0.0,0.0,0.0,-5.1589,-5.1589,-5.0741,-5.0302,-5.0283,-4.9576,-4.8774,-4.7922,-4.7035,-4.6194,-4.543,-4.5345,-4.5307,-4.5307,-4.5307,-4.5307,-4.5307,-4.5307,-4.5307,-4.5182,-4.4312,-4.3061,-4.1762,0.0,0.0,0.0,-2.3191,-2.4425,-2.5375,-2.461,-2.5624,-2.6375,-2.613,-2.8664,-3.0602,-3.0891,-3.2889,-3.4402,-3.4834,-3.2347,-3.0311,-2.9281,-3.104,-3.2994,-3.4987,-3.7221,-3.9451,-4.1593,-4.2523,-4.3713,-4.5263,-4.4654,-4.5111,-4.6583,-4.6583,-4.6989,-4.7699,-4.7699,-4.7631,-4.7445,-4.6836,-4.6075,-4.5263,-4.5263,-4.3565,-4.101,-4.0392,-3.9528,-3.8478,-3.7445,-3.6965,-3.6639,-3.5307,-3.4636,-3.4242,-3.3661,0.0,0.0,0.0,0.0,0.0,0.0,0.0,0.0,0.0,0.0,0.0,0.0,0.0,0.0,0.0,0.0,0.0,0.0,0.0,0.0,-4.3445,-4.5987,-4.82,-5.0196,-5.1049,-5.134,-5.104,-5.1763,-5.2372,-5.2556,-5.2422,-5.2442,-5.2785,-5.2652,-5.2633,-5.2785,-5.2805,-5.2805,-5.2805,-5.2021,-5.1589,-5.1589,-5.0741,-5.0302,-5.0302,0.0,0.0,-4.8812,-4.7952,-4.7092,-4.6233,-4.5583,-4.5307,-4.5307,-4.5307,-4.5307,-4.5307,-4.5307,-4.5307,-4.5182,-4.4312,-4.3796,-4.3414,0.0,0.0,0.0,-2.364,-2.4552,-2.5422,-2.5313,-2.6151,-2.6788,-2.6716,-2.8628,-2.9987,-2.9951,-3.1498,-3.2508,-3.2448,-3.0673,-2.9702,-3.0093,-3.2335,-3.4751,-3.7195,-3.9445,-4.1525,-4.343,-4.4181,-4.5111,-4.6244,-4.5872,-4.6261,-4.7361,-4.7361,-4.775,-4.846,-4.846,-4.8257,-4.7872,-4.7513,-4.6921,-4.6244,-4.6244,-4.5128,-4.3369,-4.2608,-4.161,-4.0595,-4.0223,-3.9631,-3.8873,-3.7988,-3.6922,-3.5898,-3.5595,-3.4139,-3.2421,0.0,0.0,0.0,0.0,0.0,0.0,0.0,0.0,0.0,0.0,0.0,0.0,0.0,0.0,-3.5894,0.0,0.0,-4.3264,-4.636,-4.8238,-4.9893,-5.1566,-5.2542,-5.284,-5.2093,-5.2393,-5.2838,-5.3302,-5.2978,-5.3099,-5.3938,-5.3671,-5.3645,-5.4085,-5.4104,-5.4104,-5.4104,-5.2862,-5.2193,-5.2193,-5.0932,-5.0302,-5.0302,-5.0302,-4.9882,-4.9091,-4.864,-4.7742,-4.6481,-4.608,-4.566,-4.5307,-4.5307,-4.5307,-4.5307,-4.5307,-4.5307,-4.525,-4.4819,-4.4369,-4.393,0.0,0.0,0.0,-2.4533,-2.4811,-2.5337,-2.6248,-2.6573,-2.6858,-2.725,-2.8454,-2.9214,-2.9008,-3.012,-3.0525,-2.9629,-2.9625,-3.0182,0.0,-3.3787,-3.6463,-3.9342,-4.1433,-4.3234,-4.4801,-4.5399,-4.6126,-4.7005,-4.6853,-4.7242,-4.8122,-4.7956,-4.8308,-4.9001,-4.9001,-4.868,-4.8091,-4.8091,-4.7699,-4.7005,-4.7005,-4.6481,-4.5568,-4.4333,-4.3386,-4.2709,-4.2557,-4.1373,-3.9917,-4.0186,-3.8564,-3.6551,-3.7218,-3.6269,-3.4595,-3.3117,-3.2433,0.0,0.0,0.0,0.0,0.0,0.0,0.0,0.0,0.0,-3.3994,-3.5888,-3.7694,-3.9632,-4.1905,-4.4151,-4.6468,-4.9021,-5.0101,-5.1111,-5.2475,-5.3443,-5.3737,-5.3034,-5.2986,-5.3308,-5.408,-5.3562,-5.3753,-5.5134,-5.469,-5.4658,-5.5365,-5.5403,-5.5403,-5.5403,-5.3874,-5.2957,-5.2805,-5.1314,-5.0474,-5.0302,-5.0302,-4.9958,-4.9308,-4.9003,-4.8162,-4.6997,-4.6653,-4.6042,-4.5307,-4.5307,-4.5307,-4.5307,-4.5307,-4.5307,-4.5307,-4.5307,-4.4857,-4.4255,0.0,0.0,0.0,0.0,0.0,-2.5709,-2.6297,-2.6435,-2.6641,-2.7218,-2.8006,-2.8282,-2.761,-2.8199,-2.8271,-2.7351,-3.0243,-3.2182,-3.2352,-3.5659,-3.8659,-4.1036,-4.2509,-4.4012,-4.5551,-4.5669,-4.6397,-4.78,-4.7124,-4.7513,-4.8866,-4.8193,-4.8308,-4.9001,-4.9001,-4.8951,-4.8883,-4.8883,-4.846,-4.78,-4.78,-4.6955,-4.5686,-4.5517,-4.4976,-4.4259,-4.3538,-4.1491,-3.9465,-4.1563,-3.989,-3.741,-4.0218,-3.957,-3.729,-3.4989,0.0,-3.1818,-3.0129,-3.0328,-3.1492,-3.3556,-3.3665,-3.3991,0.0,0.0,-3.8232,-3.9212,-4.1162,-4.3437,-4.5894,-4.7411,-4.9083,-5.1585,-5.2722,-5.3347,-5.3537,-5.4257,-5.4745,-5.4651,-5.4729,-5.4874,-5.5037,-5.4974,-5.5038,-5.5339,-5.5294,-5.5307,-5.5403,-5.5403,-5.5403,-5.5403,-5.4467,-5.3569,-5.2805,-5.1907,-5.1066,-5.0302,-5.0302,-5.0245,-5.013,-4.8621,-4.8258,-4.8716,-4.7169,-4.6042,-4.5307,-4.5307,-4.5307,-4.5307,-4.5307,-4.5307,-4.5307,-4.5307,-4.5239,-4.5144,0.0,0.0,0.0,0.0,0.0,-2.5731,-2.6118,-2.6296,-2.6539,-2.6957,-2.7444,-2.7644,-2.7333,-2.7476,-2.743,-2.6992,-2.88,-3.0863,-3.3045,-3.5871,-3.8887,-4.2031,-4.3501,-4.4726,-4.5784,-4.6138,-4.6853,-4.7889,-4.802,-4.8392,-4.9001,-4.8697,-4.8714,-4.9001,-4.9001,-4.9001,-4.9001,-4.9001,-4.8832,-4.8545,-4.8545,-4.7665,-4.6295,-4.5872,-4.4418,-4.255,-4.198,-4.0404,0.0,0.0,-3.8941,-3.7731,-4.0221,-3.9387,-3.7122,-3.5168,-3.3791,0.0,-3.2071,-3.2814,0.0,0.0,-3.6419,-3.7867,-3.9242,-4.0015,-4.0926,-4.2636,-4.4526,-4.6435,-4.8338,-4.9862,-5.1357,0.0,-5.3461,-5.3859,-5.4333,-5.4276,-5.42,-5.42,-5.3803,-5.3931,-5.4971,-5.5121,-5.5176,-5.528,-5.5358,-5.5403,-5.5403,-5.5403,-5.5403,-5.5403,-5.4543,-5.3683,-5.2805,-5.2002,-5.1162,-5.0302,-5.0302,-5.0302,-5.0283,-4.9576,-4.9194,-4.9033,-4.7799,-4.6787,-4.6003,-4.6003,-4.5717,-4.5307,-4.5307,-4.5307,-4.5307,-4.5307,-4.5307,-4.5307,0.0,0.0,0.0,0.0,0.0,-2.5694,-2.5972,-2.6155,-2.6418,-2.6758,-2.7006,-2.7202,-2.7282,-2.7184,-2.7086,-2.7023,-2.7895,-2.9793,-3.294,-3.566,-3.8653,-4.2005,-4.3685,-4.4984,-4.5937,-4.6559,-4.7247,-4.8039,-4.8677,-4.9032,-4.9063,-4.9063,-4.9032,-4.9001,-4.9032,-4.9032,-4.9001,-4.9001,-4.9001,-4.8984,-4.8781,-4.7817,-4.6346,-4.4993,-4.2726,-4.0273,-4.0041,-3.8591,0.0,0.0,-3.6844,-3.6291,-3.8524,-3.8047,-3.6345,-3.4733,-3.3701,-3.3176,-3.361,0.0,0.0,-3.6926,-3.9152,-4.1234,-4.1433,-4.2377,-4.367,-4.5371,-4.7027,-4.8549,-4.9853,-5.1358,0.0,-5.3556,-5.3897,-5.4162,-5.4522,-5.4067,-5.3613,-5.3366,-5.2779,-5.2902,-5.4202,-5.4595,-5.4887,-5.5229,-5.5358,-5.5403,-5.5403,-5.5403,-5.5403,-5.5403,-5.4543,-5.3683,-5.2805,-5.2002,-5.1162,-5.0302,-5.0302,-5.0302,-5.0302,-5.0302,-4.9729,-4.8716,-4.8334,-4.7532,-4.65,-4.65,-4.6023,-4.5307,-4.5307,-4.5307,-4.5307,-4.5307,-4.5307,-4.5307,0.0,0.0,0.0,0.0,0.0,-2.5694,-2.5972,-2.6026,-2.6207,-2.6724,-2.6808,-2.694,-2.7266,-2.7184,-2.7103,-2.7103,-2.8475,-3.0038,-3.1654,-3.5238,-3.8322,-4.0662,-4.28,-4.4619,-4.606,-4.6686,-4.7435,-4.8377,-4.8799,-4.9063,-4.9199,-4.9199,-4.9107,-4.9001,-4.9138,-4.9107,-4.9001,-4.9001,-4.9001,-4.8951,-4.821,-4.7043,-4.5415,-4.2472,-3.9952,-3.8038,-3.8288,0.0,0.0,0.0,-3.3725,-3.2353,-3.5092,-3.5894,0.0,-3.3918,-3.2868,0.0,0.0,0.0,-3.752,-3.9804,-4.1596,-4.3027,-4.3806,-4.5513,-4.6948,-4.704,-4.8272,-4.9606,-5.0426,-5.1571,-5.2688,-5.3556,-5.4352,-5.4598,-5.384,-5.3726,-5.3385,-5.2551,-5.2419,-5.2447,0.0,-5.3397,-5.4343,-5.5333,-5.5403,-5.5403,-5.5403,-5.5403,-5.5403,-5.5403,-5.4543,-5.3683,-5.2805,-5.2002,-5.1162,-5.0302,-5.0302,-5.0302,-5.0302,-5.0302,-4.9404,-4.7884,-4.8716,-4.8086,-4.65,-4.65,-4.6023,-4.5307,-4.5307,-4.5307,-4.5307,-4.5307,-4.5307,-4.5307,0.0,0.0,0.0,0.0,0.0,0.0,-2.5712,-2.5881,-2.6064,-2.626,-2.659,0.0,0.0,0.0,0.0,0.0,-2.7715,-2.8869,-3.0902,-3.3139,-3.5411,-3.7683,-4.0353,-4.2235,-4.3228,-4.4831,-4.6084,-4.6874,-4.751,-4.7839,-4.788,-4.788,-4.7868,-4.7809,-4.7851,-4.7868,-4.7809,-4.7809,-4.775,-4.756,-4.6321,-4.5162,-4.3832,-4.0865,-3.8041,-3.5525,0.0,0.0,0.0,-3.2199,-3.1863,-3.1578,-3.3581,-3.3846,0.0,-3.3393,-3.3973,0.0,0.0,0.0,-4.1361,-4.3226,-4.4892,-4.6432,-4.7772,-4.8206,-4.8352,-4.8578,-4.7937,-4.7522,-4.8055,-4.9136,-5.022,-5.1035,-5.2817,-5.42,-5.4465,-5.4048,-5.3385,-5.2513,-5.1931,0.0,0.0,0.0,0.0,-5.4324,-5.4453,-5.4689,-5.5242,-5.4804,-5.4811,-5.5384,-5.4543,-5.3683,-5.2805,-5.2537,-5.1697,-5.0302,-5.0302,-5.0302,-5.0302,-5.0302,-4.9996,-4.948,-4.9767,-4.9251,-4.822,-4.822,-4.7723,-4.6901,-4.6328,-4.6099,-4.6023,-4.5488,-4.5307,-4.5307,0.0,0.0,0.0,0.0,0.0,0.0,0.0,0.0,0.0,0.0,0.0,0.0,0.0,0.0,0.0,0.0,0.0,-2.8023,-2.9748,0.0,-3.3007,-3.5007,-3.7421,-3.9084,-3.9823,-4.1405,-4.2604,-4.3434,-4.4338,-4.4961,-4.5289,-4.5545,-4.5791,-4.5992,-4.6048,-4.6184,-4.6334,-4.5821,-4.5363,-4.4844,-4.3076,-4.1672,-4.0282,-3.7347,-3.4844,0.0,0.0,0.0,0.0,-3.006,-3.0133,-3.0369,-3.1691,-3.2343,-3.2795,-3.3592,-3.5168,0.0,0.0,-4.1796,-4.4204,-4.6106,-4.7591,-4.8749,-4.9492,-4.9275,-4.882,-4.8593,-4.735,-4.6336,-4.6416,-4.7178,-4.7978,-4.849,-5.0182,-5.1831,-5.2968,-5.2419,-5.1926,-5.1969,-5.1244,0.0,0.0,0.0,0.0,-5.3383,-5.3811,-5.4263,-5.4784,-5.4651,-5.483,-5.5384,-5.4543,-5.3683,-5.2805,-5.2499,-5.1677,-5.0302,-5.0302,-5.0302,-5.0302,-5.0302,-5.0302,-5.0302,-5.0302,-4.9671,-4.8659,-4.8976,-4.822,-4.6882,-4.6615,-4.6328,-4.6003,-4.5466,-4.5256,-4.5275,0.0,0.0,0.0,0.0,0.0,0.0,0.0,0.0,0.0,0.0,0.0,0.0,0.0,0.0,0.0,0.0,0.0,0.0,0.0,0.0,0.0,-3.261,-3.418,-3.537,-3.6111,-3.6771,-3.7561,-3.8474,-3.9617,-4.0681,-4.1599,-4.2302,-4.2946,-4.3534,-4.3665,-4.4042,-4.4473,-4.3039,-4.1963,-4.0993,-3.8683,-3.6864,-3.516,-3.2256,0.0,0.0,0.0,0.0,0.0,0.0,0.0,0.0,0.0,0.0,-3.3755,-3.4643,-3.6616,-3.9169,-4.2267,-4.4277,-4.6106,-4.8442,-4.9564,-4.9908,-4.9202,-4.8891,-4.8418,-4.7217,-4.6448,-4.5837,0.0,0.0,-4.6089,-4.6184,-4.7018,-4.823,-4.9931,-4.9495,-4.9576,0.0,0.0,0.0,0.0,0.0,0.0,-5.2565,0.0,-5.4085,-5.4161,-5.4906,-5.5345,-5.5403,-5.4543,-5.3683,-5.2805,-5.1964,-5.1123,-5.0302,-5.0302,-5.0302,-5.0302,-5.0302,-5.0302,-5.0302,-5.0302,-4.9404,-4.7979,-4.8774,-4.7677,-4.5575,-4.6233,-4.6023,-4.5354,-4.5243,-4.5203,-4.5203,0.0,0.0,0.0,0.0,0.0,0.0,0.0,0.0,0.0,0.0,0.0,0.0,0.0,0.0,0.0,0.0,0.0,0.0,0.0,0.0,0.0,0.0,0.0,0.0,0.0,0.0,0.0,0.0,-3.718,-3.7782,-3.8601,-3.8791,-3.925,-3.9926,-3.9956,-4.0076,-4.015,-3.9204,-3.8637,-3.8145,0.0,-3.4551,-3.3757,0.0,0.0,0.0,0.0,0.0,0.0,0.0,0.0,0.0,0.0,0.0,-3.6469,-3.8427,-4.0709,-4.3027,-4.5037,-4.7192,-4.9166,-5.0379,-5.0379,-5.0202,-5.0597,-4.884,-4.7014,-4.6699,-4.4029,-4.1728,0.0,0.0,0.0,-4.5994,-4.8969,0.0,-5.3385,-5.3442,0.0,0.0,0.0,-5.2475,-5.1845,-5.1839,0.0,0.0,-5.2876,-5.3608,-5.4848,-5.4613,-5.4734,-5.5384,-5.4543,-5.3683,-5.2805,-5.1353,-5.0531,-5.0302,-5.0302,-5.0302,-5.0302,-5.0302,-5.0302,-5.0302,-5.0302,-5.0054,-4.9633,-4.9251,-4.8727,-4.8009,-4.694,-4.6366,-4.6118,-4.5496,-4.5235,-4.5203,0.0,0.0,0.0,0.0,0.0,0.0,0.0,0.0,0.0,0.0,0.0,0.0,0.0,0.0,0.0,0.0,0.0,0.0,0.0,0.0,0.0,0.0,0.0,0.0,0.0,0.0,0.0,0.0,0.0,0.0,-3.4527,-3.4855,-3.5387,-3.6094,-3.6094,-3.6284,-3.6542,-3.5456,0.0,0.0,0.0,0.0,0.0,0.0,0.0,0.0,0.0,0.0,0.0,0.0,0.0,-3.4661,-3.5802,-3.7739,-3.993,-4.1596,0.0,-4.6033,-4.7645,-4.9329,-5.0836,-5.1629,-5.1212,-5.0452,-4.9854,-4.8043,-4.6128,-4.487,-4.2454,0.0,0.0,0.0,0.0,0.0,0.0,0.0,-5.2362,-5.2703,-5.2949,0.0,-5.3366,0.0,-5.2499,-5.2484,-5.2677,0.0,-5.3211,-5.3677,-5.4611,-5.4677,-5.4887,-5.5384,-5.4925,-5.4065,-5.2805,-5.1525,-5.0684,-5.0302,-5.0302,-5.0302,-5.0302,-5.0302,-5.0302,-5.0302,0.0,-5.0092,-4.9767,-4.9671,-4.8965,-4.7895,-4.7302,-4.6615,-4.5927,-4.5428,-4.5224,-4.5192,0.0,0.0,0.0,0.0,0.0,0.0,0.0,0.0,0.0,0.0,-2.5805,-2.5954,0.0,0.0,0.0,0.0,0.0,0.0,0.0,0.0,0.0,0.0,0.0,0.0,0.0,0.0,0.0,0.0,0.0,0.0,0.0,0.0,0.0,0.0,0.0,0.0,0.0,0.0,0.0,0.0,0.0,0.0,0.0,0.0,0.0,0.0,0.0,0.0,0.0,0.0,-3.5447,-3.6709,-3.8427,-4.1017,-4.3571,-4.4458,-4.6305,-4.8351,-4.9836,-5.0854,-5.1593,-5.219,-5.1647,-5.0379,-4.8079,-4.6685,-4.5118,-4.2498,0.0,0.0,-4.0451,0.0,-4.1299,-4.2633,0.0,-4.6525,-4.9779,-5.0315,-5.1206,-5.3442,-5.3139,-5.2736,-5.2807,-5.2821,-5.3171,-5.3968,-5.4093,-5.4147,-5.4173,-5.4931,-5.539,-5.5403,-5.5288,-5.4448,-5.2824,-5.199,-5.1207,-5.0462,-5.0336,-5.0336,-5.0462,-5.0347,-5.029,-5.0302,-5.0302,0.0,-4.9301,-4.9889,-4.8839,-4.6879,-4.7414,-4.6727,-4.5439,-4.5252,-4.5192,-4.5192,0.0,0.0,0.0,0.0,0.0,0.0,0.0,0.0,0.0,0.0,-2.5654,-2.5656,0.0,0.0,0.0,0.0,0.0,0.0,0.0,0.0,0.0,0.0,0.0,0.0,0.0,0.0,0.0,0.0,0.0,0.0,0.0,0.0,0.0,0.0,0.0,0.0,0.0,0.0,0.0,0.0,0.0,0.0,0.0,0.0,0.0,0.0,0.0,0.0,0.0,0.0,-3.7193,-4.0076,-4.2357,-4.4367,-4.616,-4.7645,-4.8822,-4.9872,-5.0832,-5.1665,-5.2172,-5.1629,-5.0397,-4.8876,-4.712,-4.4529,0.0,0.0,0.0,-3.8998,-3.8973,0.0,0.0,-4.4756,0.0,0.0,0.0,0.0,-5.3196,0.0,0.0,0.0,0.0,0.0,0.0,0.0,0.0,-5.487,-5.4993,-5.514,-5.5294,-5.539,-5.4696,-5.3836,-5.2805,-5.1953,-5.1452,-5.128,-5.0513,-5.0551,-5.128,-5.0555,-5.0255,-5.0302,-5.0302,0.0,-5.0054,-4.948,-4.8979,-4.8433,-4.7159,-4.6473,-4.6118,-4.5451,-4.5192,-4.5192,0.0,0.0,0.0,0.0,0.0,0.0,0.0,-2.5243,-2.532,-2.5578,-2.5597,-2.5597,-2.5597,-2.5597,-2.5637,0.0,0.0,0.0,0.0,0.0,0.0,0.0,0.0,0.0,0.0,0.0,0.0,0.0,0.0,0.0,0.0,0.0,0.0,0.0,0.0,0.0,0.0,0.0,0.0,0.0,0.0,0.0,0.0,0.0,0.0,0.0,0.0,0.0,0.0,0.0,-3.6386,-3.993,-4.357,-4.6395,-4.8532,-4.9293,-5.0379,-5.143,-5.181,-5.2208,-5.2299,-5.1484,-4.9782,-4.7732,-4.5707,0.0,0.0,0.0,0.0,-3.8433,-3.8569,0.0,0.0,0.0,0.0,0.0,0.0,0.0,0.0,0.0,0.0,0.0,0.0,0.0,0.0,0.0,0.0,-5.4985,-5.5094,-5.5162,-5.5261,-5.539,-5.5002,-5.4352,-5.3492,-5.2608,-5.2151,-5.2113,-5.1237,-5.1053,-5.1434,-5.1015,-5.0614,-5.0255,-5.0255,0.0,-5.0252,-4.9811,-4.9387,-4.8917,-4.8038,-4.717,-4.6405,-4.6477,-4.624,-4.5878,0.0,0.0,0.0,0.0,0.0,0.0,-2.4823,-2.4902,-2.5056,-2.5524,-2.5597,-2.5597,-2.5597,-2.5597,-2.5597,0.0,0.0,0.0,0.0,0.0,0.0,0.0,0.0,0.0,0.0,0.0,0.0,0.0,0.0,0.0,0.0,0.0,0.0,0.0,0.0,0.0,0.0,0.0,0.0,0.0,0.0,0.0,0.0,0.0,0.0,0.0,0.0,0.0,0.0,0.0,-3.4629,-3.7972,-4.2375,-4.6323,-4.9311,-4.9311,-5.0705,-5.2226,-5.2226,-5.2371,-5.2263,-5.1285,-4.9238,-4.6812,-4.4385,-4.1995,0.0,0.0,-3.8209,-3.8274,-3.8478,0.0,0.0,0.0,0.0,0.0,0.0,0.0,0.0,0.0,0.0,0.0,0.0,0.0,0.0,0.0,0.0,0.0,-5.5,-5.5107,-5.5235,-5.5358,-5.5358,-5.4951,-5.4104,-5.3403,-5.3022,-5.2946,-5.2114,-5.177,-5.1908,-5.1547,-5.1034,-5.0461,-5.0264,0.0,0.0,-5.0212,-4.9813,-4.9217,-4.8966,-4.8066,-4.6975,-4.7479,-4.7274,-4.6714,0.0,0.0,0.0,0.0,0.0,0.0,-2.4764,-2.4902,-2.5056,-2.5524,-2.5597,-2.5597,-2.5597,-2.5597,-2.5597,0.0,0.0,0.0,0.0,0.0,0.0,0.0,0.0,0.0,0.0,0.0,0.0,0.0,0.0,0.0,0.0,0.0,0.0,0.0,0.0,0.0,0.0,0.0,0.0,0.0,0.0,0.0,0.0,0.0,0.0,0.0,0.0,0.0,0.0,0.0,0.0,-3.4497,-3.7809,-4.252,-4.683,-4.683,0.0,0.0,-5.1411,-5.1937,-5.2118,-5.0578,-4.8387,-4.5979,-4.3552,0.0,0.0,0.0,-3.8209,-3.8209,-3.8224,-3.8504,-3.9344,0.0,0.0,0.0,0.0,0.0,0.0,0.0,0.0,0.0,0.0,0.0,0.0,0.0,0.0,0.0,-5.5,-5.5066,-5.5149,-5.5216,-5.5216,-5.4861,-5.4104,-5.3958,-5.3874,-5.3781,-5.2851,-5.281,-5.3532,-5.1993,-5.1311,-5.1262,-5.0525,0.0,0.0,-5.02,-5.0113,-4.9917,-4.9112,-4.8726,-4.8498,-4.7776,-4.7509,-4.7398,0.0,0.0,0.0,0.0,0.0,0.0,-2.4027,-2.4131,-2.4379,-2.5091,-2.5169,-2.5282,-2.5578,-2.5597,-2.5597,-2.5597,0.0,0.0,0.0,0.0,0.0,0.0,0.0,0.0,0.0,0.0,0.0,0.0,0.0,0.0,0.0,0.0,0.0,0.0,0.0,0.0,0.0,0.0,0.0,0.0,0.0,0.0,0.0,0.0,0.0,0.0,0.0,0.0,0.0,0.0,0.0,0.0,-3.3625,-3.7377,0.0,0.0,-4.7373,-4.9456,-5.0904,-5.1882,-5.21,-5.051,-4.7916,-4.5273,-4.3354,0.0,0.0,-3.8281,-3.8209,-3.8209,-3.8209,-3.829,-3.8711,0.0,0.0,0.0,0.0,0.0,0.0,0.0,0.0,0.0,0.0,0.0,0.0,0.0,0.0,0.0,-5.4946,-5.5,-5.5066,-5.5135,-5.5149,-5.501,-5.4713,-5.4249,-5.4209,-5.4618,-5.374,-5.3503,-5.3765,-5.2527,-5.1725,-5.1279,-5.0463,0.0,0.0,-5.0108,-5.005,-4.9993,-4.9618,-4.9174,-4.8757,-4.8947,-4.8384,-4.7509,0.0,0.0,0.0,0.0,0.0,-2.3068,-2.353,-2.3595,-2.3858,-2.4603,-2.4839,-2.5017,-2.5355,-2.5505,-2.5597,-2.5597,-2.5597,0.0,0.0,0.0,0.0,0.0,0.0,0.0,0.0,0.0,-2.6607,-2.6691,-2.7006,0.0,0.0,0.0,0.0,0.0,0.0,0.0,0.0,0.0,0.0,0.0,0.0,0.0,0.0,0.0,0.0,0.0,0.0,0.0,0.0,0.0,0.0,0.0,0.0,0.0,0.0,0.0,-4.482,-4.7373,-4.9057,-5.0633,-5.1448,-5.009,-4.7319,-4.4584,0.0,0.0,-3.8209,-3.8209,-3.8209,-3.8209,-3.8209,-3.8209,-3.8354,0.0,0.0,0.0,0.0,0.0,0.0,0.0,0.0,0.0,0.0,0.0,0.0,0.0,0.0,0.0,0.0,-5.4927,-5.5,-5.5066,-5.5066,-5.508,-5.5094,-5.4577,-5.4583,-5.5066,-5.45,-5.4192,-5.4097,-5.2926,-5.2125,-5.1573,-5.0466,0.0,0.0,-5.0044,-5.0018,-5.0005,-4.9952,-4.9565,-4.9134,-4.9737,-4.9219,-4.8175,0.0,0.0,0.0,0.0,0.0,-2.3068,-2.353,-2.3595,-2.3782,-2.424,-2.4639,-2.4902,-2.4902,-2.532,-2.5597,-2.5597,-2.5597,0.0,0.0,0.0,0.0,0.0,0.0,0.0,0.0,0.0,-2.6136,-2.6401,-2.6657,-2.6973,-2.7299,0.0,0.0,0.0,0.0,0.0,0.0,0.0,0.0,0.0,0.0,0.0,0.0,0.0,0.0,0.0,0.0,0.0,0.0,0.0,0.0,0.0,0.0,0.0,0.0,0.0,-4.0999,-4.5327,-4.5363,-4.7681,-4.9927,-4.913,-4.6504,-4.3896,0.0,0.0,-3.8209,-3.8209,-3.8209,-3.8209,-3.8209,-3.8209,-3.829,-3.8554,-3.8832,0.0,0.0,0.0,0.0,0.0,0.0,0.0,0.0,0.0,0.0,0.0,0.0,0.0,0.0,-5.4901,-5.4931,-5.5,-5.5,-5.5042,-5.5094,-5.5094,-5.5066,-5.5,-5.4981,-5.4956,-5.4825,-5.3158,-5.2385,0.0,0.0,0.0,0.0,-5.007,-5.0057,-5.0005,-5.0005,-4.9946,-4.9893,-4.9912,-4.9893,-4.976,0.0,0.0,0.0,0.0,0.0,0.0,-2.3098,-2.3392,-2.3782,-2.424,-2.4639,-2.5017,-2.5339,-2.5505,-2.5597,-2.5597,-2.5597,0.0,0.0,0.0,0.0,0.0,0.0,0.0,0.0,-2.5862,-2.6028,-2.6136,-2.659,-2.6858,-2.6957,-2.7185,-2.7299,0.0,0.0,0.0,0.0,0.0,0.0,0.0,0.0,0.0,0.0,0.0,0.0,0.0,0.0,0.0,0.0,0.0,0.0,0.0,0.0,0.0,0.0,-3.4018,-3.7341,0.0,-4.2393,-4.3987,-4.5129,-4.4856,-4.3208,-4.1578,-4.1325,0.0,-3.8209,-3.8209,-3.8209,-3.8209,-3.8209,-3.8209,-3.829,-3.8572,-3.8673,0.0,0.0,0.0,0.0,0.0,0.0,0.0,0.0,0.0,0.0,0.0,0.0,0.0,0.0,-5.4901,-5.4916,-5.4931,-5.4931,-5.4927,-5.4956,-5.5014,-5.5028,-5.4981,-5.443,-5.4169,-5.4083,-5.2357,-5.1585,0.0,0.0,0.0,0.0,-4.9946,-4.9952,-4.992,-4.992,-4.9925,-4.9912,-4.9912,-4.9551,-4.904,0.0,0.0,0.0,0.0,0.0,0.0,-2.3164,-2.3414,-2.3782,-2.424,-2.4513,-2.4855,-2.5282,-2.5486,-2.5597,-2.5597,-2.5597,0.0,0.0,0.0,0.0,0.0,0.0,0.0,-2.5597,-2.5768,-2.603,-2.642,-2.6889,-2.7148,-2.7233,-2.7566,-2.7558,-2.7299,-2.7299,-2.7299,0.0,0.0,0.0,0.0,0.0,0.0,-2.7299,0.0,0.0,0.0,0.0,0.0,0.0,0.0,0.0,0.0,0.0,0.0,0.0,0.0,-3.4824,-3.6906,0.0,-4.1162,-4.2448,-4.2448,-4.147,0.0,0.0,0.0,0.0,-3.8209,-3.8209,-3.8209,-3.8209,-3.8209,-3.8257,-3.8417,-3.8779,0.0,0.0,0.0,0.0,0.0,0.0,0.0,0.0,0.0,0.0,0.0,0.0,0.0,0.0,-5.4901,-5.4901,-5.4901,-5.4901,-5.4901,-5.4901,-5.4642,-5.452,-5.4501,-5.3666,-5.3267,-5.3229,-5.1826,-5.1192,0.0,0.0,0.0,0.0,-4.9912,-4.9912,-4.9912,-4.9912,-4.9912,-4.9912,-4.9912,-4.9589,-4.9153,0.0,0.0,0.0,0.0,0.0,0.0,0.0,-2.3659,-2.3852,-2.4281,-2.4364,-2.4533,-2.4918,-2.5336,-2.5597,-2.5597,-2.5597,0.0,0.0,0.0,0.0,0.0,0.0,0.0,-2.5597,-2.5597,-2.6056,-2.7012,-2.7328,-2.7598,-2.7792,-2.8133,-2.7922,-2.7283,-2.7282,-2.7299,-2.7299,-2.7299,-2.7299,-2.7299,-2.7299,-2.7299,0.0,0.0,0.0,0.0,0.0,0.0,0.0,0.0,0.0,0.0,0.0,0.0,0.0,0.0,0.0,0.0,0.0,-3.8916,-4.1216,-4.127,-4.0764,-4.0257,0.0,0.0,0.0,0.0,-3.8209,-3.8209,-3.8209,-3.8209,-3.8209,-3.8209,-3.9073,0.0,0.0,0.0,0.0,0.0,0.0,0.0,0.0,0.0,0.0,0.0,0.0,0.0,0.0,-5.4901,-5.4901,-5.4901,-5.4844,-5.4806,-5.4806,-5.4067,-5.3669,-5.3613,-5.2741,-5.231,-5.2291,-5.1476,-5.1111,0.0,0.0,0.0,0.0,-4.9912,-4.9912,-4.9912,-4.9912,-4.9912,-4.9912,-4.9912,-4.9912,-4.9912,0.0,0.0,0.0,0.0,0.0,0.0,0.0,0.0,0.0,0.0,-2.5068,-2.5333,-2.5429,-2.5524,-2.5597,0.0,0.0,0.0,0.0,0.0,0.0,0.0,0.0,0.0,-2.5597,-2.5597,-2.5812,-2.6255,-2.6328,-2.6509,-2.6756,-2.7029,-2.7077,-2.694,-2.7202,-2.7299,-2.7299,-2.7299,-2.7299,-2.7299,-2.7299,-2.7299,0.0,0.0,0.0,0.0,-2.7184,-2.7119,0.0,0.0,0.0,0.0,0.0,0.0,0.0,0.0,-3.3393,-3.352,-3.4081,0.0,-3.6419,-3.7035,-3.7504,-3.7991,0.0,0.0,0.0,0.0,0.0,0.0,0.0,0.0,0.0,0.0,0.0,0.0,0.0,0.0,0.0,0.0,0.0,0.0,0.0,0.0,0.0,0.0,0.0,0.0,0.0,-5.4901,-5.4901,-5.4901,-5.4295,-5.3992,-5.3992,-5.3783,-5.3366,-5.2703,-5.1874,-5.1476,-5.1438,-5.0599,-5.0201,0.0,0.0,0.0,-4.9912,-4.9912,-4.9912,-4.9912,-4.9912,-4.9912,-4.9912,-4.9912,-4.9912,-4.9912,0.0,0.0,0.0,0.0,0.0,0.0,0.0,0.0,0.0,0.0,-2.5262,-2.5375,-2.5578,-2.5597,-2.5597,0.0,0.0,0.0,0.0,0.0,0.0,0.0,0.0,-2.5597,-2.5597,-2.5712,-2.6115,-2.6787,-2.6759,-2.696,-2.7421,-2.7368,-2.7248,-2.7039,-2.7218,-2.7299,-2.7299,-2.7299,-2.7299,-2.7299,-2.7299,0.0,0.0,0.0,0.0,0.0,-2.7217,-2.7391,0.0,-2.8425,-2.9042,-2.9796,0.0,0.0,0.0,0.0,-3.3256,-3.3393,-3.3393,-3.4262,-3.5261,-3.5677,-3.6689,-3.7665,-3.81,0.0,0.0,0.0,0.0,0.0,0.0,0.0,0.0,0.0,0.0,0.0,0.0,0.0,0.0,0.0,0.0,0.0,0.0,0.0,0.0,0.0,0.0,0.0,0.0,-5.456,-5.4522,-5.4901,-5.3726,-5.3309,-5.3707,-5.2949,-5.2324,-5.1836,-5.0997,-5.0599,-5.058,-5.0107,-4.9912,0.0,0.0,0.0,-4.9912,-4.9912,-4.9912,-4.9912,-4.9912,-4.9912,-4.9912,-4.9912,-4.9912,-4.9912,0.0,0.0,0.0,0.0,0.0,0.0,0.0,0.0,0.0,0.0,0.0,0.0,0.0,0.0,0.0,0.0,0.0,0.0,0.0,0.0,0.0,0.0,-2.5597,-2.5597,-2.5597,-2.5862,-2.647,-2.7441,-2.7549,-2.7893,-2.844,-2.8129,-2.7741,-2.7299,-2.7435,-2.7402,-2.7299,-2.7299,-2.7299,-2.7299,-2.7299,0.0,0.0,0.0,0.0,0.0,0.0,0.0,0.0,-2.923,-3.0092,-3.0924,-3.1634,0.0,0.0,0.0,0.0,0.0,-3.3556,-3.4769,-3.5949,-3.5822,-3.7015,-3.8209,-3.8209,0.0,0.0,0.0,0.0,0.0,0.0,0.0,0.0,0.0,0.0,0.0,0.0,0.0,0.0,0.0,0.0,0.0,0.0,0.0,0.0,0.0,0.0,0.0,0.0,-5.4067,-5.3954,-5.4503,-5.3025,-5.2556,-5.3309,-5.1907,-5.1116,-5.0997,-5.0239,-4.9912,-4.9912,-4.9912,-4.9912,-4.9912,0.0,0.0,-4.9912,-4.9912,-4.9912,-4.9912,-4.9912,-4.9912,-4.9912,-4.9912,-4.9912,-4.9912,0.0,0.0,0.0,0.0,0.0,0.0,0.0,0.0,0.0,0.0,0.0,0.0,0.0,0.0,0.0,0.0,0.0,0.0,0.0,0.0,0.0,-2.5597,-2.5597,-2.5597,-2.5597,-2.5862,-2.6089,-2.6248,-2.7161,-2.766,-2.776,-2.791,-2.7741,-2.7332,-2.7954,-2.7885,-2.7299,-2.7299,-2.7299,-2.7299,-2.7299,0.0,0.0,0.0,0.0,0.0,0.0,0.0,0.0,-2.9669,-3.0398,-3.0907,-3.1526,0.0,0.0,0.0,0.0,0.0,-3.4244,-3.5584,-3.6651,-3.5967,-3.7015,-3.8209,-3.8209,0.0,0.0,0.0,0.0,0.0,0.0,0.0,0.0,0.0,0.0,0.0,0.0,0.0,0.0,0.0,0.0,0.0,0.0,0.0,0.0,0.0,0.0,0.0,0.0,-5.3764,-5.3423,-5.2802,-5.1874,-5.1438,-5.1585,-5.1324,-5.0827,-5.0101,-4.9969,-4.9912,-4.9912,-4.9912,-4.9912,-4.9912,0.0,-4.9912,-4.9912,-4.9912,-4.9912,-4.9912,-4.9912,-4.9912,-4.9912,-4.9912,-4.9912,-4.9912,0.0,0.0,0.0,0.0,0.0,0.0,0.0,0.0,0.0,0.0,0.0,0.0,0.0,0.0,0.0,0.0,0.0,0.0,0.0,0.0,-2.5775,-2.6183,-2.6338,-2.6159,-2.5597,-2.6569,-2.7114,-2.7198,-2.7995,-2.8618,-2.9007,-2.8459,-2.8098,-2.7885,-2.7833,-2.7609,-2.7299,-2.7299,-2.7523,-2.7885,0.0,0.0,0.0,0.0,0.0,0.0,0.0,0.0,0.0,0.0,-3.0593,-3.1116,-3.1346,0.0,0.0,0.0,0.0,0.0,-3.3597,-3.497,-3.6254,-3.5876,-3.7341,-3.8734,-3.8299,0.0,0.0,0.0,0.0,0.0,0.0,0.0,0.0,0.0,0.0,0.0,0.0,0.0,0.0,0.0,0.0,0.0,0.0,0.0,0.0,0.0,0.0,0.0,0.0,0.0,-5.2362,-5.2385,-5.1168,-5.0713,-5.1192,-5.0732,-5.0296,-4.9912,-4.9912,-4.9912,-4.9912,-4.9912,-4.9912,-4.9912,0.0,-4.9912,-4.9912,-4.9912,-4.9912,-4.9912,-4.9912,-4.9912,-4.9912,-4.9912,-4.9912,-4.9912,0.0,0.0,0.0,0.0,0.0,0.0,0.0,0.0,0.0,0.0,0.0,0.0,0.0,0.0,0.0,0.0,0.0,0.0,0.0,-2.5753,-2.5954,-2.6506,-2.7017,-2.6955,-2.6216,-2.7542,-2.8276,-2.8323,-2.9075,-2.9756,-3.0302,-2.9369,-2.8747,-2.8385,-2.7799,-2.7454,-2.7299,-2.7471,-2.7885,-2.842,0.0,0.0,0.0,0.0,0.0,0.0,0.0,0.0,0.0,0.0,0.0,0.0,0.0,0.0,0.0,-3.1787,-3.2436,-3.3229,-3.3106,-3.4555,-3.6091,-3.6091,0.0,-3.9007,-3.8589,0.0,0.0,0.0,0.0,0.0,0.0,0.0,0.0,0.0,0.0,0.0,0.0,0.0,0.0,0.0,0.0,0.0,0.0,0.0,0.0,0.0,0.0,0.0,0.0,0.0,-5.1141,-5.1537,-5.0402,-5.0104,-5.0771,-5.0193,-4.9912,-4.9912,-4.9912,-4.9912,-4.9912,-4.9912,-4.9912,-4.9912,-4.9912,-4.9912,-4.9912,-4.9912,-4.9798,-4.9646,-4.9836,-4.9912,-4.9874,-4.9703,-4.9741,-4.9912,0.0,0.0,0.0,0.0,0.0,0.0,0.0,0.0,0.0,0.0,0.0,0.0,0.0,0.0,0.0,0.0,0.0,0.0,0.0,-2.6202,-2.5989,-2.6038,-2.726,-2.7951,-2.8003,-2.8694,-2.8909,-2.8647,-2.9945,-3.0609,-3.0661,-3.0575,-2.9765,-2.8403,-2.8334,-2.7937,-2.7333,-2.8023,-2.8351,-2.8454,-2.9161,0.0,0.0,0.0,0.0,0.0,0.0,0.0,0.0,0.0,0.0,0.0,0.0,0.0,-3.1732,-3.1714,-3.2248,-3.3005,-3.3721,-3.538,-3.6904,-3.6904,-3.7611,0.0,-3.9152,0.0,0.0,0.0,0.0,0.0,0.0,0.0,0.0,0.0,0.0,0.0,0.0,0.0,0.0,0.0,0.0,0.0,0.0,0.0,0.0,0.0,0.0,0.0,0.0,0.0,-4.9832,-4.9071,-4.9292,-4.9464,-4.9539,-4.9778,-4.9912,-4.9912,-4.9912,-4.9912,-4.9912,-4.9912,-4.9912,-4.9912,-4.9912,-4.9912,-4.9912,-4.9912,-4.9457,-4.8869,-4.9608,-4.9912,-4.9817,-4.9059,-4.9267,-4.9912,0.0,0.0,0.0,0.0,0.0,0.0,0.0,0.0,0.0,0.0,0.0,-2.8207,-2.7753,0.0,0.0,0.0,0.0,0.0,0.0,-2.6697,-2.6683,-2.6683,-2.7531,-2.8453,-2.9431,-2.9874,-2.9946,-2.9638,-3.0826,-3.1369,-3.1351,-3.0403,-2.9903,-2.9782,-2.8834,-2.8506,-2.8696,-2.8972,-2.9368,-2.9851,-3.0127,-3.0524,0.0,0.0,0.0,0.0,0.0,0.0,0.0,0.0,-3.123,-3.119,-3.119,-3.1428,-3.1695,-3.1695,-3.2564,-3.3507,-3.3294,-3.5452,-3.752,-3.649,0.0,0.0,0.0,0.0,0.0,0.0,0.0,0.0,0.0,0.0,0.0,0.0,0.0,0.0,0.0,0.0,0.0,0.0,0.0,0.0,0.0,0.0,0.0,0.0,0.0,0.0,0.0,-4.9175,-4.915,-4.8799,-4.8954,-4.9021,-4.9021,-4.915,-4.9214,-4.9214,-4.9693,-4.9912,-4.9893,-4.9381,-4.9438,-4.9874,-4.9381,-4.9438,-4.9855,-4.9362,-4.9267,-4.9476,-4.9779,-4.9589,-4.9191,-4.9381,-4.9646,-4.9912,0.0,0.0,0.0,0.0,0.0,0.0,0.0,0.0,-2.8973,0.0,0.0,0.0,0.0,-2.8385,0.0,0.0,0.0,0.0,-2.7699,-2.7708,-2.7626,-2.7393,-2.8096,-2.8955,-2.9961,-3.0452,-3.0693,-3.0698,-3.1432,-3.18,-3.1765,-3.0489,-3.0162,-3.0645,-2.9334,-2.9023,-2.9523,-2.9782,-3.0196,-3.0731,-3.0938,-3.1334,0.0,0.0,0.0,0.0,0.0,0.0,0.0,0.0,-3.119,-3.119,-3.119,-3.1351,-3.1615,-3.197,-3.2932,-3.3803,-3.3617,-3.5632,-3.7557,0.0,0.0,0.0,0.0,0.0,0.0,0.0,0.0,0.0,0.0,0.0,0.0,0.0,0.0,0.0,0.0,0.0,0.0,0.0,0.0,0.0,0.0,0.0,0.0,0.0,0.0,0.0,0.0,-4.8326,-4.844,-4.844,-4.8586,-4.8641,-4.8641,-4.8746,-4.8799,-4.8816,-4.9046,-4.9372,-4.9722,-4.9024,-4.9002,-4.9476,-4.8661,-4.8604,-4.9078,-4.8528,-4.8623,-4.9059,-4.8528,-4.849,-4.8736,-4.9021,-4.9457,-4.9879,0.0,0.0,0.0,0.0,0.0,0.0,0.0,0.0,-2.9896,-2.9896,-2.9896,0.0,0.0,0.0,0.0,0.0,0.0,0.0,-2.9769,-2.9382,-2.878,-2.8032,-2.8956,-2.9506,-2.9506,-3.0282,-3.1041,-3.18,-3.1783,-3.1783,-3.1783,-3.1042,-3.0714,-3.0697,-2.9886,-2.9523,-2.9575,-3.0368,-3.0731,-3.0765,-3.1507,-3.18,-3.18,0.0,0.0,0.0,0.0,0.0,0.0,0.0,-3.119,-3.119,-3.119,-3.119,-3.1441,-3.2586,-3.3206,-3.3759,-3.4886,-3.6082,0.0,0.0,0.0,0.0,0.0,0.0,0.0,0.0,0.0,0.0,0.0,0.0,0.0,0.0,0.0,0.0,0.0,0.0,0.0,0.0,0.0,0.0,0.0,0.0,0.0,0.0,0.0,0.0,0.0,-4.7717,-4.7717,-4.7717,-4.8072,-4.8268,-4.8268,-4.8604,-4.878,-4.878,-4.7961,-4.8217,-4.9377,-4.889,-4.8666,-4.8628,-4.7757,-4.7397,-4.7397,-4.7397,-4.7378,-4.7207,-4.5577,-4.6468,-4.8585,-4.7732,-4.8471,-4.9852,0.0,0.0,0.0,0.0,0.0,0.0,0.0,0.0,-2.9896,-2.9896,-2.9896,0.0,0.0,0.0,0.0,0.0,0.0,0.0,-2.9822,-2.9854,-2.9546,-2.8797,-2.875,-2.8972,-2.9489,-2.973,-3.0489,-3.18,-3.1282,-3.1282,-3.1765,-3.0472,-3.0437,-3.1455,-3.1214,-3.111,-3.1162,-3.1921,-3.1955,-3.1489,-3.1714,-3.1746,-3.1653,0.0,0.0,0.0,0.0,0.0,0.0,0.0,0.0,0.0,-3.119,-3.1565,-3.2103,-3.272,-3.3761,-3.4758,-3.5048,-3.663,0.0,0.0,0.0,0.0,0.0,0.0,0.0,0.0,0.0,0.0,0.0,0.0,0.0,0.0,0.0,0.0,0.0,0.0,0.0,0.0,0.0,0.0,0.0,0.0,0.0,0.0,0.0,0.0,0.0,-4.7717,-4.7717,-4.7717,-4.7261,-4.7013,-4.7013,-4.7135,-4.7175,-4.7175,-4.7242,-4.7566,-4.8091,-4.6819,-4.6547,-4.7049,-4.621,-4.6311,-4.7057,-4.7299,-4.6714,-4.571,-4.6392,-4.7112,-4.7738,-4.7491,-4.8098,-4.8924,0.0,0.0,0.0,0.0,0.0,0.0,-2.9896,-2.9896,-2.9946,-3.0044,-3.0044,-3.0156,0.0,0.0,0.0,-3.0965,-3.1004,0.0,-3.0626,-3.0743,-3.0512,-2.9777,-2.9455,-2.9368,-2.9506,-2.9817,-3.0282,-3.0886,-3.0748,-3.0938,-3.1334,-3.0713,-3.092,-3.18,-3.1746,-3.1727,-3.1743,-3.217,-3.2082,-3.1723,-3.1996,-3.2061,-3.2019,0.0,0.0,0.0,0.0,0.0,0.0,0.0,0.0,0.0,-3.1985,-3.2192,-3.2533,-3.3708,-3.4714,-3.557,-3.6167,0.0,0.0,0.0,0.0,0.0,0.0,0.0,0.0,0.0,0.0,0.0,0.0,0.0,0.0,0.0,0.0,0.0,0.0,0.0,0.0,0.0,0.0,0.0,0.0,0.0,0.0,0.0,0.0,0.0,0.0,-4.7717,-4.7554,-4.7246,-4.6757,-4.6359,-4.6033,-4.6015,-4.6015,-4.6015,-4.5947,-4.6011,-4.6192,-4.5523,-4.5467,-4.5876,-4.5042,-4.5078,-4.5739,-4.6059,-4.5613,-4.4801,-4.5956,-4.662,-4.6923,-4.6923,-4.7453,-4.8026,0.0,0.0,-2.9924,-2.9902,0.0,0.0,-2.9946,-2.9968,-3.0081,-3.0293,-3.0351,-3.046,0.0,0.0,0.0,-3.1315,-3.1351,-3.1485,0.0,-3.18,-3.1489,-3.0835,-3.0748,-3.0317,-2.9523,-3.0213,-3.0231,-2.9506,-3.0231,-3.0645,-3.0696,-3.1369,-3.1712,-3.1781,-3.1721,-3.1648,-3.1596,-3.1587,-3.1549,-3.1566,-3.23,-3.2591,-3.2676,-3.341,0.0,0.0,0.0,0.0,0.0,0.0,0.0,0.0,-3.3186,-3.2983,-3.2914,-3.5048,-3.5771,-3.6173,0.0,0.0,0.0,0.0,0.0,0.0,0.0,0.0,0.0,0.0,0.0,0.0,0.0,0.0,0.0,0.0,0.0,0.0,0.0,0.0,0.0,0.0,0.0,0.0,0.0,0.0,0.0,0.0,0.0,0.0,0.0,-4.7717,-4.7337,-4.654,-4.6432,-4.5997,-4.52,-4.5182,-4.5182,-4.5182,-4.444,-4.4095,-4.4134,-4.4736,-4.4999,-4.4944,-4.4183,-4.3849,-4.3881,-4.4213,-4.4341,-4.4383,-4.4694,-4.5332,-4.6101,-4.6026,-4.6499,-4.71,0.0,0.0,-3.0156,-2.9924,0.0,0.0,-3.0246,-3.0435,-3.0621,-3.0666,-3.0686,-3.0825,-3.1159,-3.1181,0.0,-3.1671,-3.169,-3.1727,-3.18,-3.18,-3.1731,-3.1558,-3.1007,-3.0317,-2.9523,-2.9679,-2.9679,-2.9506,-2.9679,-3.0075,-3.0696,-3.0744,-3.1086,-3.167,-3.2156,-3.2066,-3.157,-3.2132,-3.2027,-3.1566,-3.23,-3.2568,-3.259,-3.3342,-3.3552,0.0,0.0,0.0,0.0,0.0,0.0,0.0,-3.3355,-3.3694,-3.4126,-3.4644,-3.5452,-3.6345,0.0,0.0,0.0,0.0,0.0,0.0,0.0,0.0,0.0,0.0,0.0,0.0,0.0,0.0,0.0,0.0,0.0,0.0,0.0,0.0,0.0,0.0,0.0,0.0,0.0,0.0,0.0,0.0,0.0,0.0,-4.7717,-4.7717,-4.7337,-4.654,-4.5888,-4.5164,-4.4367,-4.4349,-4.4349,0.0,-4.4168,-4.4095,-4.4097,-4.3596,-4.3397,-4.3397,-4.3479,-4.3525,-4.3523,-4.3881,-4.4004,-4.4001,-4.408,-4.4647,-4.5335,-4.4647,-4.4927,-4.5531,0.0,0.0,0.0,0.0,0.0,0.0,0.0,0.0,-3.0865,-3.1024,-3.1044,-3.1179,-3.1504,-3.1542,0.0,0.0,-3.18,-3.18,-3.18,-3.18,-3.18,-3.18,-3.142,-3.0679,-2.9541,-2.9816,-2.9609,-2.8887,-2.9574,-3.0158,-3.0607,-3.0859,-3.118,-3.1557,-3.1854,-3.1764,-3.144,-3.1774,-3.1703,-3.1448,-3.2536,-3.2954,-3.3049,-3.4151,-3.4515,-3.4433,-3.4433,0.0,0.0,0.0,0.0,0.0,0.0,0.0,-3.46,-3.5194,-3.5952,-3.6678,0.0,0.0,0.0,0.0,0.0,0.0,0.0,0.0,0.0,0.0,0.0,0.0,0.0,0.0,0.0,0.0,0.0,0.0,0.0,0.0,0.0,0.0,0.0,0.0,0.0,0.0,0.0,0.0,0.0,-4.7717,-4.7717,-4.7717,-4.7156,-4.5961,-4.5526,-4.4729,-4.3534,-4.3516,-4.3516,-4.3516,-4.3516,-4.3516,-4.3517,-4.31,-4.2901,-4.2901,-4.3087,-4.316,-4.3195,-4.3523,-4.3656,-4.3673,-4.3833,-4.4191,-4.4506,-4.4079,-4.4191,-4.4459,0.0,0.0,0.0,0.0,0.0,0.0,0.0,0.0,0.0,-3.1353,-3.1389,-3.1485,-3.1781,-3.18,-3.18,0.0,0.0,0.0,-3.18,-3.18,-3.18,-3.18,-3.18,-3.1196,-2.992,-3.0417,-3.0071,-2.8785,-2.9962,-3.0646,-3.0839,-3.1278,-3.1462,-3.1479,-3.1468,-3.1412,-3.1293,-3.1348,-3.1309,-3.1326,-3.2814,-3.3406,-3.3575,-3.5042,-3.56,-3.56,-3.56,-3.56,-3.56,-3.56,0.0,0.0,0.0,0.0,-3.4897,-3.5878,-3.6454,-3.686,0.0,0.0,0.0,0.0,0.0,0.0,0.0,0.0,0.0,0.0,0.0,0.0,0.0,0.0,0.0,0.0,0.0,0.0,0.0,0.0,0.0,0.0,0.0,0.0,0.0,0.0,0.0,0.0,0.0,-4.7717,-4.7717,-4.7551,-4.683,-4.5345,-4.5164,-4.4385,-4.29,-4.2901,-4.2901,-4.2901,-4.2901,-4.2901,-4.2901,-4.2901,-4.2901,-4.2901,-4.2901,-4.2901,-4.292,-4.3195,-4.3301,-4.3336,-4.3623,-4.3721,-4.3721,-4.3721,-4.3721,-4.3689,0.0,0.0,0.0,0.0,0.0,0.0,0.0,0.0,0.0,0.0,-3.1727,-3.1746,-3.18,-3.18,-3.18,-3.18,-3.18,-3.18,-3.18,0.0,0.0,-3.18,-3.18,-3.1696,-3.1489,-3.1465,-3.1358,-3.1152,-3.1153,-3.1536,-3.2219,-3.1604,-3.1332,-3.1349,-3.1913,-3.1822,-3.1244,-3.1887,-3.1785,-3.1326,-3.2814,-3.3406,-3.3575,-3.5042,-3.56,-3.56,-3.56,-3.56,-3.56,-3.56,-3.5532,0.0,0.0,0.0,0.0,-3.5655,-3.6023,0.0,0.0,0.0,0.0,0.0,0.0,0.0,0.0,0.0,0.0,0.0,0.0,0.0,0.0,0.0,0.0,0.0,0.0,0.0,0.0,0.0,0.0,0.0,0.0,0.0,0.0,0.0,0.0,0.0,-4.7717,-4.7717,-4.7717,-4.7047,-4.625,-4.5327,-4.4621,-4.3806,-4.2919,-4.2901,-4.2901,-4.2901,-4.2901,-4.2901,-4.2901,-4.2901,-4.2901,-4.2901,-4.2901,-4.2901,-4.2901,-4.2957,-4.2976,-4.2976,-4.3014,-4.3032,-4.3032,-4.3032,-4.3032,-4.3032,0.0,0.0,0.0,0.0,0.0,0.0,0.0,0.0,0.0,0.0,0.0,-3.18,-3.18,-3.18,-3.18,-3.18,-3.18,-3.18,-3.18,-3.18,-3.18,-3.18,-3.1727,-3.1484,-3.1071,-3.1317,-3.1242,-3.0832,-3.1089,-3.1642,-3.2388,-3.2032,-3.2083,-3.2486,-3.2784,-3.273,-3.2459,-3.278,-3.273,-3.2527,-3.3592,-3.4015,-3.4134,-3.5194,-3.56,-3.56,-3.56,-3.56,-3.56,-3.56,-3.56,-3.56,-3.56,0.0,0.0,0.0,0.0,0.0,0.0,0.0,0.0,0.0,0.0,0.0,0.0,0.0,0.0,0.0,0.0,0.0,0.0,0.0,0.0,0.0,0.0,0.0,0.0,0.0,0.0,0.0,0.0,0.0,0.0,0.0,0.0,0.0,-4.7283,-4.7029,-4.7029,-4.6269,-4.5454,-4.4639,-4.4277,-4.3697,-4.2919,-4.2901,-4.2901,-4.2901,-4.2901,-4.2901,-4.2901,-4.2901,-4.2901,-4.2901,-4.2901,-4.2901,-4.2901,-4.2901,-4.2901,-4.2901,-4.2901,-4.2901,-4.2901,-4.2901,-4.2901,-4.2901,0.0,0.0,0.0,0.0,0.0,0.0,0.0,0.0,0.0,0.0,0.0,-3.18,-3.18,0.0,0.0,0.0,-3.18,-3.18,-3.18,-3.1781,-3.1746,-3.1746,-3.1634,-3.1321,-3.0772,-3.1119,-3.1023,-3.0479,-3.0961,-3.1664,-3.2581,-3.2581,-3.3068,-3.3943,-3.3761,-3.3592,-3.3423,-3.3609,-3.3575,-3.3474,-3.4201,-3.4489,-3.4573,-3.5312,-3.56,-3.56,-3.56,-3.56,-3.56,-3.56,-3.56,-3.56,0.0,0.0,0.0,0.0,0.0,0.0,0.0,0.0,0.0,0.0,0.0,0.0,0.0,0.0,0.0,0.0,0.0,0.0,0.0,0.0,0.0,0.0,0.0,0.0,0.0,0.0,0.0,0.0,0.0,0.0,0.0,0.0,0.0,0.0,-4.654,-4.6196,-4.6196,-4.5436,-4.4711,-4.4114,-4.3896,-4.3517,-4.2919,-4.2901,-4.2901,-4.2901,-4.2901,-4.2901,-4.2901,-4.2901,-4.2901,-4.2901,-4.2901,-4.2901,-4.2901,-4.2901,-4.2901,-4.2901,-4.2901,-4.2901,-4.2901,-4.2901,-4.2901,-4.2901,0.0,0.0,0.0,0.0,0.0,0.0,0.0,0.0,0.0,0.0,0.0,-3.18,-3.18,-3.18,-3.18,-3.18,-3.18,-3.18,-3.18,-3.169,-3.1617,-3.1617,-3.1538,0.0,-3.1449,-3.1353,-3.1278,-3.1244,-3.1215,-3.1935,-3.3339,-3.3339,-3.4095,-3.5447,-3.4759,-3.4049,-3.3457,-3.415,0.0,-3.3474,0.0,0.0,0.0,0.0,0.0,0.0,0.0,0.0,-3.56,-3.56,-3.56,0.0,0.0,0.0,0.0,0.0,0.0,0.0,0.0,0.0,0.0,0.0,0.0,0.0,0.0,0.0,0.0,0.0,0.0,0.0,0.0,0.0,0.0,0.0,0.0,0.0,0.0,0.0,0.0,0.0,0.0,0.0,0.0,0.0,0.0,0.0,-4.5399,-4.5363,-4.5363,-4.4603,-4.4132,-4.4095,-4.3372,-4.2955,-4.2901,-4.2901,-4.2901,-4.2901,-4.2901,-4.2901,-4.2901,-4.2901,-4.2901,-4.2901,-4.2901,-4.2901,-4.2901,-4.2901,-4.2901,-4.2901,-4.2901,-4.2901,-4.2901,-4.2901,-4.2901,-4.2901,0.0,0.0,0.0,0.0,0.0,0.0,0.0,0.0,0.0,0.0,0.0,0.0,0.0,-3.1612,-3.1612,-3.1612,-3.1612,-3.1612,-3.1612,-3.1557,-3.1538,-3.1538,-3.1426,-3.1626,-3.2117,-3.1562,-3.1469,-3.1927,-3.143,-3.1952,-3.3406,-3.3406,-3.418,-3.5583,-3.5312,-3.5042,-3.4822,-3.5076,0.0,0.0,0.0,0.0,0.0,0.0,0.0,0.0,0.0,0.0,0.0,0.0,0.0,0.0,0.0,0.0,-3.56,0.0,0.0,0.0,0.0,0.0,0.0,0.0,0.0,0.0,0.0,0.0,0.0,0.0,0.0,0.0,0.0,0.0,0.0,0.0,0.0,0.0,0.0,0.0,0.0,0.0,0.0,0.0,0.0,0.0,0.0,0.0,0.0,-4.453,-4.453,-4.3769,-4.3317,-4.3317,-4.3064,-4.2647,-4.214,-4.214,-4.1886,-4.1361,-4.1361,-4.1361,-4.1361,-4.1361,-4.1361,-4.1361,-4.1361,-4.194,-4.2846,-4.2339,-4.2429,-4.2901,-4.2901,-4.2901,-4.2901,-4.2901,-4.2901,-4.2901,0.0,0.0,0.0,0.0,0.0,-3.1688,-3.1688,-3.1615,-3.1559,-3.1559,0.0,0.0,0.0,0.0,-3.1498,-3.1498,-3.1498,-3.1498,-3.1498,-3.1462,-3.1443,-3.1443,-3.1329,-3.1627,-3.2408,-3.1619,-3.1546,-3.2293,-3.1546,-3.1833,-3.3034,-3.3288,-3.4066,-3.525,-3.5481,-3.56,0.0,0.0,0.0,-3.56,0.0,0.0,-3.6011,0.0,0.0,0.0,0.0,0.0,0.0,0.0,0.0,0.0,0.0,-3.56,-3.56,-3.56,0.0,0.0,0.0,0.0,0.0,0.0,0.0,0.0,0.0,0.0,0.0,0.0,0.0,0.0,0.0,0.0,0.0,0.0,0.0,0.0,0.0,0.0,0.0,0.0,0.0,0.0,0.0,0.0,0.0,0.0,0.0,0.0,-4.3317,-4.2792,-4.2375,-4.2103,-4.2085,-4.185,-4.1288,-4.1288,-4.1035,-4.0492,-4.0492,-4.0492,-4.0492,-4.0492,-4.0492,-4.0474,-4.0256,-4.0872,-4.2067,-4.1813,-4.1994,-4.252,-4.2792,-4.2901,-4.2901,-4.2901,-4.2901,-4.2901,0.0,0.0,-3.1498,-3.1498,-3.1498,-3.1498,-3.1498,-3.1498,-3.1498,-3.1498,0.0,0.0,0.0,0.0,0.0,-3.1566,-3.1566,-3.1566,-3.1566,-3.1438,-3.1366,-3.1329,-3.1283,-3.1616,-3.2327,-3.1616,-3.1616,-3.2361,-3.1616,-3.1633,-3.2378,-3.3123,-3.385,-3.4556,-3.5306,-3.5605,-3.56,0.0,-3.5616,-3.5633,0.0,-3.6096,-3.6795,0.0,0.0,0.0,-3.7009,-3.6761,0.0,0.0,0.0,0.0,0.0,-3.56,-3.56,-3.56,0.0,0.0,0.0,0.0,0.0,0.0,0.0,0.0,0.0,0.0,0.0,0.0,0.0,0.0,0.0,0.0,0.0,0.0,0.0,0.0,0.0,0.0,0.0,0.0,0.0,0.0,0.0,0.0,0.0,0.0,-4.2901,-4.2538,-4.1741,-4.1687,-4.1307,-4.051,-4.0492,-4.0492,-4.0474,-4.0474,-4.0456,-4.042,-4.042,-4.042,-4.042,-4.042,-4.042,-4.0383,-3.9677,-3.9767,-4.0492,-4.1288,-4.165,-4.1777,-4.2556,-4.2883,-4.2901,-4.2901,-4.2901,-4.2901,0.0,-3.1557,-3.1498,-3.1498,-3.1498,-3.1498,-3.1498,-3.1406,-3.1351,0.0,0.0,0.0,-3.2018,-3.254,-3.288,-3.288,-3.3148,-3.3191,-3.29,-3.3111,-3.2894,-3.2066,-3.2513,-3.2899,-3.3085,-3.2378,-3.2632,-3.3901,-3.2632,-3.2649,-3.3901,-3.4442,-3.4916,-3.534,-3.6163,-3.6203,-3.56,-3.56,0.0,0.0,-3.6451,-3.6609,0.0,0.0,0.0,0.0,0.0,-3.5943,0.0,0.0,-3.56,-3.56,0.0,0.0,0.0,0.0,0.0,0.0,-3.56,0.0,0.0,0.0,0.0,0.0,0.0,-3.7347,0.0,0.0,0.0,0.0,0.0,0.0,0.0,0.0,0.0,0.0,0.0,0.0,0.0,0.0,0.0,0.0,0.0,0.0,0.0,0.0,-4.2901,-4.2538,-4.1741,-4.1144,-4.0727,-4.051,-4.0492,-4.0256,-3.9713,-3.9695,-3.9405,-3.8844,-3.8844,-3.8844,-3.8844,-3.8844,-3.8844,-3.8808,-3.8608,-3.8662,-3.8898,-3.9695,-4.0691,-4.1723,-4.194,-4.2393,-4.2901,-4.2901,-4.2901,-4.2901,-3.1468,-3.1426,-3.1366,-3.1366,-3.1366,-3.1366,-3.1366,-3.131,-3.1271,0.0,0.0,0.0,-3.2932,-3.3571,-3.3805,-3.3427,-3.3771,-3.3831,-3.3427,-3.3622,-3.3458,-3.2784,-3.3169,-3.3541,-3.3846,-3.3136,-3.3322,-3.4489,-3.3322,-3.3273,-3.4294,-3.4702,-3.5179,-3.5693,-3.617,-3.6287,0.0,0.0,0.0,0.0,-3.7007,0.0,0.0,-3.6931,-3.6705,0.0,0.0,0.0,-3.6462,-3.5819,-3.56,0.0,0.0,0.0,0.0,0.0,0.0,0.0,0.0,0.0,0.0,0.0,0.0,0.0,-3.5566,-3.6298,-3.713,0.0,0.0,0.0,0.0,0.0,0.0,0.0,0.0,0.0,0.0,0.0,0.0,0.0,0.0,0.0,0.0,-4.2901,-4.2901,-4.2901,-4.2901,-4.2393,-4.1252,-4.0148,-3.955,-3.955,-3.955,-3.9333,-3.8915,-3.8915,-3.8662,-3.8209,-3.8209,-3.8209,-3.8209,-3.8209,-3.8209,-3.8209,-3.8209,-3.8209,-3.8245,-3.8716,-3.9804,-4.1234,-4.1578,-4.2194,-4.2901,-4.2901,-4.2901,-4.2901,0.0,-3.1252,-3.119,-3.119,-3.1258,-3.1328,-3.1387,-3.1455,-3.1526,0.0,-3.2548,-3.3465,-3.4123,-3.4644,-3.4638,-3.3857,-3.4129,-3.4152,-3.3748,-3.3706,-3.3651,-3.3525,-3.3609,-3.3914,-3.4472,-3.3863,-3.388,-3.4624,-3.388,-3.3751,-3.4189,-3.4567,-3.5122,-3.578,-3.5868,-3.6224,-3.6759,0.0,0.0,-3.6841,-3.7303,-3.77,0.0,0.0,-3.7195,0.0,-3.7049,-3.7212,-3.7567,-3.609,-3.56,0.0,0.0,0.0,0.0,0.0,-3.56,0.0,0.0,0.0,0.0,0.0,0.0,0.0,-3.4776,-3.5442,-3.6241,0.0,0.0,0.0,0.0,0.0,0.0,0.0,0.0,0.0,0.0,0.0,0.0,0.0,0.0,0.0,-4.2755,-4.2755,-4.2755,-4.2755,-4.2665,-4.2013,-4.0583,-3.9043,-3.8209,-3.8209,-3.8209,-3.8209,-3.8209,-3.8209,-3.8209,-3.8209,-3.8209,-3.8209,-3.8209,-3.8209,-3.8209,-3.8209,-3.8209,-3.8209,-3.8209,-3.8209,-3.9061,-4.0456,-4.1252,-4.2067,-4.2774,-4.2883,-4.2901,-4.2901,-3.1295,-3.1252,-3.119,-3.119,-3.1701,-3.2193,-3.2529,-3.3085,-3.358,-3.3977,-3.4734,-3.5278,-3.5418,-3.6073,-3.6385,-3.6227,-3.6287,-3.6165,-3.5748,-3.5727,-3.5305,-3.4324,-3.4861,-3.4957,-3.4506,-3.4353,-3.4658,-3.538,-3.4658,-3.4634,-3.5297,-3.606,-3.6167,-3.5693,-3.7079,-3.6997,-3.601,0.0,0.0,-3.6841,-3.7264,0.0,-3.8356,-3.7228,-3.6897,-3.6998,-3.6846,-3.6897,-3.688,0.0,-3.56,-3.56,0.0,0.0,0.0,0.0,0.0,0.0,0.0,0.0,0.0,0.0,0.0,0.0,-3.5414,-3.557,-3.5849,0.0,0.0,0.0,0.0,0.0,0.0,0.0,0.0,0.0,0.0,0.0,0.0,0.0,0.0,0.0,-4.1922,-4.1922,-4.1922,-4.1922,-4.1325,-4.0836,-4.051,-3.9043,-3.8209,-3.8209,-3.8209,-3.8209,-3.8209,-3.8209,-3.8209,-3.8209,-3.8209,-3.8209,-3.8209,-3.8209,-3.8209,-3.8209,-3.8209,-3.8209,-3.8209,-3.8209,-3.8753,-3.9695,-4.0438,-4.1216,-4.1994,-4.2647,-4.2901,-4.2901,-3.1252,-3.1351,-3.1585,-3.198,-3.2532,-3.3028,-3.339,-3.377,-3.409,-3.4321,-3.536,-3.6235,-3.6607,-3.7182,-3.7376,-3.6939,-3.7094,-3.7036,-3.6618,-3.6409,-3.6111,-3.5718,-3.5628,-3.5525,-3.5395,-3.5157,-3.5233,-3.56,-3.5233,-3.536,-3.5958,-3.6161,-3.6245,-3.6266,-3.6701,-3.6661,0.0,0.0,-3.8219,-3.75,-3.81,0.0,-3.7581,-3.6582,-3.6197,-3.6197,-3.6197,-3.6197,-3.6197,-3.6197,-3.6197,0.0,0.0,-3.5893,-3.6129,0.0,-3.56,-3.56,0.0,0.0,0.0,-3.56,0.0,0.0,0.0,-3.5329,-3.5548,0.0,0.0,0.0,0.0,0.0,0.0,0.0,0.0,0.0,0.0,0.0,0.0,0.0,0.0,0.0,-4.1089,-4.1089,-4.1089,-4.1089,-4.0401,-3.9948,-3.9948,-3.8826,-3.8209,-3.8209,-3.8209,-3.8209,-3.8209,-3.8209,-3.8209,-3.8209,-3.8209,-3.8209,-3.8209,-3.8209,-3.8209,-3.8209,-3.8209,-3.8209,-3.8209,-3.8209,-3.8444,-3.8879,-3.9659,-4.042,-4.1198,-4.2013,-4.2303,-4.2357,-3.1263,-3.1428,-3.186,-3.2636,-3.3236,-3.377,-3.4272,-3.4517,-3.4718,-3.4795,-3.5935,-3.7041,-3.7793,-3.8075,-3.8041,-3.7633,-3.7554,-3.7411,-3.715,-3.6602,-3.6409,-3.6641,-3.5985,-3.5761,-3.6152,-3.5783,-3.5644,-3.5717,-3.5717,-3.598,-3.6409,-3.6028,-3.6182,-3.6761,-3.6118,0.0,0.0,0.0,0.0,-3.7837,0.0,-3.8213,-3.6848,-3.5932,-3.5769,-3.6039,-3.6039,-3.5938,-3.5943,-3.6592,0.0,-3.6711,-3.6214,-3.6383,0.0,0.0,0.0,0.0,0.0,0.0,0.0,0.0,0.0,-3.5616,0.0,0.0,0.0,0.0,0.0,0.0,0.0,0.0,0.0,0.0,0.0,0.0,0.0,0.0,0.0,0.0,0.0,0.0,0.0,-4.0329,-4.0293,-4.0293,-3.9731,-3.9387,-3.9387,-3.8644,-3.8209,-3.8209,-3.8209,-3.8209,-3.8209,-3.8209,-3.8209,-3.8209,-3.8209,-3.8209,-3.8209,-3.8209,-3.8209,-3.8209,-3.8209,-3.8209,-3.8209,-3.8209,-3.8209,-3.8281,-3.9079,-3.9767,-4.0383,-4.1343,-4.1705,-4.1813,-3.1465,-3.123,-3.1489,-3.2238,-3.3245,-3.4326,-3.5418,-3.6444,-3.7238,-3.7662,-3.7873,-3.8304,0.0,0.0,0.0,0.0,0.0,0.0,-3.7943,0.0,-3.6131,-3.5761,-3.565,-3.5605,-3.5689,-3.5622,-3.5805,-3.6216,-3.6216,-3.643,-3.6821,-3.6781,-3.66,0.0,-3.6638,0.0,0.0,0.0,-3.7723,0.0,-3.7778,-3.7917,0.0,-3.605,-3.6445,-3.7652,-3.7652,-3.7212,-3.6694,0.0,-3.6795,-3.6897,0.0,-3.7246,0.0,0.0,0.0,0.0,0.0,0.0,0.0,0.0,-3.6146,0.0,0.0,0.0,0.0,0.0,0.0,0.0,0.0,0.0,0.0,0.0,0.0,0.0,0.0,0.0,0.0,0.0,0.0,0.0,0.0,-3.9662,-3.9514,-3.9514,-3.9441,-3.9387,-3.9387,-3.8644,-3.8209,-3.8209,-3.8209,-3.8209,-3.8209,-3.8209,-3.8209,-3.8209,-3.8209,-3.8209,-3.8209,-3.8209,-3.8209,-3.8209,-3.8209,-3.8209,-3.8209,-3.8209,-3.8209,-3.8281,-3.9079,-3.9441,-3.9695,-4.1162,-4.1705,-4.1813,-3.3374,-3.338,-3.3772,-3.4542,-3.526,-3.5972,-3.668,-3.7592,-3.8275,-3.8474,-3.9102,0.0,0.0,0.0,0.0,0.0,0.0,-3.8672,0.0,0.0,-3.6902,-3.6724,-3.6245,-3.6002,-3.6002,-3.5739,-3.5711,-3.5893,-3.5893,-3.5963,-3.6161,-3.6412,-3.6326,0.0,-3.635,0.0,-3.6339,0.0,0.0,0.0,0.0,0.0,0.0,-3.5791,-3.6005,-3.6563,-3.6563,-3.6383,-3.6096,0.0,-3.6705,0.0,0.0,0.0,0.0,0.0,0.0,0.0,0.0,0.0,0.0,0.0,0.0,0.0,0.0,0.0,-3.56,0.0,0.0,0.0,0.0,0.0,0.0,0.0,0.0,0.0,0.0,0.0,0.0,0.0,0.0,0.0,0.0,0.0,0.0,0.0,-3.8716,-3.8716,-3.8716,-3.839,-3.8209,-3.8209,-3.8209,-3.8209,-3.8209,-3.8209,-3.8209,-3.8209,-3.8209,-3.8209,-3.8209,-3.8209,-3.8209,-3.8209,-3.8209,-3.8209,-3.8209,-3.8209,-3.8209,-3.8227,-3.8571,-3.8716,-3.8826,-3.9948,-4.0655,-4.1107,-3.5616,-3.5332,-3.5314,-3.6096,-3.6573,-3.7031,-3.7596,-3.8366,-3.8886,0.0,0.0,0.0,-4.08,-4.0836,0.0,0.0,0.0,-3.9842,0.0,0.0,-3.7458,0.0,0.0,0.0,0.0,-3.5761,-3.5717,-3.5963,-3.5963,-3.6075,-3.6312,-3.643,-3.6284,-3.5963,0.0,-3.6174,-3.6301,0.0,0.0,-3.6301,-3.6301,-3.6023,-3.5616,-3.5836,-3.5785,-3.5616,-3.5859,-3.5943,-3.596,-3.6157,-3.7127,0.0,-3.7127,0.0,0.0,0.0,0.0,0.0,-3.7905,0.0,0.0,0.0,0.0,0.0,0.0,0.0,0.0,0.0,0.0,0.0,0.0,0.0,0.0,0.0,0.0,0.0,0.0,0.0,0.0,0.0,0.0,0.0,0.0,0.0,0.0,0.0,0.0,-3.8209,-3.8209,-3.8209,-3.8209,-3.8209,-3.8209,-3.8209,-3.8209,-3.8209,-3.8209,-3.8209,-3.8209,-3.8209,-3.8209,-3.8209,-3.8209,-3.8209,-3.8209,-3.8209,-3.8209,-3.8209,-3.8209,-3.8209,-3.8209,-3.8209,-3.8299,-3.9097,-3.9876,-4.0619,-3.794,-3.6274,0.0,0.0,-3.6166,-3.6825,-3.7997,-3.8845,0.0,0.0,0.0,0.0,0.0,0.0,0.0,0.0,0.0,-4.0972,-3.9417,0.0,-3.7363,0.0,0.0,-3.5622,0.0,0.0,-3.6011,-3.686,-3.686,-3.7282,-3.8106,-3.7264,-3.686,-3.6821,0.0,-3.5871,-3.6301,-3.6301,-3.6301,-3.6301,-3.6301,-3.6023,-3.5684,0.0,-3.6282,-3.5701,-3.6468,0.0,0.0,-3.7601,-3.8328,0.0,0.0,0.0,0.0,0.0,0.0,0.0,0.0,0.0,0.0,-3.7168,0.0,0.0,0.0,0.0,-3.6535,0.0,0.0,0.0,0.0,0.0,0.0,0.0,0.0,0.0,0.0,0.0,0.0,0.0,0.0,0.0,0.0,0.0,0.0,0.0,0.0,0.0,-3.8209,-3.8209,-3.8209,-3.8209,-3.8209,-3.8209,-3.8209,-3.8209,-3.8209,-3.8209,-3.8209,-3.8209,-3.8209,-3.8209,-3.8209,-3.8209,-3.8209,-3.8209,-3.8209,-3.8209,-3.8209,-3.8209,-3.8209,-3.8209,-3.8299,-3.9097,-3.9876,-4.0619,-3.8154,0.0,0.0,0.0,0.0,0.0,0.0,-3.9297,0.0,0.0,0.0,0.0,0.0,0.0,-4.5001,0.0,0.0,-4.2841,-4.1742,-4.0933,0.0,0.0,0.0,-3.7268,0.0,0.0,0.0,0.0,-3.6182,-3.6203,-3.6478,-3.6495,-3.6512,-3.6492,0.0,-3.6305,0.0,0.0,0.0,0.0,0.0,-3.5977,-3.6194,0.0,0.0,-3.5701,-3.6502,-3.6795,0.0,-3.7652,-3.8396,-3.8954,-3.8717,-3.914,-3.9639,-3.914,-3.9157,0.0,0.0,0.0,-3.9503,-3.8505,0.0,0.0,0.0,0.0,0.0,0.0,0.0,0.0,0.0,0.0,0.0,0.0,0.0,0.0,0.0,0.0,0.0,0.0,0.0,0.0,0.0,0.0,0.0,0.0,0.0,0.0,0.0,-3.8209,-3.8209,-3.8209,-3.8209,-3.8209,-3.8209,-3.8209,-3.8209,-3.8209,-3.8209,-3.8209,-3.8209,-3.8209,-3.8209,-3.8209,-3.8209,-3.8209,-3.8209,-3.8209,-3.8209,-3.8209,-3.8209,-3.8209,-3.8227,-3.8517,-3.9405,-4.0691,-3.8263,-3.8209,0.0,0.0,0.0,0.0,0.0,0.0,0.0,0.0,-4.4802,0.0,-4.7591,0.0,-4.6812,0.0,-4.5544,-4.4182,-4.2366,-4.2119,0.0,-3.8366,-3.8588,0.0,0.0,0.0,0.0,0.0,0.0,-3.592,-3.6075,-3.6371,-3.643,-3.6301,0.0,0.0,0.0,0.0,-3.5734,0.0,0.0,-3.5767,0.0,0.0,-3.5672,-3.5935,0.0,-3.6841,-3.7162,-3.7945,-3.8712,-3.9235,-3.8762,-3.9301,-3.9935,-3.9158,-3.9673,-4.0434,-4.018,-4.0485,0.0,-3.9631,-3.9039,0.0,-3.7415,0.0,0.0,0.0,0.0,0.0,0.0,0.0,0.0,0.0,0.0,0.0,0.0,-3.56,0.0,0.0,0.0,0.0,0.0,0.0,0.0,0.0,0.0,0.0,0.0,0.0,-3.8209,-3.8209,-3.8209,-3.8209,-3.8209,-3.8209,-3.8209,-3.8209,-3.8209,-3.8209,-3.8209,-3.8209,-3.8209,-3.8209,-3.8209,-3.8209,-3.8209,-3.8209,-3.8209,-3.8209,-3.8209,-3.8209,-3.8209,-3.8209,-3.917,-4.0637,-3.8372,-3.8227,0.0,0.0,-3.8861,0.0,0.0,0.0,-4.3788,0.0,-4.5816,-4.7862,-4.7935,-4.788,-4.7518,-4.6739,-4.6613,0.0,-4.1602,-4.2306,0.0,0.0,-3.8647,-3.8812,-3.8001,0.0,0.0,0.0,0.0,0.0,-3.69,-3.688,-3.6678,-3.6343,-3.628,0.0,-3.5622,-3.552,-3.5492,-3.5469,-3.5337,-3.5411,-3.557,-3.5371,-3.5787,-3.6489,-3.6456,-3.6932,-3.7693,-3.853,-3.9303,-3.9901,-3.9901,-3.9986,-3.9927,-3.9101,-3.9961,-4.1052,-4.0324,-4.1153,-4.1914,-4.0553,-4.0155,0.0,0.0,0.0,-3.8819,0.0,0.0,0.0,0.0,0.0,0.0,0.0,0.0,0.0,0.0,0.0,0.0,0.0,0.0,0.0,0.0,0.0,0.0,0.0,0.0,0.0,0.0,0.0,-3.8192,-3.8209,-3.8209,-3.8209,-3.8209,-3.8209,-3.8209,-3.8209,-3.8209,-3.8209,-3.8209,-3.8209,-3.8209,-3.8209,-3.8209,-3.8209,-3.8209,-3.8209,-3.8209,-3.8209,-3.8209,-3.8209,-3.8209,-3.8245,-3.9152,-4.0401,-3.8372,-3.868,-3.9079,0.0,-3.8753,-3.8644,0.0,0.0,0.0,0.0,-4.7482,-4.9927,-5.114,-5.0198,-4.9383,-4.9184,-4.8079,0.0,0.0,0.0,0.0,-4.1611,-4.1741,-4.1073,-3.9341,-3.8586,0.0,-3.7857,0.0,0.0,-3.69,-3.6597,-3.6557,-3.6719,0.0,0.0,-3.5941,-3.5526,-3.5337,-3.5354,-3.5314,-3.5914,0.0,0.0,-3.623,-3.7684,-3.7344,-3.7685,-3.8439,-3.921,-3.9604,-3.9755,-3.9755,-3.9781,-3.9773,-3.9537,-4.0228,-4.1023,-4.082,-4.1109,-4.1525,-4.1677,-4.0899,-3.9986,0.0,0.0,0.0,0.0,0.0,0.0,0.0,0.0,0.0,0.0,0.0,0.0,0.0,0.0,0.0,0.0,0.0,0.0,0.0,0.0,0.0,0.0,0.0,0.0,0.0,0.0,0.0,-3.8192,-3.8209,-3.8209,-3.8209,-3.8209,-3.8209,-3.8209,-3.8209,-3.8209,-3.8209,-3.8209,-3.8209,-3.8209,-3.8209,-3.8209,-3.8209,-3.8209,-3.8209,-3.8209,-3.8209,-3.8209,-3.8281,-3.8862,-3.8952,-3.8952,-3.8372,0.0,0.0,-3.9822,0.0,0.0,-4.08,0.0,0.0,-4.5617,-4.8315,0.0,-5.0868,-5.0434,-4.9967,-4.9601,-4.8442,0.0,0.0,0.0,0.0,-4.2703,-4.2701,-4.1905,-4.0058,-3.9121,0.0,-3.7732,0.0,0.0,-3.6312,-3.6305,-3.6305,0.0,0.0,-3.5948,0.0,-3.5853,-3.5682,-3.5682,-3.5635,0.0,0.0,-3.6181,-3.6887,-3.8162,-3.791,-3.8078,-3.8544,-3.9339,-3.9599,-3.9599,-3.9599,-3.9651,-3.9744,-4.0027,-4.0725,-4.147,-4.1789,-4.2217,-4.2567,-4.2669,-4.2098,-4.1457,-4.1145,-4.0823,-4.0341,0.0,0.0,0.0,0.0,0.0,0.0,0.0,0.0,0.0,0.0,0.0,0.0,0.0,0.0,0.0,0.0,0.0,0.0,0.0,0.0,0.0,0.0,0.0,0.0,-3.8192,-3.8553,-3.8571,-3.8209,-3.8553,-3.845,-3.7915,-3.8106,-3.8003,-3.7632,-3.8038,-3.8089,-3.7915,-3.8106,-3.8209,-3.8209,-3.8209,-3.8209,-3.8209,-3.8209,-3.8209,-3.8263,-3.8716,-3.8825,-3.8807,0.0,0.0,0.0,0.0,0.0,0.0,0.0,-4.4114,0.0,-4.6468,0.0,-5.0144,-4.9456,-4.989,-4.9927,-4.9148,0.0,-4.7228,-4.5707,-4.5839,-4.4918,-4.2626,-4.2736,-4.2078,-4.0403,-3.9264,0.0,0.0,0.0,-3.5783,-3.5783,-3.6131,0.0,0.0,0.0,0.0,0.0,-3.6102,-3.603,0.0,-3.6008,-3.6132,-3.6372,-3.6895,-3.7632,-3.8344,-3.8219,-3.8278,-3.8444,-3.9232,-3.9475,-3.9475,-3.9475,-3.9563,-3.9776,-4.0384,-4.1199,-4.2044,-4.2763,-4.3529,-4.3995,-4.3474,-4.3367,-4.3223,-4.2591,-4.1863,-4.1322,-4.1221,-4.0037,-3.8768,0.0,0.0,0.0,0.0,0.0,0.0,0.0,0.0,0.0,0.0,0.0,0.0,0.0,0.0,0.0,0.0,0.0,0.0,0.0,0.0,0.0,-3.8124,-3.8775,-3.8865,-3.8269,0.0,-3.86,-3.7666,-3.7899,-3.7632,-3.6919,-3.7685,-3.781,-3.745,-3.7845,-3.802,-3.802,-3.8089,-3.814,-3.8209,-3.8209,-3.8209,-3.8209,-3.8209,-3.8644,-3.9134,0.0,0.0,0.0,0.0,0.0,-4.3625,-4.6432,-4.6993,-4.7174,-4.7464,-5.0162,-5.2027,-5.1882,-5.1393,-5.0782,-4.9945,-4.9148,0.0,0.0,0.0,0.0,-4.4275,-4.4221,-4.3151,-4.077,-3.9639,-3.8829,0.0,-3.7214,-3.6661,-3.6661,-3.6308,0.0,0.0,0.0,0.0,-3.5177,-3.5129,0.0,-3.5171,-3.576,-3.6373,-3.6945,-3.7069,-3.793,-3.9033,-3.8427,-3.8593,-3.9133,-3.9292,-3.9342,-3.9342,-3.9342,-3.9352,-3.9501,-4.0221,-4.1061,-4.1905,-4.2639,-4.3036,-4.3378,-4.3962,-4.367,-4.3238,-4.3196,-4.2642,-4.1931,-4.1339,-4.0037,-3.8768,-3.8041,0.0,0.0,0.0,0.0,0.0,0.0,0.0,0.0,0.0,0.0,0.0,0.0,0.0,0.0,0.0,0.0,0.0,0.0,0.0,0.0,0.0,-3.7757,0.0,0.0,0.0,-3.7743,-3.8469,-3.7565,-3.7036,-3.69,-3.7055,-3.7075,-3.7017,-3.7094,-3.7113,-3.7151,-3.7487,-3.7845,-3.8209,-3.8209,-3.8209,-3.8209,-3.8209,-3.8299,-3.839,0.0,0.0,0.0,0.0,0.0,0.0,0.0,-4.8405,0.0,-4.8366,-5.0035,-5.0941,-5.0108,-5.0397,-5.0343,-4.9546,-4.8749,-4.8009,-4.7338,-4.6547,-4.5527,-4.4258,-4.3421,0.0,-4.0582,-3.9768,-3.9003,-3.8247,-3.7198,-3.6667,-3.6577,-3.6045,0.0,0.0,0.0,-3.5599,0.0,0.0,0.0,-3.6075,-3.6439,-3.7019,-3.7715,-3.8096,-3.8685,-3.9249,-3.8891,-3.9017,-3.9299,-3.9299,-3.9299,-3.9299,-3.9299,-3.9299,-3.9448,-4.0194,-4.0713,-4.1266,-4.2351,-4.2765,-4.3091,-4.3884,-4.3602,-4.3205,-4.3676,-4.2648,-4.1623,-4.1673,-4.024,-3.8768,-3.8041,-3.6992,0.0,0.0,0.0,0.0,0.0,0.0,0.0,0.0,0.0,0.0,0.0,0.0,0.0,0.0,0.0,0.0,0.0,0.0,0.0,0.0,0.0,0.0,0.0,0.0,0.0,-3.7461,-3.7075,-3.6661,-3.6245,-3.6902,-3.7113,-3.6919,-3.7132,-3.7208,-3.7208,-3.719,-3.7432,-3.7845,-3.7845,-3.8003,-3.8209,-3.8209,-3.8209,-3.8209,0.0,-4.2212,0.0,0.0,-4.5019,0.0,-4.7717,-4.9021,-4.9673,-4.922,-4.9854,-4.98,-4.8369,-4.9329,-4.9764,-4.8963,-4.8312,-4.7619,-4.6874,-4.5583,-4.4485,-4.3594,-4.2304,-4.1176,-4.0269,-3.9657,-3.8963,0.0,-3.7041,-3.6434,-3.6306,-3.5701,0.0,0.0,0.0,0.0,0.0,0.0,-3.6191,-3.687,-3.687,-3.7317,-3.8063,-3.8775,-3.9083,-3.91,-3.9249,-3.9299,-3.9299,-3.9299,-3.9299,-3.9299,-3.9299,-3.9299,-3.9448,-4.0194,-4.0509,-4.0878,-4.217,-4.2738,-4.3136,-4.3748,-4.3535,-4.3349,-4.3963,-4.2718,-4.154,-4.2004,-4.0442,-3.8819,-3.8244,-3.7533,0.0,0.0,0.0,0.0,0.0,0.0,0.0,0.0,0.0,0.0,0.0,0.0,0.0,0.0,0.0,0.0,0.0,0.0,0.0,0.0,0.0,-3.7638,-3.7023,0.0,-3.7214,-3.6563,-3.6585,-3.6249,-3.5644,-3.6744,-3.7124,-3.6885,-3.7304,-3.7476,-3.744,-3.697,-3.7017,-3.7377,-3.7377,-3.7613,-3.7933,-3.8113,-3.822,-3.8325,0.0,0.0,0.0,0.0,0.0,0.0,-4.8529,-4.8909,-4.9257,-4.989,-5.0687,-5.085,-4.9963,-5.0021,-4.9764,-4.8963,-4.8818,-4.8167,-4.6641,-4.6015,-4.4809,-4.2884,-4.2247,-4.1395,-4.0161,-3.9301,-3.8814,0.0,0.0,-3.6386,0.0,-3.5539,0.0,0.0,0.0,0.0,0.0,-3.4998,-3.5429,-3.6108,-3.6108,-3.6555,-3.7284,-3.803,-3.8311,-3.8394,-3.9067,-3.9299,-3.9299,-3.9299,-3.9299,-3.9299,-3.9299,-3.9299,-3.9448,-4.0194,-4.0829,-4.1491,-4.2274,-4.3015,-4.3575,-4.3852,-4.3848,-4.3873,-4.4068,-4.3439,-4.2691,-4.2196,-4.0442,-3.8971,-3.8903,-3.8294,-3.7821,0.0,0.0,0.0,0.0,0.0,0.0,0.0,0.0,0.0,0.0,0.0,0.0,0.0,0.0,0.0,0.0,0.0,0.0,-3.6381,0.0,-3.7456,-3.7426,-3.6368,-3.6368,-3.7361,-3.6261,-3.5672,-3.5622,-3.6156,-3.6552,-3.6837,-3.7214,-3.7413,-3.7339,-3.6661,-3.6597,-3.6958,-3.6958,-3.6978,-3.7105,-3.7772,-3.8291,-3.8739,0.0,0.0,0.0,0.0,0.0,0.0,0.0,-4.922,-4.9018,-4.9347,-5.0071,-5.0271,-4.9474,-4.9383,-4.9057,-4.8239,-4.8167,-4.7355,-4.5422,-4.5165,-4.4187,-4.2181,-4.1498,-4.0749,-3.9884,-3.9435,-3.9152,0.0,0.0,0.0,0.0,0.0,0.0,0.0,0.0,-3.5313,-3.4932,-3.5363,-3.5727,-3.6042,-3.6489,-3.7102,-3.7798,-3.8096,-3.8477,-3.8891,-3.9199,-3.9033,-3.8709,-3.9149,-3.9299,-3.9299,-3.9299,-3.9299,-3.9365,-3.9647,-3.9945,-4.0282,-4.1028,-4.1442,-4.1818,-4.2261,-4.2406,-4.2551,-4.304,-4.2677,-4.2161,-4.1905,-4.063,-3.9547,-3.9648,-3.9056,-3.87,0.0,0.0,0.0,0.0,0.0,0.0,0.0,0.0,0.0,0.0,0.0,0.0,0.0,0.0,0.0,0.0,0.0,0.0,-3.6592,0.0,-3.6558,-3.7058,-3.6084,-3.5864,-3.6353,-3.6322,-3.6079,-3.5656,-3.6992,-3.7686,-3.7837,-3.7983,-3.7676,-3.7018,-3.6711,-3.6586,-3.6588,-3.7019,-3.7079,-3.704,-3.8246,-3.8488,-3.8496,-4.5617,0.0,-4.6087,0.0,-4.7228,-4.7518,-4.9456,-4.9057,-4.8619,-4.8873,-4.9184,-4.9184,-4.8623,-4.8547,-4.8312,-4.7753,-4.7717,-4.6865,-4.4829,-4.4614,-4.3633,-4.1612,-4.0893,0.0,-3.9703,-3.9563,-3.9426,-3.9291,-3.8648,0.0,0.0,0.0,0.0,0.0,-3.6224,-3.5909,-3.5263,-3.6009,-3.6324,-3.6373,-3.6903,-3.7284,-3.7582,-3.7798,-3.8063,-3.8404,-3.8834,-3.8642,-3.8328,-3.905,-3.9299,-3.9299,-3.9299,-3.9299,-3.9299,-3.9299,-3.9448,-3.9746,-4.026,-4.0558,-4.0812,-4.1293,-4.1409,-4.1529,-4.2042,-4.1879,-4.1577,-4.1405,-4.0581,-3.9926,-4.0037,-3.9665,-3.9478,-3.9952,0.0,0.0,0.0,0.0,0.0,0.0,0.0,-3.6174,-3.5977,0.0,0.0,0.0,0.0,0.0,0.0,0.0,0.0,0.0,0.0,0.0,-3.6434,-3.6332,-3.6157,-3.596,-3.6738,-3.6823,-3.6332,-3.7934,-3.8706,-3.882,-3.87,-3.8178,-3.7438,-3.7218,-3.686,-3.6504,-3.7019,-3.7094,-3.7023,-3.8283,-3.8647,-3.8734,-4.6341,-4.6486,-4.6739,-4.7572,-4.7678,-4.795,-4.8782,-4.8221,-4.8007,-4.88,-4.8224,-4.7735,-4.7735,-4.7696,-4.7717,-4.7717,-4.7717,-4.7006,-4.5292,-4.4718,-4.343,0.0,0.0,-4.017,-3.9703,-3.9563,-3.9501,-3.9511,0.0,0.0,-3.8179,0.0,-3.6721,-3.6025,-3.6771,-3.6688,-3.6025,-3.6771,-3.7102,-3.7102,-3.7102,-3.6671,-3.6108,-3.6837,-3.6671,-3.6241,-3.7698,-3.8228,-3.8328,-3.905,-3.9299,-3.9299,-3.9299,-3.9299,-3.9299,-3.9299,-3.9829,-4.0393,-4.0409,-4.0878,-4.1409,-4.1409,-4.1409,-4.1409,-4.1397,-4.1425,-4.1254,-4.0712,-4.023,-3.9901,-3.9901,-3.9995,-4.0045,-3.991,0.0,0.0,0.0,0.0,0.0,0.0,-3.7432,-3.7584,-3.6863,0.0,0.0,0.0,0.0,0.0,0.0,0.0,0.0,-3.5633,-3.707,0.0,-3.5633,-3.7104,-3.7499,-3.6795,-3.7533,-3.7889,-3.7905,-3.865,-3.9204,-3.9554,-3.9173,-3.8996,-3.8903,-3.8193,-3.7449,-3.6778,-3.6795,-3.6795,-3.688,-3.7642,-3.8662,-3.9784,-4.7283,-4.7319,-4.7409,-4.7663,-4.7717,-4.7787,-4.8022,-4.7859,-4.7787,-4.804,-4.7859,-4.7717,-4.7717,-4.7717,-4.744,0.0,-4.7247,-4.6843,0.0,-4.4571,-4.353,-4.1852,-4.081,-3.9995,-3.9441,-3.9379,-3.9352,-3.9352,0.0,0.0,0.0,-3.8692,-3.8195,-3.7516,-3.7765,-3.745,-3.6804,-3.7549,-3.7566,-3.7152,-3.7665,-3.7715,-3.7533,-3.7765,-3.8013,-3.8321,-3.8785,-3.8626,-3.8328,-3.905,-3.8984,-3.8642,-3.9149,-3.9299,-3.9299,-3.9299,-3.9481,-3.9647,-3.9647,-3.9812,-3.9951,-3.9951,-4.0332,-4.0713,-4.0713,-4.0713,-4.0702,-4.0623,-4.0097,-3.9642,-3.9746,-3.9807,-3.9807,-3.9781,-3.9177,0.0,0.0,0.0,0.0,0.0,-3.6145,-3.6225,0.0,-3.5994,0.0,0.0,0.0,0.0,0.0,0.0,0.0,0.0,-3.7161,0.0,-3.7905,-3.7922,-3.7787,-3.755,-3.8294,-3.8903,-3.9402,-3.9106,-3.934,-3.9921,-3.9807,-3.9469,-3.8971,-3.8751,-3.821,-3.7601,-3.8091,-3.799,-3.7702,-3.8937,-3.9331,-3.9389,-4.7717,-4.7717,-4.7717,-4.7717,-4.7717,-4.7717,-4.7717,-4.7717,-4.7717,-4.7717,-4.7717,-4.7636,-4.7407,-4.7115,0.0,-4.6478,-4.6926,-4.6378,-4.4441,-4.4223,-4.3325,-4.1395,-4.0548,-3.9868,-3.9299,-3.9299,0.0,-3.9299,-3.9299,-3.9299,-3.9299,-3.9299,-3.8907,-3.8202,-3.8493,-3.8212,-3.7566,-3.8311,-3.8195,-3.7582,-3.8328,-3.8278,-3.7831,-3.8096,-3.8311,-3.852,-3.8775,-3.8593,-3.8328,-3.905,-3.9,-3.8692,-3.9149,-3.9299,-3.9299,-3.9299,-3.9299,-3.9299,-3.9299,-3.9299,-3.9299,-3.9299,-3.9647,-3.9995,-3.9995,-3.9995,-4.0022,-4.0076,-4.0024,-3.9944,-4.0034,-4.007,-4.0096,-4.006,-3.8999,-3.7995,-3.7494,0.0,0.0,0.0,0.0,0.0,0.0,-3.6062,-3.6129,0.0,0.0,0.0,0.0,0.0,0.0,-3.7449,-3.7297,0.0,-3.8582,-3.8684,-3.8582,-3.8328,-3.9056,-3.9656,-4.0079,-3.9622,-3.9673,-4.0096,-4.0096,-3.9842,-3.9394,-3.9394,-3.8971,-3.8362,-3.8819,-3.8717,-3.843,-3.9368,-3.9571,-3.9511,-4.7717,-4.7717,-4.7717,0.0,-4.7717,0.0,-4.7717,-4.7717,-4.7717,-4.7717,-4.7663,-4.7399,-4.6882,-4.6069,-4.5777,-4.6359,0.0,0.0,0.0,-4.3763,-4.2851,-4.0189,-4.0062,-3.9807,-3.9299,-3.9299,-3.9299,-3.9299,-3.9299,-3.9299,-3.9299,-3.9299,-3.8924,-3.8328,-3.9,-3.8934,-3.8328,-3.9017,-3.8891,-3.8344,-3.9033,-3.8486,-3.7334,-3.803,-3.7864,-3.735,-3.803,-3.8295,-3.8394,-3.9083,-3.9299,-3.9299,-3.9299,-3.9299,-3.9299,-3.9299,-3.9299,-3.9299,-3.9299,-3.9332,-3.9381,-3.9381,-3.9381,-3.9365,-3.9315,-3.9299,-3.9299,-3.9299,-3.9943,-4.0523,-4.0573,-4.0708,-4.0719,-4.06,-3.8888,-3.7477,-3.732,0.0,0.0,0.0,0.0,0.0,-3.6789,-3.6795,-3.6502,0.0,0.0,0.0,0.0,0.0,-3.6113,-3.6863,-3.7584,-3.8007,-3.8058,-3.9394,-3.9757,-3.9073,-3.9774,-4.0096,-4.0096,-4.0096,-4.0096,-4.0096,-4.0096,-4.0096,-4.0096,-4.0096,-3.9706,-3.9073,-3.9073,-3.9073,-3.9073,-3.9073,-3.952,-4.0096,0.0,0.0,-4.7717,-4.7717,-4.7717,-4.7717,-4.7717,-4.7717,-4.7717,-4.7717,-4.7174,-4.657,-4.5976,-4.5393,-4.4644,-4.3595,-4.4381,-4.4672,-4.4007,-4.37,-4.2765,-4.0993,-4.0507,-3.9997,-3.9315,-3.9299,-3.9299,-3.9299,-3.9299,-3.9299,-3.9299,-3.9299,-3.9216,-3.905,-3.9232,-3.9199,-3.905,-3.9232,-3.9199,-3.9067,-3.9232,-3.91,-3.8801,-3.8984,-3.8934,-3.8818,-3.8984,-3.905,-3.9083,-3.9249,-3.9299,-3.9299,-3.9299,-3.9299,-3.9299,-3.9299,-3.9299,-3.9299,-3.9299,-3.9713,-4.0144,-4.0144,-4.0144,-3.9995,-3.9431,-3.9299,-3.9299,-3.9299,-3.9458,-3.9783,-4.032,-4.0464,-4.0491,-4.0464,-3.9086,-3.7825,-3.7235,-3.6085,0.0,0.0,-3.6295,-3.6772,-3.6795,-3.6795,-3.6941,0.0,0.0,0.0,0.0,-3.7364,-3.7449,-3.7635,-3.8362,-3.9005,-3.9571,-3.9926,-4.0011,-3.9842,-4.0028,-4.0096,-4.0096,-4.0096,-4.0096,-4.0096,-4.0096,-4.0096,-4.0096,-4.0096,-3.9994,-3.9842,-3.9842,-3.9842,-3.9842,-3.9842,-3.996,-4.0096,-4.7717,-4.7717,-4.7717,-4.7717,-4.7717,-4.7717,-4.7717,-4.7391,-4.7156,-4.7156,-4.645,-4.574,-4.5156,-4.426,-4.3399,-4.2612,-4.3529,-4.364,-4.2547,-4.2417,-4.1794,-4.0385,-4.0067,-3.9713,-3.9315,-3.9299,-3.9299,-3.9299,-3.9299,-3.9299,-3.9299,-3.9299,-3.9299,-3.9299,-3.9299,-3.9299,-3.9299,-3.9299,-3.9299,-3.9299,-3.9299,-3.9299,-3.9299,-3.9299,-3.9299,-3.9299,-3.9299,-3.9299,-3.9299,-3.9299,-3.9299,-3.9299,-3.9299,-3.9299,-3.9299,-3.9299,-3.9547,-3.9812,-3.9812,-4.0326,-4.0779,-4.0492,-4.0409,-4.021,-3.9481,-3.9299,-3.9398,-3.973,-4.0061,-4.0481,-4.121,-4.1077,-4.0746,-4.0459,-3.8874,-3.745,-3.6704,-3.5749,0.0,-3.5666,-3.6239,-3.6774,-3.7152,-3.7273,-3.7466,-3.7872,-3.7838,0.0,-3.7905,-3.8531,-3.8751,-3.8413,-3.8785,-3.9368,-4.0096,-4.0096,-4.0096,-4.0096,-4.0096,-4.0282,-4.0578,-4.0265,-4.0282,-4.0578,-4.0248,-4.0096,-4.0096,-4.0096,-4.0096,-4.0096,-4.0096,-4.0096,-4.0096,-4.0096,-4.0096,-4.0096,-4.7518,-4.7606,-4.7663,-4.7554,-4.7606,-4.7717,-4.7717,-4.712,-4.6649,-4.6522,-4.5798,-4.5016,-4.4248,-4.3054,-4.2247,-4.2108,-4.2839,-4.2506,-4.053,-4.0929,-4.0647,-3.9358,-3.9415,-3.9415,-3.9299,-3.9299,-3.9299,-3.9299,-3.9299,-3.9299,-3.9299,-3.9299,-3.9299,-3.9299,-3.9299,-3.9299,-3.9299,-3.9299,-3.9299,-3.9299,-3.9299,-3.9299,-3.9299,-3.9299,-3.9299,-3.9299,-3.9299,-3.9299,-3.9299,-3.9299,-3.9299,-3.9299,-3.9299,-3.9299,-3.9299,-3.9299,-3.9895,-4.0509,-4.0293,-4.0796,-4.1276,-4.068,-4.0531,-4.0343,-3.9497,-3.9381,-3.9647,-4.0276,-4.0928,-4.164,-4.2357,-4.1893,-4.1226,-4.063,-3.8692,-3.7019,-3.6274,0.0,-3.5369,-3.6096,-3.6508,-3.7021,-3.7748,-3.7954,-3.8077,-3.8179,-3.87,-3.8768,-3.8261,-3.9512,-3.9994,-3.9343,-3.9208,-3.9486,-4.0096,-4.0096,-4.0096,-4.0096,-4.0096,-4.0434,-4.1018,-4.04,-4.0426,-4.1001,-4.0383,-4.0096,-4.0096,-4.0096,-4.0096,-4.0096,-4.0096,-4.0096,-4.0096,-4.0096,-4.0096,-4.0096,-4.6703,-4.7246,-4.75,-4.6812,-4.7265,-4.7717,-4.7717,-4.7588,-4.7283,-4.6595,-4.5798,-4.4617,-4.2845,-4.2492,-4.1671,-3.9967,-4.0602,-4.0882,-4.0426,-4.0995,-4.0757,-3.9365,-3.9912,-3.9945,-3.9315,-3.9299,-3.9299,-3.9299,-3.9299,-3.9299,-3.9299,-3.9299,-3.9299,-3.9299,-3.9299,-3.9299,-3.9299,-3.9299,-3.9299,-3.9299,-3.9299,-3.9299,-3.9299,-3.9299,-3.9299,-3.9299,-3.9299,-3.9299,-3.9299,-3.9299,-3.9299,-3.9299,-3.9299,-3.9299,-3.9299,-3.9299,-4.0216,-4.0994,-3.9796,-4.0398,-4.1392,-4.1276,-4.1243,-4.0895,-3.9613,-3.9779,-4.026,-4.0376,-4.0928,-4.164,-4.2357,-4.1893,-4.1375,-4.1276,-3.9454,-3.7755,-3.7036,0.0,-3.6046,-3.6163,-3.7427,-3.8305,-3.8447,-3.8589,-3.8933,-3.9539,-3.9226,-3.9208,-3.974,-4.0561,-4.0984,-4.0865,-4.024,-3.9994,-4.0096,-4.0096,-4.0096,-4.0096,-4.0096,-4.0163,-4.0282,-4.0146,-4.0163,-4.0265,-4.0146,-4.0096,-4.0096,-4.0096,-4.0096,-4.0096,-4.0096,-4.0096,-4.0096,-4.0096,-4.0096,-4.0096,-4.7156,-4.7464,-4.7591,-4.721,-4.7216,-4.7363,-4.7657,-4.7089,-4.6572,-4.6499,-4.5197,-4.3892,-4.2904,-4.1911,-4.0906,-3.9876,-3.9874,-3.9877,-3.9812,-4.0083,-3.9995,-3.9332,-3.963,-3.9647,-3.9315,-3.9299,-3.9299,-3.9299,-3.9299,-3.9299,-3.9299,-3.9299,-3.9299,-3.9299,-3.9299,-3.9299,-3.9299,-3.9299,-3.9299,-3.9299,-3.9299,-3.9299,-3.9299,-3.9299,-3.9299,-3.9299,-3.9299,-3.9299,-3.9299,-3.9299,-3.9299,-3.9299,-3.9299,-3.9299,-3.9299,-3.9299,-4.0282,-4.1413,-4.1591,-4.2104,-4.2473,-4.2075,-4.1976,-4.174,-4.0663,-4.068,-4.1044,-4.1442,-4.1789,-4.2208,-4.2953,-4.2158,-4.1409,-4.1409,-3.9272,0.0,-3.7698,-3.6771,-3.6538,-3.7734,-3.8244,-3.8805,-3.9597,-3.9795,-3.9865,-3.9798,-4.027,-4.0583,-4.0577,-4.1285,-4.1902,-4.2361,-4.1271,-4.0865,-4.1297,-4.0502,-4.0316,-4.0679,-4.0299,-4.0316,-4.0679,-4.0282,-4.0333,-4.0663,-4.0282,-4.0096,-4.0096,-4.0096,-4.0096,-4.0096,-4.0096,-4.0096,-4.0096,-4.0096,-4.0096,-4.0096,-4.6902,-4.7174,-4.7313,-4.7009,-4.6635,-4.6556,-4.7162,-4.6219,-4.5595,-4.5972,-4.4641,-4.3444,-4.2926,-4.1585,-4.0514,-4.007,-3.9609,-3.9325,-3.9299,-3.9299,-3.9299,-3.9299,-3.9299,-3.9299,-3.9299,-3.9299,-3.9299,-3.9299,-3.9299,-3.9299,-3.9299,-3.9299,-3.9299,-3.9299,-3.9299,-3.9299,-3.9299,-3.9299,-3.9299,-3.9299,-3.9299,-3.9299,-3.9299,-3.9299,-3.9299,-3.9299,-3.9299,-3.9299,-3.9299,-3.9299,-3.9299,-3.9299,-3.9299,-3.9299,-3.9299,-3.9299,-4.0282,-4.1662,-4.2986,-4.3333,-4.3201,-4.2638,-4.2489,-4.2307,-4.1562,-4.1541,-4.1839,-4.2373,-4.2638,-4.292,-4.3499,-4.2373,-4.1409,-4.1409,0.0,-3.7615,0.0,-3.7483,-3.745,-3.9332,-3.9279,-3.9531,-4.0679,-4.0932,-4.0762,-4.022,-4.1241,-4.1707,-4.1228,-4.19,-4.2694,-4.3546,-4.2351,-4.1897,-4.2286,-4.1196,-4.0908,-4.1457,-4.0696,-4.0646,-4.117,-4.0451,-4.0417,-4.0916,-4.0367,-4.0096,-4.0096,-4.0096,-4.0096,-4.0096,-4.0096,-4.0096,-4.0096,-4.0096,-4.0096,-4.0096,-4.4512,-4.5562,-4.6197,-4.4965,-4.4753,-4.5003,-4.5757,-4.5182,-4.4682,-4.4646,-4.4517,-4.3748,-4.1999,-4.17,-4.106,-3.9666,-3.9511,-3.9432,-3.9299,-3.9299,-3.9299,-3.9299,-3.9299,-3.9299,-3.9299,-3.9299,-3.9299,-3.9299,-3.9299,-3.9299,-3.9299,-3.9299,-3.9299,-3.9299,-3.9299,-3.9299,-3.9299,-3.9299,-3.9299,-3.9299,-3.9299,-3.9299,-3.9299,-3.9299,-3.9299,-3.9299,-3.9299,-3.9299,-3.9299,-3.9299,-3.9299,-3.9299,-3.9299,-3.9299,-3.9299,-3.9299,-4.0282,-4.1562,-4.2357,-4.2572,-4.2555,-4.2506,-4.2489,-4.2307,-4.1562,-4.1926,-4.2423,-4.2473,-4.3035,-4.3532,-4.3582,-4.2373,-4.1409,-4.1409,0.0,0.0,-3.9133,-3.9133,-3.9381,-4.0227,-4.0812,-4.121,-4.1326,-4.1516,-4.1616,-4.1566,-4.1771,-4.1887,-4.1837,-4.2535,-4.3272,-4.4026,-4.3507,-4.2946,-4.2303,-4.2185,-4.2151,-4.2202,-4.1474,-4.1153,-4.117,-4.0451,-4.013,-4.018,-4.013,-4.0096,-4.0096,-4.0096,-4.0096,-4.0096,-4.0096,-4.0096,-4.0096,-4.0096,-4.0096,-4.0096,-4.4471,-4.4671,-4.4734,-4.4213,-4.3886,-4.3898,-4.4481,-4.4062,-4.3793,-4.4092,-4.3441,-4.2642,-4.1842,-4.106,-4.0273,-3.9571,-3.9501,-3.9448,-3.9299,-3.9299,-3.9299,-3.9299,-3.9299,-3.9299,-3.9299,-3.9299,-3.9299,-3.9299,-3.9299,-3.9299,-3.9299,-3.9299,-3.9299,-3.9299,-3.9299,-3.9299,-3.9299,-3.9299,-3.9299,-3.9299,-3.9299,-3.9299,-3.9299,-3.9299,-3.9299,-3.9299,-3.9299,-3.9299,-3.9299,-3.9299,-3.9299,-3.9299,-3.9299,-3.9613,-4.0061,-4.0481,-4.1309,-4.2125,-4.2406,-4.282,-4.3168,-4.3168,-4.3168,-4.3102,-4.282,-4.2969,-4.3168,-4.3168,-4.34,-4.3598,-4.3598,-4.2754,-4.2224,-4.2688,0.0,-3.9967,-4.1127,-4.0514,-4.0426,-4.1574,-4.1524,-4.1591,-4.2026,-4.2149,-4.1996,-4.1531,-4.2401,-4.2832,-4.2607,-4.3474,-4.4125,-4.4384,-4.4243,-4.3967,-4.3535,-4.2733,-4.2286,-4.2286,-4.1542,-4.0967,-4.0493,-4.0231,-4.0096,-4.0096,-4.0096,-4.0096,-4.0096,-4.0096,-4.0096,-4.0096,-4.0096,-4.0096,-4.0096,-4.0096,-4.0096,-4.0096,-4.3918,-4.3801,-4.3631,-4.3331,-4.2784,-4.2594,-4.3179,-4.2742,-4.2594,-4.3179,-4.2517,-4.1977,-4.197,-4.0951,-4.0211,-3.9976,-3.9723,-3.9511,-3.9379,-3.9325,-3.9299,-3.9299,-3.9299,-3.9299,-3.9299,-3.9299,-3.9299,-3.9299,-3.9299,-3.9299,-3.9299,-3.9299,-3.9299,-3.9299,-3.9299,-3.9299,-3.9299,-3.9299,-3.9299,-3.9299,-3.9299,-3.9299,-3.9299,-3.9299,-3.9299,-3.9332,-3.9564,-3.9497,-3.9381,-3.9829,-3.968,-3.9381,-3.9829,-4.0177,-4.0542,-4.121,-4.1744,-4.2241,-4.2704,-4.3201,-4.3598,-4.3598,-4.3598,-4.3598,-4.3598,-4.3598,-4.3598,-4.3598,-4.3598,-4.3598,-4.3598,-4.2986,-4.2655,-4.3168,-4.1839,-4.1127,-4.2324,-4.1674,-4.1491,-4.2688,-4.239,-4.2274,-4.2787,-4.2837,-4.2638,-4.2109,-4.3019,-4.3501,-4.3292,-4.4029,-4.4429,-4.4429,-4.4559,-4.4497,-4.431,-4.3466,-4.2895,-4.2642,-4.1897,-4.1271,-4.079,-4.0316,-4.0231,-4.0434,-4.0197,-4.0096,-4.0096,-4.0096,-4.0096,-4.0096,-4.0096,-4.0096,-4.0096,-4.0096,-4.0096,-4.0096,-4.244,-4.284,-4.3058,-4.2057,-4.1302,-4.106,-4.1778,-4.1243,-4.106,-4.1778,-4.1881,-4.1976,-4.2238,-4.1627,-4.1152,-4.0987,-4.0201,-3.9625,-3.9528,-3.9379,-3.9299,-3.9299,-3.9299,-3.9299,-3.9299,-3.9299,-3.9299,-3.9299,-3.9299,-3.9299,-3.9299,-3.9299,-3.9299,-3.9299,-3.9299,-3.9299,-3.9299,-3.9299,-3.9299,-3.9299,-3.9299,-3.9299,-3.9299,-3.9299,-3.9299,-3.9398,-4.0144,-3.9928,-3.9514,-4.0912,-4.0448,-3.9547,-4.0961,-4.0928,-4.0542,-4.1226,-4.1397,-4.1711,-4.3201,-4.3598,-4.3598,-4.3598,-4.3598,-4.3598,-4.3598,-4.3598,-4.3598,-4.3598,-4.3598,-4.3598,-4.3598,-4.2986,-4.2506,-4.2506,-4.1877,-4.1662,-4.2406,-4.2506,-4.2771,-4.3499,-4.3598,-4.3598,-4.3598,-4.3598,-4.3598,-4.3598,-4.3598,-4.3687,-4.3898,-4.4027,-4.4097,-4.4097,-4.4429,-4.4497,-4.431,-4.4497,-4.4198,-4.3375,-4.2642,-4.2286,-4.2236,-4.0773,-4.0519,-4.1153,-4.0434,-4.0096,-4.0096,-4.0096,-4.0096,-4.0096,-4.0096,-4.0096,-4.0096,-4.0096,-4.0096,-4.0096,-4.1839,-4.2046,-4.1996,-4.0836,-4.0882,-4.0976,-4.0678,-4.044,-4.0389,-4.061,-4.0627,-4.0679,-4.0739,-4.057,-4.0358,-4.0246,-3.9899,-3.9599,-3.9379,-3.9325,-3.9299,-3.9299,-3.9299,-3.9299,-3.9299,-3.9299,-3.9299,-3.9299,-3.9299,-3.9299,-3.9299,-3.9299,-3.9299,-3.9299,-3.9299,-3.9299,-3.9299,-3.9299,-3.9299,-3.9299,-3.9299,-3.9299,-3.9299,-3.9299,-3.9299,-3.9332,-3.9547,-3.9497,-3.9365,-3.9796,-3.9663,-3.9464,-4.0382,-4.0575,-4.0613,-4.1839,-4.2158,-4.2373,-4.3333,-4.3598,-4.3598,-4.3598,-4.3598,-4.3598,-4.3598,-4.3598,-4.3598,-4.3598,-4.3598,-4.3598,-4.3598,-4.3416,-4.3267,-4.3267,-4.3085,-4.3019,-4.3234,-4.3267,-4.335,-4.3565,-4.3598,-4.3598,-4.3598,-4.3598,-4.3598,-4.3598,-4.3734,-4.3839,-4.3898,-4.4027,-4.4097,-4.4097,-4.4298,-4.4367,-4.431,-4.4497,-4.4198,-4.3375,-4.2642,-4.2016,-4.1508,-4.0553,-4.0231,-4.0434,-4.0197,-4.0096,-4.0096,-4.0096,-4.0096,-4.0096,-4.0096,-4.0096,-4.0096,-4.0096,-4.0096,-4.0096,-4.1591,-4.1482,-4.1167,-4.0264,-4.0485,-4.0696,-4.0544,-4.0299,-4.0214,-4.0519,-4.0282,-4.0214,-4.0493,-4.0282,-4.018,-4.0408,-3.9975,-3.9573,-3.9325,-3.9299,-3.9299,-3.9299,-3.9299,-3.9299,-3.9299,-3.9299,-3.9299,-3.9299,-3.9299,-3.9299,-3.9299,-3.9299,-3.9299,-3.9299,-3.9299,-3.9299,-3.9299,-3.9299,-3.9299,-3.9299,-3.9299,-3.9299,-3.9299,-3.9299,-3.9299,-3.9332,-3.963,-3.9547,-3.9398,-3.9934,-4.0117,-4.0199,-4.0647,-4.0796,-4.1011,-4.2142,-4.2489,-4.2655,-4.34,-4.3598,-4.3598,-4.3598,-4.3598,-4.3598,-4.3598,-4.3598,-4.3598,-4.3598,-4.3598,-4.3598,-4.3598,-4.3598,-4.3598,-4.3598,-4.3598,-4.3598,-4.3598,-4.3598,-4.3598,-4.3598,-4.3598,-4.3598,-4.3598,-4.3598,-4.3598,-4.3598,-4.3704,-4.3822,-4.3969,-4.3998,-4.4114,-4.427,-4.4281,-4.4338,-4.4412,-4.4237,-4.3724,-4.2963,-4.2506,-4.1914,-4.117,-4.0451,-4.0265,-4.051,-4.0231,-4.0096,-4.0096,-4.0096,-4.0096,-4.0096,-4.0096,-4.0096,-4.0096,-4.0096,-4.0096,-4.0096,-4.1591,-4.1192,-4.0793,-4.0213,-4.0214,-4.0519,-4.1119,-4.0629,-4.0426,-4.1119,-4.0544,-4.0367,-4.1035,-4.0493,-4.0383,-4.1035,-4.0245,-3.9573,-3.9325,-3.9299,-3.9299,-3.9299,-3.9299,-3.9299,-3.9299,-3.9299,-3.9299,-3.9299,-3.9299,-3.9299,-3.9299,-3.9299,-3.9299,-3.9299,-3.9299,-3.9299,-3.9299,-3.9299,-3.9299,-3.9299,-3.9299,-3.9299,-3.9299,-3.9299,-3.9299,-3.9398,-4.0061,-3.9879,-3.9497,-4.0779,-4.1309,-4.1409,-4.1342,-4.1331,-4.1529,-4.2274,-4.2489,-4.2655,-4.34,-4.3598,-4.3598,-4.3598,-4.3598,-4.3598,-4.3598,-4.3598,-4.3598,-4.3598,-4.3598,-4.3598,-4.3598,-4.3598,-4.3598,-4.3598,-4.3598,-4.3598,-4.3598,-4.3598,-4.3598,-4.3598,-4.3598,-4.3598,-4.3598,-4.3598,-4.3598,-4.3598,-4.3598,-4.3747,-4.4068,-4.3985,-4.4102,-4.4542,-4.4384,-4.4395,-4.457,-4.3809,-4.3064,-4.2388,-4.2252,-4.1847,-4.117,-4.0451,-4.0485,-4.1068,-4.0375,-4.0096,-4.0096,-4.0096,-4.0096,-4.0096,-4.0096,-4.0096,-4.0096,-4.0096,-4.0096,-4.0096,-4.1656,-4.1883,-4.1759,-4.0331,-4.106,-4.1677,-4.1271,-4.1068,-4.1018,-4.1187,-4.0544,-4.0163,-4.0333,-4.0197,-4.0163,-4.0333,-3.9942,-3.9573,-3.9325,-3.9299,-3.9299,-3.9299,-3.9299,-3.9299,-3.9299,-3.9299,-3.9299,-3.9299,-3.9299,-3.9299,-3.9299,-3.9299,-3.9299,-3.9299,-3.9299,-3.9299,-3.9299,-3.9299,-3.9299,-3.9299,-3.9299,-3.9299,-3.9299,-3.9299,-3.9299,-3.9315,-3.9481,-3.9448,-3.9348,-3.9663,-4.0481,-4.1326,-4.0779,-4.0978,-4.1529,-4.2274,-4.2489,-4.2655,-4.34,-4.3598,-4.3598,-4.3598,-4.3598,-4.3598,-4.3598,-4.3598,-4.3598,-4.3598,-4.3598,-4.3598,-4.3598,-4.3598,-4.3598,-4.3598,-4.3598,-4.3598,-4.3598,-4.3598,-4.3598,-4.3598,-4.3598,-4.3598,-4.3598,-4.3598,-4.3598,-4.3598,-4.3598,-4.3687,-4.3927,-4.3927,-4.3998,-4.4184,-4.4253,-4.4338,-4.4367,-4.3709,-4.3308,-4.3166,-4.1999,-4.1356,-4.117,-4.0451,-4.0197,-4.0333,-4.018,-4.0096,-4.0096,-4.0096,-4.0096,-4.0096,-4.0096,-4.0096,-4.0096,-4.0096,-4.0096,-4.0096,-4.1591,-4.1453,-4.1123,-4.0264,-4.0756,-4.1339,-4.1677,-4.1424,-4.1339,-4.1677,-4.1068,-4.0476,-4.0146,-4.0417,-4.0561,-4.0448,-3.9982,-3.9573,-3.9325,-3.9299,-3.9299,-3.9299,-3.9299,-3.9299,-3.9299,-3.9299,-3.9299,-3.9299,-3.9299,-3.9299,-3.9299,-3.9299,-3.9299,-3.9299,-3.9299,-3.9299,-3.9299,-3.9299,-3.9299,-3.9299,-3.9299,-3.9299,-3.9299,-3.9299,-3.9299,-3.9299,-3.9299,-3.9531,-3.9879,-4.0183,-4.0796,-4.1446,-4.1823,-4.1939,-4.2059,-4.2804,-4.3019,-4.3102,-4.3499,-4.3598,-4.3598,-4.3598,-4.3598,-4.3598,-4.3598,-4.3598,-4.3598,-4.3598,-4.3598,-4.3598,-4.3598,-4.388,-4.4026,-4.3648,-4.391,-4.4009,-4.3648,-4.3598,-4.3598,-4.3598,-4.3598,-4.3598,-4.3598,-4.3598,-4.3598,-4.3598,-4.3598,-4.3687,-4.3898,-4.3793,-4.3881,-4.4097,-4.4097,-4.4155,-4.4196,-4.3541,-4.3227,-4.3282,-4.2243,-4.1542,-4.1204,-4.1153,-4.095,-4.0612,-4.0612,-4.0434,-4.0096,-4.0096,-4.0096,-4.0096,-4.0096,-4.0096,-4.0096,-4.0096,-4.0096,-4.0096,-4.1393,-4.0761,-4.0196,-4.0121,-4.0214,-4.0705,-4.1914,-4.1593,-4.1424,-4.2016,-4.1474,-4.0781,-4.018,-4.0646,-4.0914,-4.0651,-4.0055,-3.9599,-3.9352,-3.9415,-3.9431,-3.9315,-3.9431,-3.9431,-3.9299,-3.9299,-3.9299,-3.9299,-3.9299,-3.9299,-3.9299,-3.9299,-3.9299,-3.9299,-3.9299,-3.9299,-3.9299,-3.9299,-3.9299,-3.9299,-3.9299,-3.9299,-3.9299,-3.9299,-3.9299,-3.9299,-3.9299,-3.9862,-4.0647,-4.1226,-4.1562,-4.196,-4.3069,-4.3069,-4.2804,-4.3416,-4.3598,-4.3598,-4.3598,-4.3598,-4.3598,-4.3598,-4.3598,-4.3598,-4.3598,-4.3598,-4.3598,-4.3598,-4.3598,-4.3598,-4.3598,-4.4208,-4.4489,-4.388,-4.4307,-4.4473,-4.3863,-4.3664,-4.3598,-4.3598,-4.3598,-4.3598,-4.3598,-4.3598,-4.3598,-4.3598,-4.3598,-4.3687,-4.3898,-4.3734,-4.3776,-4.4097,-4.3998,-4.3998,-4.4097,-4.3361,-4.3048,-4.316,-4.2658,-4.2047,-4.1407,-4.2016,-4.1965,-4.139,-4.139,-4.0967,-4.0299,-4.0273,-4.0189,-4.0096,-4.007,-4.0087,-4.0096,-4.0096,-4.0096,-4.0096,-4.0972,-4.0802,-4.058,-4.0171,-4.0629,-4.1119,-4.1322,-4.1271,-4.1238,-4.1339,-4.0696,-4.0214,-4.0113,-4.0197,-4.0189,-4.0052,-3.9822,-3.9642,-3.9484,-3.9949,-3.9978,-3.9332,-3.9912,-3.9962,-3.9315,-3.9299,-3.9299,-3.9299,-3.9299,-3.9299,-3.9299,-3.9299,-3.9299,-3.9299,-3.9299,-3.9299,-3.9299,-3.9299,-3.9299,-3.9299,-3.9299,-3.9299,-3.9299,-3.9299,-3.9299,-3.9299,-3.9299,-4.0133,-4.1293,-4.1375,-4.2241,-4.3218,-4.2787,-4.3019,-4.3466,-4.3565,-4.3598,-4.3598,-4.3598,-4.3598,-4.3598,-4.3598,-4.3598,-4.3598,-4.3598,-4.3598,-4.3598,-4.3598,-4.3598,-4.3598,-4.3598,-4.4208,-4.4655,-4.4556,-4.4622,-4.4655,-4.4556,-4.4009,-4.3598,-4.3598,-4.3598,-4.3598,-4.3598,-4.3598,-4.3598,-4.3598,-4.3598,-4.3687,-4.3898,-4.3868,-4.3939,-4.4097,-4.4068,-4.4068,-4.4097,-4.3361,-4.302,-4.302,-4.2931,-4.2633,-4.2151,-4.2252,-4.2236,-4.2151,-4.2151,-4.1728,-4.1052,-4.0931,-4.0585,-4.007,-3.9961,-3.9986,-4.0096,-4.0096,-4.0096,-4.0096,-4.0849,-4.0604,-4.0353,-4.0121,-4.0383,-4.0713,-4.1136,-4.1204,-4.1204,-4.1204,-4.0916,-4.0544,-4.0146,-4.0485,-4.0983,-4.1678,-4.0951,-4.0376,-4.0234,-4.0097,-4.0054,-4.0137,-3.9964,-4.0136,-4.0646,-3.9767,-3.9497,-3.9912,-3.9497,-3.9299,-3.9299,-3.9299,-3.9299,-3.9299,-3.9299,-3.9299,-3.9299,-3.9299,-3.9299,-3.9299,-3.9299,-3.9299,-3.9299,-3.9299,-3.9564,-3.9962,-4.0332,-4.0878,-4.1446,-4.1889,-4.2704,-4.3532,-4.3218,-4.3333,-4.3598,-4.3598,-4.3598,-4.3598,-4.3598,-4.3598,-4.3598,-4.3598,-4.3926,-4.4224,-4.4224,-4.4539,-4.4605,-4.3764,-4.3943,-4.4224,-4.4224,-4.5152,-4.5781,-4.5367,-4.5649,-4.5781,-4.5367,-4.5036,-4.4837,-4.4837,-4.4473,-4.4238,-4.4314,-4.389,-4.3687,-4.3864,-4.3822,-4.3852,-4.3998,-4.3998,-4.4056,-4.4097,-4.4097,-4.4097,-4.4097,-4.3779,-4.3652,-4.3737,-4.3652,-4.3323,-4.281,-4.3215,-4.3236,-4.2912,-4.2912,-4.2269,-4.1204,-4.1152,-4.0696,-4.0087,-3.9935,-3.9952,-3.9986,-3.9986,-3.9986,-4.0054]},{"header":{"parameterUnit":"m.s-1","parameterCategory":1,"la1":30.6,"la2":28.766,"lo1":-90.7593,"lo2":-88.6598,"dy":0.0162,"dx":0.0183,"nx":116,"ny":114,"refTime":"2024-04-12T18:00:00:Z","depth":0,"parameterNumber":3,"parameterNumberName":"V-component_of_WINDS"},"data":[0.0,0.0,0.0,0.0,0.0,0.0,0.0,0.0,0.0,0.0,0.0,0.0,0.0,0.0,0.0,0.0,0.0,0.0,0.0,0.0,0.0,0.0,0.0,0.0,0.0,0.0,0.0,0.0,0.0,0.0,0.0,0.0,0.0,0.0,0.0,0.0,0.0,0.0,0.0,0.0,0.0,0.0,0.0,0.0,0.0,0.0,0.0,0.0,0.0,0.0,0.0,0.0,0.0,0.0,0.0,0.0,0.0,0.0,0.0,0.0,0.0,0.0,0.0,0.0,0.0,0.0,0.0,0.0,0.0,0.0,0.0,0.0,0.0,0.0,0.0,0.0,0.0,0.0,0.0,0.0,0.0,0.0,0.0,0.0,0.0,0.0,0.0,0.0,0.0,0.0,0.0,0.0,0.0,0.0,0.0,0.0,0.0,0.0,0.0,0.0,0.0,0.0,0.0,0.0,0.0,0.0,0.0,0.0,0.0,0.0,0.0,0.0,0.0,0.0,0.0,0.0,0.0,0.0,0.0,0.0,0.0,0.0,0.0,0.0,0.0,0.0,0.0,0.0,0.0,0.0,0.0,0.0,0.0,0.0,0.0,0.0,0.0,0.0,0.0,0.0,0.0,0.0,0.0,0.0,0.0,0.0,0.0,0.0,0.0,0.0,0.0,0.0,0.0,0.0,0.0,0.0,0.0,0.0,0.0,0.0,0.0,0.0,0.0,0.0,0.0,0.0,0.0,0.0,0.0,0.0,0.0,0.0,0.0,0.0,0.0,0.0,0.0,0.0,0.0,0.0,0.0,0.0,0.0,0.0,0.0,0.0,0.0,0.0,0.0,0.0,0.0,0.0,0.0,0.0,0.0,0.0,0.0,0.0,0.0,0.0,0.0,0.0,0.0,0.0,0.0,0.0,0.0,0.0,0.0,0.0,0.0,0.0,0.0,0.0,0.0,0.0,0.0,0.0,0.0,0.0,0.0,0.0,0.0,0.0,0.0,0.0,0.0,0.0,0.0,0.0,0.0,0.0,0.0,0.0,0.0,0.0,0.0,0.0,0.0,0.0,0.0,0.0,0.0,0.0,0.0,0.0,0.0,0.0,0.0,0.0,0.0,0.0,0.0,0.0,0.0,0.0,0.0,0.0,0.0,0.0,0.0,0.0,0.0,0.0,0.0,0.0,0.0,0.0,0.0,0.0,0.0,0.0,0.0,0.0,0.0,0.0,0.0,0.0,0.0,0.0,0.0,0.0,0.0,0.0,0.0,0.0,0.0,0.0,0.0,0.0,0.0,0.0,0.0,0.0,0.0,0.0,0.0,0.0,0.0,0.0,0.0,0.0,0.0,0.0,0.0,0.0,0.0,0.0,0.0,0.0,0.0,0.0,0.0,0.0,0.0,0.0,0.0,0.0,0.0,0.0,0.0,0.0,0.0,0.0,0.0,0.0,0.0,0.0,0.0,0.0,0.0,0.0,0.0,0.0,0.0,0.0,0.0,0.0,0.0,0.0,0.0,0.0,0.0,0.0,0.0,0.0,0.0,0.0,0.0,0.0,0.0,0.0,0.0,0.0,0.0,0.0,0.0,0.0,0.0,0.0,0.0,0.0,0.0,0.0,0.0,0.0,0.0,0.0,0.0,0.0,0.0,0.0,0.0,0.0,0.0,0.0,0.0,0.0,0.0,0.0,0.0,0.0,0.0,0.0,0.0,0.0,0.0,0.0,0.0,0.0,0.0,0.0,0.0,0.0,0.0,0.0,0.0,0.0,0.0,0.0,0.0,0.0,0.0,0.0,0.0,0.0,0.0,0.0,0.0,0.0,0.0,0.0,0.0,0.0,0.0,0.0,0.0,0.0,0.0,0.0,0.0,0.0,0.0,0.0,0.0,0.0,0.0,0.0,0.0,0.0,0.0,0.0,0.0,0.0,0.0,0.0,0.0,0.0,0.0,0.0,0.0,0.0,0.0,0.0,0.0,0.0,0.0,0.0,0.0,0.0,0.0,0.0,0.0,0.0,0.0,0.0,0.0,0.0,0.0,0.0,0.0,0.0,0.0,0.0,0.0,0.0,0.0,0.0,0.0,0.0,0.0,0.0,0.0,0.0,0.0,0.0,0.0,0.0,0.0,0.0,0.0,0.0,0.0,0.0,0.0,0.0,0.0,0.0,0.0,0.0,0.0,0.0,0.0,0.0,0.0,0.0,0.0,0.0,0.0,0.0,0.0,0.0,0.0,0.0,0.0,0.0,0.0,0.0,0.0,0.0,0.0,0.0,0.0,0.0,0.0,0.0,0.0,0.0,0.0,0.0,0.0,0.0,0.0,0.0,0.0,0.0,0.0,0.0,0.0,0.0,0.0,0.0,0.0,0.0,0.0,0.0,0.0,0.0,0.0,0.0,0.0,0.0,0.0,0.0,0.0,0.0,0.0,0.0,0.0,0.0,0.0,0.0,0.0,0.0,0.0,0.0,0.0,0.0,0.0,0.0,0.0,0.0,0.0,0.0,0.0,0.0,0.0,0.0,0.0,0.0,0.0,0.0,0.0,0.0,0.0,0.0,0.0,0.0,0.0,0.0,0.0,0.0,0.0,0.0,0.0,0.0,0.0,0.0,0.0,0.0,0.0,0.0,0.0,0.0,0.0,0.0,0.0,0.0,0.0,0.0,0.0,0.0,0.0,0.0,0.0,0.0,0.0,0.0,0.0,0.0,0.0,0.0,0.0,0.0,0.0,0.0,0.0,0.0,0.0,0.0,0.0,0.0,0.0,0.0,0.0,0.0,0.0,0.0,0.0,0.0,0.0,0.0,0.0,0.0,0.0,0.0,0.0,0.0,0.0,0.0,0.0,0.0,0.0,0.0,0.0,0.0,0.0,0.0,0.0,0.0,0.0,0.0,0.0,0.0,0.0,0.0,0.0,0.0,0.0,0.0,0.0,0.0,0.0,0.0,0.0,0.0,0.0,0.0,0.0,0.0,0.0,0.0,0.0,0.0,0.0,0.0,0.0,0.0,0.0,0.0,0.0,0.0,0.0,0.0,0.0,0.0,0.0,0.0,0.0,0.0,0.0,0.0,0.0,0.0,0.0,0.0,0.0,0.0,0.0,0.0,0.0,0.0,0.0,0.0,0.0,0.0,0.0,0.0,0.0,0.0,0.0,0.0,0.0,0.0,0.0,0.0,0.0,0.0,0.0,0.0,0.0,0.0,0.0,0.0,0.0,0.0,0.0,0.0,0.0,0.0,0.0,0.0,0.0,0.0,0.0,0.0,0.0,0.0,0.0,0.0,0.0,0.0,0.0,0.0,0.0,0.0,0.0,0.0,0.0,0.0,0.0,0.0,0.0,0.0,0.0,0.0,0.0,0.0,0.0,0.0,0.0,0.0,0.0,0.0,0.0,0.0,0.0,0.0,0.0,0.0,0.0,0.0,0.0,0.0,0.0,0.0,0.0,0.0,0.0,0.0,0.0,0.0,0.0,0.0,0.0,0.0,0.0,0.0,0.0,0.0,0.0,0.0,0.0,0.0,0.0,0.0,0.0,0.0,0.0,0.0,0.0,0.0,0.0,0.0,0.0,0.0,0.0,0.0,0.0,0.0,0.0,0.0,0.0,0.0,0.0,0.0,0.0,0.0,0.0,0.0,0.0,0.0,0.0,0.0,0.0,0.0,0.0,0.0,0.0,0.0,0.0,0.0,0.0,0.0,0.0,0.0,0.0,0.0,0.0,0.0,0.0,0.0,0.0,0.0,0.0,0.0,0.0,0.0,0.0,0.0,0.0,0.0,0.0,0.0,0.0,0.0,0.0,0.0,0.0,0.0,0.0,0.0,0.0,0.0,0.0,0.0,0.0,0.0,0.0,0.0,0.0,0.0,0.0,0.0,0.0,0.0,0.0,0.0,0.0,0.0,0.0,0.0,0.0,0.0,0.0,0.0,0.0,0.0,0.0,0.0,0.0,0.0,0.0,0.0,0.0,0.0,0.0,0.0,0.0,0.0,0.0,0.0,0.0,0.0,0.0,0.0,0.0,0.0,0.0,0.0,0.0,0.0,0.0,0.0,0.0,0.0,0.0,0.0,0.0,0.0,0.0,0.0,0.0,0.0,0.0,0.0,0.0,0.0,0.0,0.0,0.0,0.0,0.0,0.0,0.0,0.0,0.0,0.0,0.0,0.0,0.0,0.0,0.0,0.0,0.0,0.0,0.0,0.0,0.0,0.0,0.0,0.0,0.0,0.0,0.0,0.0,0.0,0.0,0.0,0.0,0.0,0.0,0.0,0.0,0.0,0.0,0.0,0.0,0.0,0.0,0.0,0.0,0.0,0.0,0.0,0.0,0.0,0.0,0.0,0.0,0.0,0.0,0.0,0.0,0.0,0.0,0.0,0.0,0.0,0.0,0.0,0.0,0.0,0.0,0.0,0.0,0.0,0.0,0.0,0.0,0.0,0.0,0.0,0.0,0.0,0.0,0.0,0.0,0.0,0.0,0.0,0.0,0.0,0.0,0.0,0.0,0.0,0.0,0.0,0.0,0.0,0.0,0.0,0.0,0.0,0.0,0.0,0.0,0.0,0.0,0.0,0.0,0.0,0.0,0.0,0.0,0.0,0.0,0.0,0.0,0.0,0.0,0.0,0.0,0.0,0.0,0.0,0.0,0.0,0.0,0.0,0.0,0.0,0.0,0.0,0.0,0.0,0.0,0.0,0.0,0.0,0.0,0.0,0.0,0.0,0.0,0.0,0.0,0.0,0.0,0.0,0.0,0.0,0.0,0.0,0.0,0.0,0.0,0.0,0.0,0.0,0.0,0.0,0.0,0.0,0.0,0.0,0.0,0.0,0.0,0.0,0.0,0.0,0.0,0.0,0.0,0.0,0.0,0.0,0.0,0.0,0.0,0.0,0.0,0.0,0.0,0.0,0.0,0.0,0.0,0.0,0.0,0.0,0.0,0.0,0.0,0.0,0.0,0.0,0.0,0.0,0.0,0.0,0.0,0.0,0.0,0.0,0.0,0.0,0.0,0.0,0.0,0.0,0.0,0.0,0.0,0.0,0.0,0.0,0.0,0.0,0.0,0.0,0.0,0.0,0.0,0.0,0.0,0.0,0.0,0.0,0.0,0.0,0.0,0.0,0.0,0.0,0.0,0.0,0.0,0.0,0.0,0.0,0.0,0.0,0.0,0.0,0.0,0.0,0.0,0.0,0.0,0.0,0.0,0.0,0.0,0.0,0.0,0.0,0.0,0.0,0.0,0.0,0.0,0.0,0.0,0.0,0.0,0.0,0.0,0.0,0.0,0.0,0.0,0.0,0.0,0.0,0.0,0.0,0.0,0.0,0.0,0.0,0.0,0.0,0.0,0.0,0.0,0.0,0.0,0.0,0.0,0.0,0.0,0.0,0.0,0.0,0.0,0.0,0.0,0.0,0.0,0.0,0.0,0.0,0.0,0.0,0.0,0.0,0.0,0.0,0.0,0.0,0.0,0.0,0.0,0.0,0.0,0.0,0.0,0.0,0.0,0.0,0.0,0.0,0.0,0.0,0.0,0.0,0.0,0.0,0.0,0.0,0.0,0.0,0.0,0.0,0.0,0.0,0.0,0.0,0.0,0.0,0.0,0.0,0.0,0.0,0.0,0.0,0.0,0.0,0.0,0.0,0.0,0.0,0.0,0.0,0.0,0.0,0.0,0.0,0.0,0.0,0.0,0.0,0.0,0.0,0.0,0.0,0.0,0.0,0.0,0.0,0.0,0.0,0.0,0.0,0.0,0.0,0.0,0.0,0.0,0.0,0.0,0.0,0.0,0.0,0.0,0.0,0.0,0.0,0.0,0.0,0.0,0.0,0.0,0.0,0.0,0.0,0.0,0.0,0.0,0.0,0.0,0.0,0.0,0.0,0.0,0.0,0.0,0.0,0.0,0.0,0.0,0.0,0.0,0.0,0.0,0.0,0.0,0.0,0.0,0.0,0.0,0.0,0.0,0.0,0.0,0.0,0.0,0.0,0.0,0.0,0.0,0.0,0.0,0.0,0.0,0.0,0.0,0.0,0.0,0.0,0.0,0.0,0.0,0.0,0.0,0.0,0.0,0.0,0.0,0.0,0.0,0.0,0.0,0.0,0.0,0.0,0.0,0.6306,0.0,0.0,0.0,0.0,0.0,0.0,0.0,0.0,0.0,0.0,0.0,0.0,0.0,0.0,0.0,0.0,0.0,0.0,0.0,0.0,0.0,0.0,0.0,0.0,1.4654,1.4515,1.4515,1.4515,1.4515,1.4515,1.4515,0.0,0.0,0.0,0.0,1.4515,1.4515,1.4515,1.4515,1.4515,1.4708,1.5084,1.5084,1.4873,1.4515,0.0,0.0,0.0,0.0,0.0,0.0,0.0,0.0,0.0,0.0,0.0,0.0,0.0,0.0,0.0,0.0,0.0,0.0,0.0,0.0,0.0,0.0,0.0,0.0,0.0,0.0,0.0,0.0,0.0,0.0,0.0,0.0,0.0,0.0,0.0,0.0,0.0,0.0,0.0,0.0,0.0,0.0,0.0,0.0,0.0,0.0,0.0,0.0,0.0,0.0,0.0,0.0,0.0,0.0,0.0,0.0,0.0,0.0,0.0,0.0,0.0,0.0,0.0,0.0,0.0,0.0,0.0,0.0,0.0,0.0,0.0,0.6387,0.0,0.0,0.0,0.0,0.0,0.0,0.0,0.0,0.0,0.0,0.0,0.0,0.0,0.0,0.0,0.0,0.0,0.0,0.0,0.0,0.0,1.4515,1.4515,1.4515,1.4515,1.4515,1.4515,1.4515,1.4515,1.4515,1.4515,1.4515,1.4515,1.4515,1.4515,1.4515,1.4515,1.4515,1.4653,1.5157,1.6001,1.6001,1.5698,1.5098,1.4772,0.0,0.0,0.0,0.0,0.0,0.0,0.0,0.0,0.0,0.0,0.0,0.0,0.0,0.0,0.0,0.0,0.0,0.0,0.0,0.0,0.0,0.0,0.0,0.0,0.0,0.0,0.0,0.0,0.0,0.0,0.0,0.0,0.0,0.0,0.0,0.0,0.0,0.0,0.0,0.0,0.0,0.0,0.0,0.0,0.0,0.0,0.0,0.0,0.0,0.0,0.0,0.0,0.0,0.0,0.0,0.0,0.0,0.0,0.0,0.0,0.0,0.0,0.0,0.7277,0.7423,0.7571,0.7571,0.7551,0.7452,0.6859,0.657,0.6509,0.0,0.0,0.0,0.0,0.0,0.0,0.0,0.0,0.0,0.0,0.0,0.0,0.0,0.0,0.0,0.0,0.0,0.0,0.0,0.0,1.4515,1.4515,1.4515,1.4515,1.4515,1.4515,1.4515,1.4515,1.4515,1.4515,1.4515,1.4515,1.4515,1.4515,1.4515,1.4515,1.4515,1.5194,1.612,1.7257,1.7257,1.7394,1.7532,1.5808,0.0,0.0,0.0,0.0,0.0,0.0,0.0,0.0,0.0,0.0,0.0,0.0,0.0,0.0,0.0,0.0,0.0,0.0,0.0,0.0,0.0,0.0,0.0,0.0,0.0,0.0,0.0,0.0,0.0,0.0,0.0,0.0,0.0,0.0,0.0,0.0,0.0,0.0,0.0,0.0,0.0,0.0,0.0,0.939,0.8716,0.0,0.0,0.0,0.0,0.0,0.0,0.0,0.0,0.0,0.0,0.0,0.0,0.0,0.7192,0.7342,0.7567,0.7669,0.7694,0.7825,0.7845,0.7763,0.7763,0.7677,0.748,0.7382,0.0,0.6906,0.6743,0.0,0.0,0.0,0.0,0.0,0.0,0.0,0.0,0.0,0.0,0.0,0.0,0.0,0.0,0.0,0.0,0.0,0.0,0.0,0.0,0.0,1.4909,1.5084,1.4864,1.5469,1.557,1.4882,1.5109,1.5035,1.4533,1.4684,1.4684,1.4515,1.4556,1.4918,1.5492,1.6551,1.7559,1.8513,1.8513,1.8733,1.9042,1.7734,1.6954,1.6587,1.5597,0.0,0.0,0.0,0.0,0.0,0.0,0.0,0.0,0.0,0.0,0.0,0.0,0.0,0.0,0.0,0.0,0.0,0.0,0.0,0.0,0.0,0.0,0.0,0.0,0.0,0.0,0.0,0.0,0.0,0.0,0.0,0.0,0.0,0.0,0.0,0.0,0.0,0.0,0.0,0.8864,0.8344,0.7992,0.7399,0.6998,0.0,0.0,0.0,0.0,0.0,0.0,0.0,0.0,0.0,0.7441,0.7577,0.7703,0.778,0.7963,0.8151,0.8257,0.8385,0.8483,0.8511,0.8511,0.8467,0.8381,0.8178,0.7984,0.7706,0.7183,0.6822,0.6574,0.0,0.0,0.0,0.0,0.6574,0.6591,0.0,0.0,0.0,0.0,0.0,0.0,0.0,0.0,0.0,0.0,0.0,0.0,1.479,1.5432,1.5771,1.5579,1.6327,1.6355,1.5313,1.5457,1.5182,1.4285,1.4526,1.4586,1.4288,1.4932,1.5828,1.6908,1.8027,1.9044,1.9931,1.9891,2.0071,2.0449,1.965,1.865,1.7458,1.6431,1.5826,0.0,0.0,0.0,0.0,0.0,0.0,0.0,0.0,0.0,0.0,0.0,0.0,0.0,0.0,0.0,0.0,0.0,0.0,0.0,0.0,0.0,0.0,0.0,0.0,0.0,0.0,0.0,0.0,0.0,0.0,0.0,0.0,0.0,0.0,0.0,0.0,0.0,0.0,0.7851,0.7652,0.726,0.6958,0.6672,0.0,0.0,0.0,0.0,0.0,0.0,0.7188,0.758,0.7886,0.8065,0.8243,0.8377,0.8426,0.8605,0.8767,0.8951,0.9031,0.9141,0.923,0.9185,0.9137,0.9084,0.8816,0.8572,0.8308,0.7638,0.7179,0.6899,0.6899,0.6814,0.6708,0.6846,0.6899,0.6915,0.0,0.0,0.0,0.0,0.0,0.0,0.0,0.0,0.0,0.0,0.0,1.4799,1.5551,1.6028,1.6431,1.6789,1.664,1.6294,1.5721,1.5108,1.4396,1.3601,1.3761,1.3821,1.3752,1.5725,1.7372,1.8597,1.9487,2.051,2.1655,2.1465,2.1593,2.194,2.1268,2.0319,1.9081,1.7513,1.6835,1.6716,0.0,0.0,0.0,0.0,0.0,0.0,0.0,0.0,0.0,0.0,0.0,0.0,0.0,0.0,0.0,0.0,0.0,0.0,0.0,0.0,0.0,0.0,0.0,0.0,0.0,0.0,0.0,0.0,0.0,0.0,0.0,0.0,0.0,0.0,0.0,0.0,0.0,0.0,0.0,0.6589,0.6763,0.0,0.0,0.0,0.0,0.6959,0.7449,0.7747,0.7759,0.8265,0.8589,0.8759,0.9104,0.9372,0.9494,0.9717,0.9807,0.9819,0.9827,0.975,0.9546,0.9421,0.9298,0.9096,0.908,0.8877,0.8555,0.8,0.7657,0.7443,0.7443,0.7439,0.7431,0.7439,0.7443,0.7443,0.0,0.0,0.0,0.0,0.0,1.4993,1.4448,1.4218,1.4112,1.4112,1.4561,1.5203,1.601,1.7287,1.8035,1.7869,1.8386,1.8169,1.6932,1.6434,1.5705,1.4565,1.5001,1.5604,1.6305,1.7483,1.8671,1.9943,2.0737,2.1655,2.2631,2.2398,2.2569,2.3081,2.2441,2.182,2.1217,1.8977,1.777,1.7183,1.5964,1.5302,0.0,0.0,0.0,0.0,0.0,0.0,0.0,0.0,0.0,0.0,0.0,0.0,0.0,0.0,0.0,0.0,0.0,0.0,0.0,0.0,0.0,0.0,0.0,0.0,0.0,0.0,0.0,0.0,0.0,0.0,0.0,0.0,0.0,0.0,0.0,0.0,0.0,0.7155,0.7525,0.0,0.7468,0.7667,0.7853,0.7853,0.8203,0.8495,0.8613,0.9019,0.9328,0.9498,0.9796,0.9955,0.9973,1.0082,1.0114,1.0114,1.0114,0.9969,0.9791,0.9726,0.96,0.9433,0.9315,0.9237,0.9098,0.8792,0.8286,0.7702,0.7702,0.7624,0.7496,0.7657,0.7702,0.7714,0.0,0.0,0.0,0.0,0.0,1.4754,1.4005,1.3772,1.3764,1.3892,1.4648,1.5601,1.6733,1.8368,1.9333,1.9154,1.9543,1.9127,1.7609,1.6746,1.5712,1.4464,1.5132,1.6266,1.7735,1.8789,1.9966,2.124,2.205,2.2815,2.3549,2.3275,2.3417,2.3812,2.3296,2.2986,2.2773,2.0946,1.9351,1.7962,1.6871,1.628,1.5947,0.0,0.0,0.0,0.0,0.0,0.0,0.0,0.0,0.0,0.0,0.0,0.0,0.0,0.0,0.0,0.0,0.0,0.0,0.0,0.0,0.0,0.0,0.0,0.0,0.0,0.0,0.0,0.0,0.0,0.0,0.0,0.0,0.0,0.0,0.0,0.7905,0.78,0.8231,0.8467,0.8223,0.8418,0.856,0.856,0.8946,0.9234,0.9356,0.9705,0.9953,1.0067,1.0245,1.0392,1.0392,1.0392,1.0392,1.0392,1.0273,1.0151,0.9973,0.9851,0.9734,0.9571,0.9498,0.9461,0.9396,0.9277,0.88,0.8253,0.8253,0.8175,0.8036,0.8093,0.8117,0.8126,0.0,0.0,0.0,0.0,0.0,1.4449,1.3959,1.3571,1.3442,1.3818,1.4777,1.6056,1.7739,1.9203,2.0199,2.0597,2.0004,1.9017,1.7609,1.5882,1.44,1.3197,1.4081,1.563,1.7784,1.9668,2.126,2.2568,2.3398,2.4023,2.4443,2.4231,2.4148,2.4158,2.3869,2.3757,2.3738,2.3311,2.1641,1.9144,1.832,1.7802,1.7384,0.0,0.0,0.0,0.0,0.0,0.0,0.0,0.0,0.0,0.0,0.0,0.0,0.0,0.0,0.0,0.0,0.0,0.0,0.0,0.0,0.0,0.0,0.0,0.0,0.0,0.0,0.0,0.0,0.0,0.0,0.0,0.0,0.0,0.755,0.8345,0.8777,0.8392,0.8804,0.8995,0.8694,0.8934,0.9141,0.9141,0.962,0.9908,0.9908,1.0249,1.0391,1.0391,1.0603,1.0692,1.0692,1.0692,1.0692,1.0688,1.0396,1.0224,1.02,0.9803,0.9591,0.9579,0.9579,0.9527,0.9412,0.9412,0.931,0.9112,0.91,0.9096,0.9076,0.8893,0.8824,0.8796,0.0,0.0,0.0,1.5463,1.5155,1.4667,1.3622,1.3607,1.3653,1.3479,1.5102,1.6814,1.818,1.9991,2.1135,2.1228,2.0371,1.9206,1.7759,1.647,1.5909,1.619,1.6844,0.0,2.0679,2.1559,2.2607,2.3896,2.4131,2.4463,2.4893,2.4928,2.5247,2.5732,2.5121,2.4987,2.5083,2.4384,2.3348,2.2136,2.0562,1.9393,1.8518,0.0,0.0,0.0,0.0,0.0,0.0,0.0,0.0,0.0,0.0,0.0,0.0,0.0,0.0,0.0,0.0,0.0,0.0,0.0,0.0,0.0,0.0,0.0,0.0,0.0,0.0,0.0,0.0,0.0,0.0,0.0,0.0,0.8892,0.8377,0.8719,0.9073,0.9234,0.962,0.9882,0.9784,0.9933,1.0015,1.0015,1.0318,1.0473,1.0473,1.0566,1.0623,1.0623,1.0668,1.0692,1.0692,1.0692,1.0692,1.0688,1.059,1.0465,1.0208,1.011,0.9872,0.9579,0.9579,0.96,0.9551,0.9551,0.9522,0.9458,0.9198,0.9096,0.9092,0.9039,0.8934,0.8796,0.0,0.0,0.0,1.5536,1.5154,1.4705,1.3961,1.3735,1.3644,1.3552,1.5334,1.7048,1.8233,2.0089,2.1219,2.1136,2.0226,1.9064,1.7656,1.6573,1.6447,1.7489,0.0,1.9835,2.2109,2.2744,2.3584,2.4687,2.4687,2.501,2.5625,2.5732,2.6082,2.6641,2.6177,2.6023,2.5977,2.5459,2.4845,2.4065,2.2978,2.1694,2.0377,1.9448,1.9003,1.8753,1.789,1.7683,1.7629,1.6338,0.0,0.0,0.0,0.0,0.0,0.0,0.0,0.0,0.0,0.0,0.0,0.0,0.0,0.0,0.0,0.0,0.0,0.0,0.0,0.0,0.0,0.0,0.0,0.0,0.9443,0.989,0.978,0.9962,1.0094,1.0136,1.0422,1.0576,1.0547,1.0526,1.0603,1.0698,1.0789,1.0838,1.0911,1.0915,1.0915,1.0915,1.0846,1.0806,1.0806,1.0729,1.0692,1.0692,1.0619,1.0436,1.0212,1.0131,0.9892,0.9579,0.9579,0.9579,0.9579,0.9579,0.9579,0.0,0.0,0.0,0.0,0.0,0.9043,0.8804,0.0,0.0,0.0,1.5828,1.5233,1.478,1.4603,1.3978,1.3617,1.3874,1.5482,1.696,1.7912,1.9621,2.0662,2.0527,1.9619,1.8574,1.7393,1.651,1.6624,1.7976,1.9238,2.0809,2.2652,2.3525,2.4355,2.5262,2.5166,2.5596,2.6455,2.6455,2.6689,2.709,2.709,2.6885,2.6523,2.6484,2.5977,2.5262,2.5262,2.4183,2.2497,2.1075,2.0763,2.0909,1.9602,1.9006,1.8701,1.8005,0.0,0.0,0.0,0.0,0.0,0.0,0.0,0.0,0.0,0.0,0.0,0.0,0.0,0.0,0.0,0.0,0.0,0.0,0.0,0.0,0.0,0.0,0.0,0.0,1.0145,1.0686,1.145,1.1579,1.1441,1.1014,1.103,1.1091,1.1037,1.085,1.0883,1.12,1.1082,1.1066,1.1212,0.0,0.0,0.0,0.0,1.1024,1.1024,1.0785,1.0692,1.0688,1.0538,1.0367,1.0241,0.9998,0.9819,0.9657,0.9587,0.9579,0.9579,0.9579,0.9579,0.9579,0.9579,0.9579,0.9604,0.9469,0.9153,0.8877,0.0,0.0,0.0,1.5459,1.5786,1.5856,1.4787,1.4719,1.462,1.3967,1.5482,1.6702,1.6947,1.8419,1.9513,1.9859,1.8582,1.75,1.6863,1.7162,1.8148,1.9946,2.1273,2.2605,2.4014,2.4551,2.5302,2.6133,2.5781,2.6045,2.6894,2.6894,2.7129,2.7539,2.7539,2.75,2.7393,2.7041,2.6602,2.6133,2.6133,2.5089,2.3499,2.3203,2.2707,2.2104,2.151,2.1288,2.0835,1.838,1.7505,1.7072,1.4767,0.0,0.0,0.0,0.0,0.0,0.0,0.0,0.0,0.0,0.0,0.0,0.0,0.0,0.0,0.0,0.0,0.0,0.0,0.0,0.0,1.0631,1.1253,1.1906,1.2457,1.2669,1.2385,1.1432,1.1239,1.1192,1.1171,1.1143,1.1147,1.122,1.1191,1.1187,1.122,1.1224,1.1224,1.1224,1.1057,1.1024,1.1024,1.0785,1.0692,1.0692,0.0,0.0,1.0375,1.0193,1.001,0.9827,0.9689,0.9579,0.9579,0.9579,0.9579,0.9579,0.9579,0.9579,0.9604,0.9469,0.9359,0.9277,0.0,0.0,0.0,1.5946,1.602,1.6002,1.5361,1.5213,1.4963,1.428,1.5342,1.6197,1.6347,1.7505,1.8299,1.8405,1.7575,1.7148,1.733,1.8248,1.9611,2.1475,2.2773,2.3975,2.5011,2.5508,2.6045,2.6699,2.6484,2.6709,2.7344,2.7344,2.7568,2.7978,2.7978,2.7861,2.7708,2.7432,2.709,2.6699,2.6699,2.6055,2.5039,2.46,2.4023,2.3437,2.3223,2.2881,2.2161,2.0039,1.8914,1.7996,1.5755,1.4447,1.3595,0.0,0.0,0.0,0.0,0.0,0.0,0.0,0.0,0.0,0.0,0.0,0.0,0.0,0.0,1.1576,0.0,0.0,1.1189,1.1452,1.1915,1.2382,1.2857,1.2978,1.2747,1.2086,1.1915,1.1895,1.1878,1.1624,1.1529,1.1711,1.1469,1.1403,1.1496,1.15,1.15,1.15,1.1236,1.1094,1.1094,1.0826,1.0692,1.0692,1.0692,1.0603,1.0379,1.0339,1.0148,0.988,0.9795,0.9705,0.9579,0.9579,0.9579,0.9579,0.9579,0.9579,0.9567,0.9527,0.9482,0.9388,0.0,0.0,0.0,1.6509,1.6267,1.6064,1.5928,1.5575,1.5118,1.4565,1.5129,1.5615,1.5709,1.6525,1.6964,1.6764,1.6889,1.7294,0.0,1.9409,2.0946,2.26,2.3861,2.4961,2.5801,2.6211,2.6631,2.7139,2.7051,2.7275,2.7783,2.7757,2.7891,2.8291,2.8291,2.8105,2.7836,2.7836,2.7539,2.7139,2.7139,2.6836,2.6309,2.5596,2.5049,2.4658,2.457,2.3887,2.2814,2.148,2.0075,1.8523,1.6814,1.5676,1.4774,1.3548,1.3104,0.0,0.0,0.0,0.0,0.0,0.0,0.0,0.0,0.0,1.2922,1.2095,1.1975,1.1787,1.0984,1.111,1.1586,1.2165,1.2434,1.2743,1.3084,1.3077,1.3025,1.2855,1.2721,1.2552,1.2423,1.2058,1.1917,1.2097,1.1749,1.1618,1.1768,1.1776,1.1776,1.1776,1.1451,1.1256,1.1224,1.0907,1.0729,1.0692,1.0692,1.0619,1.0481,1.0416,1.0237,0.9989,0.9916,0.9786,0.9579,0.9579,0.9579,0.9579,0.9579,0.9579,0.9579,0.9579,0.9535,0.9457,0.0,0.0,0.0,0.0,0.0,1.6856,1.6036,1.5845,1.5497,1.4625,1.4891,1.5038,1.4719,1.5192,1.551,1.5435,1.7067,1.8161,1.8257,2.0226,2.1984,2.3217,2.4419,2.541,2.6299,2.6367,2.6787,2.7598,2.7207,2.7432,2.8213,2.7894,2.7891,2.8291,2.8291,2.8262,2.8223,2.8223,2.7978,2.7598,2.7598,2.7109,2.6377,2.6279,2.5967,2.5489,2.5137,2.3955,2.2385,2.1292,1.9618,1.7793,1.7072,1.6138,1.5161,1.4181,0.0,1.2855,1.2135,1.2215,1.2723,1.3558,1.3601,1.3733,0.0,0.0,1.368,1.3838,1.2929,1.2199,1.262,1.2316,1.2238,1.2862,1.3145,1.3301,1.3348,1.3528,1.3586,1.3563,1.3076,1.2543,1.2264,1.2187,1.2076,1.1889,1.1816,1.1756,1.1776,1.1776,1.1776,1.1776,1.1577,1.1386,1.1224,1.1033,1.0854,1.0692,1.0692,1.068,1.0655,1.0335,1.0257,1.0355,1.0026,0.9786,0.9579,0.9579,0.9579,0.9579,0.9579,0.9579,0.9579,0.9579,0.9616,0.9596,0.0,0.0,0.0,0.0,0.0,1.7071,1.64,1.6075,1.5671,1.4981,1.4823,1.4698,1.4533,1.4763,1.4971,1.5078,1.6087,1.724,1.8459,2.0089,2.1778,2.3479,2.4612,2.5499,2.6168,2.6571,2.7051,2.7718,2.7725,2.7939,2.8291,2.8115,2.8125,2.8291,2.8291,2.8291,2.8291,2.8291,2.8193,2.8027,2.8027,2.7519,2.6728,2.6484,2.5644,2.4504,2.3691,2.2627,0.0,0.0,1.821,1.7195,1.6763,1.5913,1.4951,1.4209,1.3653,0.0,1.2958,1.3258,0.0,0.0,1.4761,1.5347,1.5855,1.5762,1.5353,1.4577,1.4146,1.3645,1.2783,1.2663,1.2805,0.0,1.3329,1.3429,1.3547,1.3532,1.3514,1.3514,1.3166,1.2886,1.2817,1.2599,1.2359,1.2066,1.1893,1.1776,1.1776,1.1776,1.1776,1.1776,1.1593,1.1411,1.1224,1.1053,1.0875,1.0692,1.0692,1.0692,1.0688,1.0538,1.0456,1.0366,1.016,0.9945,0.9778,0.9778,0.9717,0.9579,0.9579,0.9579,0.9579,0.9579,0.9579,0.9579,0.0,0.0,0.0,0.0,0.0,1.7127,1.6666,1.6304,1.5874,1.5294,1.4893,1.4654,1.4506,1.4606,1.4745,1.4902,1.5383,1.643,1.8165,1.9665,2.1315,2.3164,2.4402,2.5321,2.5858,2.6543,2.7072,2.7457,2.8033,2.8237,2.8184,2.8184,2.8237,2.8291,2.8237,2.8237,2.8291,2.8291,2.8291,2.8281,2.8164,2.7607,2.6758,2.5977,2.4668,2.3135,2.2195,2.1062,0.0,0.0,1.6645,1.6063,1.5908,1.5372,1.4684,1.4033,1.3616,1.3404,1.3579,0.0,0.0,1.4966,1.5818,1.666,1.6793,1.6853,1.6654,1.5512,1.511,1.4554,1.3242,1.3043,0.0,1.3353,1.3438,1.3504,1.3594,1.348,1.3367,1.3306,1.3159,1.3067,1.3013,1.2793,1.2483,1.2118,1.1893,1.1776,1.1776,1.1776,1.1776,1.1776,1.1593,1.1411,1.1224,1.1053,1.0875,1.0692,1.0692,1.0692,1.0692,1.0692,1.057,1.0355,1.0274,1.0103,0.9884,0.9884,0.9782,0.9579,0.9579,0.9579,0.9579,0.9579,0.9579,0.9579,0.0,0.0,0.0,0.0,0.0,1.7127,1.6666,1.6581,1.6257,1.5313,1.5206,1.501,1.4536,1.4606,1.4715,1.4715,1.5421,1.6267,1.7097,1.9133,2.0862,2.2078,2.3542,2.4733,2.5597,2.6279,2.6701,2.6816,2.782,2.8184,2.7906,2.7906,2.8067,2.8291,2.8014,2.8067,2.8291,2.8291,2.8291,2.8262,2.7904,2.7229,2.6221,2.4521,2.3066,2.1851,2.1169,0.0,0.0,0.0,1.5104,1.4151,1.4446,1.4548,0.0,1.3704,1.3279,0.0,0.0,0.0,1.5112,1.6082,1.6806,1.7384,1.7699,1.7414,1.7088,1.7005,1.551,1.4283,1.44,1.3698,1.3198,1.3353,1.3551,1.3613,1.3424,1.3395,1.331,1.3102,1.3069,1.2955,0.0,1.2512,1.2234,1.1824,1.1776,1.1776,1.1776,1.1776,1.1776,1.1776,1.1593,1.1411,1.1224,1.1053,1.0875,1.0692,1.0692,1.0692,1.0692,1.0692,1.0501,1.0233,1.0355,1.0221,0.9884,0.9884,0.9782,0.9579,0.9579,0.9579,0.9579,0.9579,0.9579,0.9579,0.0,0.0,0.0,0.0,0.0,0.0,1.7099,1.6807,1.6485,1.6171,1.5584,0.0,0.0,0.0,0.0,0.0,1.4814,1.5431,1.6517,1.776,1.8977,2.0195,2.191,2.3111,2.3655,2.4914,2.5676,2.5983,2.6607,2.686,2.6746,2.6746,2.6807,2.6912,2.6798,2.6807,2.6912,2.6912,2.7016,2.7114,2.6408,2.5878,2.537,2.3594,2.1963,2.0304,0.0,0.0,0.0,1.421,1.3361,1.308,1.3653,1.3675,0.0,1.3492,1.3726,0.0,0.0,0.0,1.6659,1.7465,1.8138,1.876,1.9301,1.911,1.8682,1.7861,1.6214,1.4642,1.395,1.3051,1.2521,1.2724,1.3169,1.3514,1.358,1.3476,1.331,1.3093,1.3008,0.0,0.0,0.0,0.0,1.223,1.201,1.1937,1.2057,1.1774,1.165,1.1772,1.1593,1.1411,1.1224,1.1167,1.0988,1.0692,1.0692,1.0692,1.0692,1.0692,1.0627,1.0517,1.0578,1.0469,1.0249,1.0249,1.0144,0.9969,0.9847,0.9799,0.9782,0.9669,0.9579,0.9579,0.0,0.0,0.0,0.0,0.0,0.0,0.0,0.0,0.0,0.0,0.0,0.0,0.0,0.0,0.0,0.0,0.0,1.49,1.5817,0.0,1.755,1.8614,2.0107,2.1055,2.1454,2.2715,2.3494,2.3767,2.4514,2.4922,2.4975,2.5116,2.5317,2.5559,2.5459,2.5535,2.5749,2.5465,2.5404,2.5371,2.4371,2.3757,2.3315,2.1562,2.0117,0.0,0.0,0.0,0.0,1.276,1.2175,1.227,1.2804,1.3067,1.325,1.3572,1.4209,0.0,0.0,1.6834,1.786,1.8628,1.9228,1.9696,1.9996,1.9908,1.9415,1.8047,1.6362,1.4832,1.3639,1.2586,1.1907,1.2034,1.2512,1.2923,1.3206,1.3069,1.2947,1.3017,1.2776,0.0,0.0,0.0,0.0,1.2141,1.193,1.1782,1.1957,1.1741,1.1654,1.1772,1.1593,1.1411,1.1224,1.1159,1.0984,1.0692,1.0692,1.0692,1.0692,1.0692,1.0692,1.0692,1.0692,1.0558,1.0343,1.0354,1.0249,0.9965,0.9908,0.9847,0.9778,0.9768,0.9723,0.9727,0.0,0.0,0.0,0.0,0.0,0.0,0.0,0.0,0.0,0.0,0.0,0.0,0.0,0.0,0.0,0.0,0.0,0.0,0.0,0.0,0.0,1.7339,1.8174,1.8806,1.9201,1.9913,2.0341,2.0457,2.1791,2.2492,2.2645,2.3028,2.3561,2.4193,2.3955,2.4162,2.4715,2.3918,2.344,2.3134,2.1942,2.107,2.0351,1.8623,0.0,0.0,0.0,0.0,0.0,0.0,0.0,0.0,0.0,0.0,1.3638,1.3996,1.4794,1.5776,1.7023,1.7889,1.8628,1.9572,2.0025,2.0164,1.9879,1.9815,1.9317,1.7712,1.6163,1.4728,0.0,0.0,1.1491,1.1515,1.1723,1.2025,1.2391,1.2283,1.2361,0.0,0.0,0.0,0.0,0.0,0.0,1.1774,0.0,1.1496,1.1512,1.1671,1.1764,1.1776,1.1593,1.1411,1.1224,1.1045,1.0867,1.0692,1.0692,1.0692,1.0692,1.0692,1.0692,1.0692,1.0692,1.0501,1.0253,1.0367,1.008,0.9635,0.9827,0.9782,0.964,0.9875,0.9969,0.9969,0.0,0.0,0.0,0.0,0.0,0.0,0.0,0.0,0.0,0.0,0.0,0.0,0.0,0.0,0.0,0.0,0.0,0.0,0.0,0.0,0.0,0.0,0.0,0.0,0.0,0.0,0.0,0.0,1.9977,2.0301,2.0633,2.0734,2.1035,2.1509,2.1413,2.1477,2.163,2.112,2.0978,2.0981,0.0,1.9448,1.9343,0.0,0.0,0.0,0.0,0.0,0.0,0.0,0.0,0.0,0.0,0.0,1.4688,1.5526,1.6448,1.7384,1.8196,1.9067,1.9864,2.0355,2.0355,2.0219,2.0442,1.9733,1.8935,1.8513,1.5971,1.3659,0.0,0.0,0.0,1.1468,1.2209,0.0,1.331,1.3325,0.0,0.0,0.0,1.3084,1.2866,1.2565,0.0,0.0,1.1904,1.1762,1.2034,1.1733,1.1634,1.1772,1.1593,1.1411,1.1224,1.0915,1.0741,1.0692,1.0692,1.0692,1.0692,1.0692,1.0692,1.0692,1.0692,1.0639,1.055,1.0469,1.0302,1.0205,0.9977,0.9855,0.9803,0.9722,0.9821,0.9969,0.0,0.0,0.0,0.0,0.0,0.0,0.0,0.0,0.0,0.0,0.0,0.0,0.0,0.0,0.0,0.0,0.0,0.0,0.0,0.0,0.0,0.0,0.0,0.0,0.0,0.0,0.0,0.0,0.0,0.0,1.831,1.8484,1.8815,1.9191,1.9191,1.9292,1.943,1.8852,0.0,0.0,0.0,0.0,0.0,0.0,0.0,0.0,0.0,0.0,0.0,0.0,0.0,1.4004,1.4465,1.5248,1.6082,1.6806,0.0,1.8599,1.925,1.993,2.0475,2.0859,2.0691,2.0384,2.0142,1.9411,1.852,1.7505,1.5557,0.0,0.0,0.0,0.0,0.0,0.0,0.0,1.3055,1.314,1.3202,0.0,1.3306,0.0,1.2907,1.2721,1.2586,0.0,1.2102,1.19,1.2107,1.1809,1.1667,1.1772,1.1675,1.1492,1.1224,1.0952,1.0773,1.0692,1.0692,1.0692,1.0692,1.0692,1.0692,1.0692,0.0,1.0647,1.0578,1.0558,1.0408,1.018,1.0054,0.9908,0.9762,0.976,0.9871,1.0019,0.0,0.0,0.0,0.0,0.0,0.0,0.0,0.0,0.0,0.0,1.6959,1.6694,0.0,0.0,0.0,0.0,0.0,0.0,0.0,0.0,0.0,0.0,0.0,0.0,0.0,0.0,0.0,0.0,0.0,0.0,0.0,0.0,0.0,0.0,0.0,0.0,0.0,0.0,0.0,0.0,0.0,0.0,0.0,0.0,0.0,0.0,0.0,0.0,0.0,0.0,1.4456,1.4878,1.5526,1.652,1.7549,1.7962,1.8708,1.9535,2.0135,2.0482,2.0845,2.1086,2.0867,2.0355,1.9425,1.8862,1.7943,1.5889,0.0,0.0,1.2319,0.0,1.1502,1.0976,0.0,1.16,1.2354,1.2545,1.2767,1.3325,1.3249,1.3088,1.28,1.2742,1.2704,1.2646,1.2364,1.2128,1.201,1.1927,1.1837,1.1776,1.1752,1.1573,1.1228,1.111,1.0943,1.0784,1.0814,1.0814,1.0784,1.0759,1.0747,1.0692,1.0692,0.0,1.0423,1.0661,1.0437,1.0071,1.0186,1.0039,0.971,0.9929,1.0019,1.0019,0.0,0.0,0.0,0.0,0.0,0.0,0.0,0.0,0.0,0.0,1.7222,1.7183,0.0,0.0,0.0,0.0,0.0,0.0,0.0,0.0,0.0,0.0,0.0,0.0,0.0,0.0,0.0,0.0,0.0,0.0,0.0,0.0,0.0,0.0,0.0,0.0,0.0,0.0,0.0,0.0,0.0,0.0,0.0,0.0,0.0,0.0,0.0,0.0,0.0,0.0,1.5549,1.6242,1.7113,1.7925,1.865,1.925,1.9725,2.015,2.0537,2.0874,2.1079,2.0859,2.0362,1.9747,1.9038,1.8047,0.0,0.0,0.0,1.4146,1.3753,0.0,0.0,1.2412,0.0,0.0,0.0,0.0,1.3263,0.0,0.0,0.0,0.0,0.0,0.0,0.0,0.0,1.2731,1.2192,1.2161,1.2005,1.1837,1.1626,1.1443,1.1224,1.128,1.1289,1.1251,1.1372,1.1381,1.1251,1.1092,1.0911,1.0692,1.0692,0.0,1.0639,1.08,1.0802,1.0737,1.0617,1.0463,1.0171,1.0024,1.0019,1.0019,0.0,0.0,0.0,0.0,0.0,0.0,0.0,1.7717,1.7606,1.7334,1.7306,1.7306,1.7306,1.7306,1.7211,0.0,0.0,0.0,0.0,0.0,0.0,0.0,0.0,0.0,0.0,0.0,0.0,0.0,0.0,0.0,0.0,0.0,0.0,0.0,0.0,0.0,0.0,0.0,0.0,0.0,0.0,0.0,0.0,0.0,0.0,0.0,0.0,0.0,0.0,0.0,1.5351,1.6133,1.7604,1.8745,1.9608,1.9916,2.0355,2.0779,2.0933,2.1094,2.113,2.0801,2.0113,1.9346,1.8467,0.0,0.0,0.0,0.0,1.4657,1.4181,0.0,0.0,0.0,0.0,0.0,0.0,0.0,0.0,0.0,0.0,0.0,0.0,0.0,0.0,0.0,0.0,1.3264,1.2719,1.2419,1.2062,1.1837,1.1691,1.1553,1.137,1.1302,1.1383,1.1553,1.1535,1.1552,1.1638,1.1543,1.1279,1.0911,1.0911,0.0,1.0739,1.0929,1.0949,1.0901,1.098,1.0836,1.05,1.0357,1.0251,1.0171,0.0,0.0,0.0,0.0,0.0,0.0,1.8201,1.8093,1.7913,1.7379,1.7306,1.7306,1.7306,1.7306,1.7306,0.0,0.0,0.0,0.0,0.0,0.0,0.0,0.0,0.0,0.0,0.0,0.0,0.0,0.0,0.0,0.0,0.0,0.0,0.0,0.0,0.0,0.0,0.0,0.0,0.0,0.0,0.0,0.0,0.0,0.0,0.0,0.0,0.0,0.0,0.0,1.4744,1.5245,1.7121,1.8716,1.9923,1.9923,2.0486,2.1101,2.1101,2.1159,2.1115,2.072,1.9894,1.8913,1.7933,1.6967,0.0,0.0,1.5389,1.5173,1.4482,0.0,0.0,0.0,0.0,0.0,0.0,0.0,0.0,0.0,0.0,0.0,0.0,0.0,0.0,0.0,0.0,0.0,1.3204,1.2659,1.2182,1.1893,1.1893,1.1743,1.15,1.1412,1.1512,1.1859,1.1732,1.1833,1.2103,1.2019,1.1723,1.1245,1.1143,0.0,0.0,1.1017,1.11,1.108,1.1305,1.1207,1.0899,1.0798,1.0643,1.0463,0.0,0.0,0.0,0.0,0.0,0.0,1.8282,1.8093,1.7913,1.7379,1.7306,1.7306,1.7306,1.7306,1.7306,0.0,0.0,0.0,0.0,0.0,0.0,0.0,0.0,0.0,0.0,0.0,0.0,0.0,0.0,0.0,0.0,0.0,0.0,0.0,0.0,0.0,0.0,0.0,0.0,0.0,0.0,0.0,0.0,0.0,0.0,0.0,0.0,0.0,0.0,0.0,0.0,1.3676,1.518,1.7179,1.8921,1.8921,0.0,0.0,2.0772,2.0984,2.1057,2.0435,1.955,1.8577,1.7596,0.0,0.0,0.0,1.5389,1.5389,1.5298,1.4636,1.3932,0.0,0.0,0.0,0.0,0.0,0.0,0.0,0.0,0.0,0.0,0.0,0.0,0.0,0.0,0.0,1.3204,1.284,1.2479,1.2178,1.2178,1.1974,1.15,1.1715,1.2005,1.2416,1.2445,1.2618,1.279,1.2423,1.2082,1.1776,1.1317,0.0,0.0,1.1072,1.1282,1.1524,1.1621,1.1642,1.1587,1.1415,1.1187,1.0888,0.0,0.0,0.0,0.0,0.0,0.0,1.924,1.9109,1.8792,1.7897,1.7788,1.7661,1.7334,1.7306,1.7306,1.7306,0.0,0.0,0.0,0.0,0.0,0.0,0.0,0.0,0.0,0.0,0.0,0.0,0.0,0.0,0.0,0.0,0.0,0.0,0.0,0.0,0.0,0.0,0.0,0.0,0.0,0.0,0.0,0.0,0.0,0.0,0.0,0.0,0.0,0.0,0.0,0.0,1.3543,1.5101,0.0,0.0,1.914,1.9981,2.0567,2.0962,2.105,2.0343,1.936,1.8291,1.7461,0.0,0.0,1.5418,1.5389,1.5389,1.5389,1.5131,1.4473,0.0,0.0,0.0,0.0,0.0,0.0,0.0,0.0,0.0,0.0,0.0,0.0,0.0,0.0,0.0,1.3509,1.3204,1.284,1.2539,1.2479,1.2384,1.2192,1.2027,1.2204,1.261,1.2592,1.266,1.2908,1.2793,1.2537,1.2134,1.1766,0.0,0.0,1.1568,1.1728,1.1887,1.2027,1.2033,1.1931,1.1808,1.156,1.1187,0.0,0.0,0.0,0.0,0.0,2.0498,1.9875,1.9798,1.9449,1.8498,1.8213,1.7968,1.759,1.7407,1.7306,1.7306,1.7306,0.0,0.0,0.0,0.0,0.0,0.0,0.0,0.0,0.0,1.5555,1.541,1.4931,0.0,0.0,0.0,0.0,0.0,0.0,0.0,0.0,0.0,0.0,0.0,0.0,0.0,0.0,0.0,0.0,0.0,0.0,0.0,0.0,0.0,0.0,0.0,0.0,0.0,0.0,0.0,1.8108,1.914,1.982,2.0457,2.0786,2.0237,1.9118,1.8013,0.0,0.0,1.5389,1.5389,1.5389,1.5389,1.5389,1.5389,1.4915,0.0,0.0,0.0,0.0,0.0,0.0,0.0,0.0,0.0,0.0,0.0,0.0,0.0,0.0,0.0,0.0,1.3504,1.3204,1.284,1.284,1.2779,1.2719,1.235,1.2413,1.284,1.277,1.2885,1.3113,1.3135,1.2875,1.2501,1.2174,0.0,0.0,1.1841,1.1951,1.2005,1.2223,1.2243,1.2194,1.2113,1.193,1.1677,0.0,0.0,0.0,0.0,0.0,2.0498,1.9875,1.9798,1.9604,1.9066,1.8483,1.8093,1.8093,1.7606,1.7306,1.7306,1.7306,0.0,0.0,0.0,0.0,0.0,0.0,0.0,0.0,0.0,1.6371,1.5902,1.5429,1.4951,1.4515,0.0,0.0,0.0,0.0,0.0,0.0,0.0,0.0,0.0,0.0,0.0,0.0,0.0,0.0,0.0,0.0,0.0,0.0,0.0,0.0,0.0,0.0,0.0,0.0,0.0,1.6565,1.8313,1.8328,1.9264,2.0172,1.985,1.8789,1.7735,0.0,0.0,1.5389,1.5389,1.5389,1.5389,1.5389,1.5389,1.5131,1.4223,1.3324,0.0,0.0,0.0,0.0,0.0,0.0,0.0,0.0,0.0,0.0,0.0,0.0,0.0,0.0,1.3688,1.3569,1.3204,1.3204,1.3024,1.2719,1.2719,1.284,1.3204,1.32,1.3384,1.367,1.3254,1.3122,0.0,0.0,0.0,0.0,1.1732,1.1787,1.2005,1.2005,1.2164,1.2382,1.2387,1.2382,1.2349,0.0,0.0,0.0,0.0,0.0,0.0,2.0435,2.0067,1.9604,1.9066,1.8483,1.7968,1.7579,1.7407,1.7306,1.7306,1.7306,0.0,0.0,0.0,0.0,0.0,0.0,0.0,0.0,1.6835,1.6542,1.6371,1.5584,1.5118,1.4981,1.4645,1.4515,0.0,0.0,0.0,0.0,0.0,0.0,0.0,0.0,0.0,0.0,0.0,0.0,0.0,0.0,0.0,0.0,0.0,0.0,0.0,0.0,0.0,0.0,1.3874,1.5087,0.0,1.7182,1.7772,1.8176,1.8123,1.7457,1.6799,1.6696,0.0,1.5389,1.5389,1.5389,1.5389,1.5389,1.5389,1.5131,1.423,1.3837,0.0,0.0,0.0,0.0,0.0,0.0,0.0,0.0,0.0,0.0,0.0,0.0,0.0,0.0,1.3688,1.3629,1.3569,1.3569,1.3504,1.3384,1.3144,1.3084,1.32,1.3067,1.3067,1.3172,1.2993,1.2862,0.0,0.0,0.0,0.0,1.2164,1.2223,1.2273,1.2273,1.2332,1.2387,1.2387,1.2297,1.217,0.0,0.0,0.0,0.0,0.0,0.0,2.0359,2.0042,1.9604,1.9066,1.8682,1.8224,1.7661,1.7434,1.7306,1.7306,1.7306,0.0,0.0,0.0,0.0,0.0,0.0,0.0,1.7306,1.7015,1.6864,1.6872,1.6077,1.5595,1.5447,1.4967,1.4653,1.4515,1.4515,1.4515,0.0,0.0,0.0,0.0,0.0,0.0,1.4515,0.0,0.0,0.0,0.0,0.0,0.0,0.0,0.0,0.0,0.0,0.0,0.0,0.0,1.407,1.4911,0.0,1.663,1.715,1.715,1.6755,0.0,0.0,0.0,0.0,1.5389,1.5389,1.5389,1.5389,1.5389,1.5215,1.4699,1.4402,0.0,0.0,0.0,0.0,0.0,0.0,0.0,0.0,0.0,0.0,0.0,0.0,0.0,0.0,1.3688,1.3688,1.3688,1.3688,1.3688,1.3688,1.3434,1.3278,1.3273,1.307,1.2973,1.2964,1.2862,1.2823,0.0,0.0,0.0,0.0,1.2387,1.2387,1.2387,1.2387,1.2387,1.2387,1.2387,1.2307,1.2198,0.0,0.0,0.0,0.0,0.0,0.0,0.0,1.9721,1.9488,1.9013,1.8907,1.8655,1.8104,1.7617,1.7306,1.7306,1.7306,0.0,0.0,0.0,0.0,0.0,0.0,0.0,1.7306,1.7306,1.7287,1.725,1.6746,1.6297,1.5885,1.5355,1.4924,1.4545,1.4506,1.4515,1.4515,1.4515,1.4515,1.4515,1.4515,1.4515,0.0,0.0,0.0,0.0,0.0,0.0,0.0,0.0,0.0,0.0,0.0,0.0,0.0,0.0,0.0,0.0,0.0,1.5723,1.6705,1.6727,1.6521,1.6316,0.0,0.0,0.0,0.0,1.5389,1.5389,1.5389,1.5389,1.5389,1.5389,1.495,0.0,0.0,0.0,0.0,0.0,0.0,0.0,0.0,0.0,0.0,0.0,0.0,0.0,0.0,1.3688,1.3688,1.3688,1.3674,1.3665,1.3665,1.348,1.3381,1.3367,1.315,1.3103,1.3098,1.2894,1.2743,0.0,0.0,0.0,0.0,1.2387,1.2387,1.2387,1.2387,1.2387,1.2387,1.2387,1.2387,1.2387,0.0,0.0,0.0,0.0,0.0,0.0,0.0,0.0,0.0,0.0,1.7963,1.7656,1.7518,1.7379,1.7306,0.0,0.0,0.0,0.0,0.0,0.0,0.0,0.0,0.0,1.7306,1.7306,1.7125,1.6767,1.6652,1.6325,1.5879,1.5409,1.5125,1.501,1.4654,1.4515,1.4515,1.4515,1.4515,1.4515,1.4515,1.4515,0.0,0.0,0.0,0.0,1.4606,1.4686,0.0,0.0,0.0,0.0,0.0,0.0,0.0,0.0,1.3492,1.3543,1.377,0.0,1.4761,1.501,1.5153,1.5301,0.0,0.0,0.0,0.0,0.0,0.0,0.0,0.0,0.0,0.0,0.0,0.0,0.0,0.0,0.0,0.0,0.0,0.0,0.0,0.0,0.0,0.0,0.0,0.0,0.0,1.3688,1.3688,1.3688,1.3537,1.3462,1.3462,1.341,1.3306,1.314,1.2994,1.2894,1.2885,1.2616,1.2517,0.0,0.0,0.0,1.2387,1.2387,1.2387,1.2387,1.2387,1.2387,1.2387,1.2387,1.2387,1.2387,0.0,0.0,0.0,0.0,0.0,0.0,0.0,0.0,0.0,0.0,1.7689,1.7562,1.7334,1.7306,1.7306,0.0,0.0,0.0,0.0,0.0,0.0,0.0,0.0,1.7306,1.7306,1.7099,1.7163,1.7562,1.6884,1.6562,1.6517,1.5801,1.526,1.4872,1.4625,1.4515,1.4515,1.4515,1.4515,1.4515,1.4515,0.0,0.0,0.0,0.0,0.0,1.4586,1.4756,0.0,1.5675,1.5646,1.5346,0.0,0.0,0.0,0.0,1.3775,1.3492,1.3492,1.3843,1.4291,1.446,1.4823,1.517,1.5345,0.0,0.0,0.0,0.0,0.0,0.0,0.0,0.0,0.0,0.0,0.0,0.0,0.0,0.0,0.0,0.0,0.0,0.0,0.0,0.0,0.0,0.0,0.0,0.0,1.3603,1.3594,1.3688,1.3395,1.3291,1.3391,1.3202,1.3046,1.2984,1.2715,1.2616,1.2611,1.2493,1.2387,0.0,0.0,0.0,1.2387,1.2387,1.2387,1.2387,1.2387,1.2387,1.2387,1.2387,1.2387,1.2387,0.0,0.0,0.0,0.0,0.0,0.0,0.0,0.0,0.0,0.0,0.0,0.0,0.0,0.0,0.0,0.0,0.0,0.0,0.0,0.0,0.0,0.0,1.7306,1.7306,1.7306,1.6835,1.719,1.8379,1.7131,1.6718,1.7173,1.624,1.5338,1.4515,1.4549,1.457,1.4515,1.4515,1.4515,1.4515,1.4515,0.0,0.0,0.0,0.0,0.0,0.0,0.0,0.0,1.5995,1.6085,1.6098,1.6511,0.0,0.0,0.0,0.0,0.0,1.3558,1.4048,1.457,1.4518,1.4955,1.5389,1.5389,0.0,0.0,0.0,0.0,0.0,0.0,0.0,0.0,0.0,0.0,0.0,0.0,0.0,0.0,0.0,0.0,0.0,0.0,0.0,0.0,0.0,0.0,0.0,0.0,1.348,1.3452,1.3589,1.3221,1.3165,1.3291,1.2942,1.2804,1.2715,1.2526,1.2387,1.2387,1.2387,1.2387,1.2387,0.0,0.0,1.2387,1.2387,1.2387,1.2387,1.2387,1.2387,1.2387,1.2387,1.2387,1.2387,0.0,0.0,0.0,0.0,0.0,0.0,0.0,0.0,0.0,0.0,0.0,0.0,0.0,0.0,0.0,0.0,0.0,0.0,0.0,0.0,0.0,1.7306,1.7306,1.7306,1.7306,1.6835,1.6701,1.6923,1.6644,1.6538,1.6598,1.6073,1.5338,1.4494,1.4864,1.4827,1.4515,1.4515,1.4515,1.4515,1.4515,0.0,0.0,0.0,0.0,0.0,0.0,0.0,0.0,1.6573,1.6505,1.6089,1.6674,0.0,0.0,0.0,0.0,0.0,1.3836,1.4377,1.4761,1.4577,1.4955,1.5389,1.5389,0.0,0.0,0.0,0.0,0.0,0.0,0.0,0.0,0.0,0.0,0.0,0.0,0.0,0.0,0.0,0.0,0.0,0.0,0.0,0.0,0.0,0.0,0.0,0.0,1.3405,1.332,1.3226,1.2994,1.2885,1.2862,1.2856,1.2673,1.2434,1.2401,1.2387,1.2387,1.2387,1.2387,1.2387,0.0,1.2387,1.2387,1.2387,1.2387,1.2387,1.2387,1.2387,1.2387,1.2387,1.2387,1.2387,0.0,0.0,0.0,0.0,0.0,0.0,0.0,0.0,0.0,0.0,0.0,0.0,0.0,0.0,0.0,0.0,0.0,0.0,0.0,0.0,1.7426,1.766,1.7392,1.7273,1.7306,1.6562,1.6534,1.7286,1.6738,1.6564,1.6789,1.5856,1.5216,1.4827,1.4799,1.468,1.4515,1.4515,1.4634,1.4827,0.0,0.0,0.0,0.0,0.0,0.0,0.0,0.0,0.0,0.0,1.7002,1.6983,1.7375,0.0,0.0,0.0,0.0,0.0,1.4175,1.4485,1.4648,1.454,1.5087,1.56,1.5425,0.0,0.0,0.0,0.0,0.0,0.0,0.0,0.0,0.0,0.0,0.0,0.0,0.0,0.0,0.0,0.0,0.0,0.0,0.0,0.0,0.0,0.0,0.0,0.0,0.0,1.3055,1.3122,1.2758,1.2644,1.2823,1.2649,1.254,1.2387,1.2387,1.2387,1.2387,1.2387,1.2387,1.2387,0.0,1.2387,1.2387,1.2387,1.2387,1.2387,1.2387,1.2387,1.2387,1.2387,1.2387,1.2387,0.0,0.0,0.0,0.0,0.0,0.0,0.0,0.0,0.0,0.0,0.0,0.0,0.0,0.0,0.0,0.0,0.0,0.0,0.0,1.7249,1.7301,1.7669,1.717,1.7049,1.7435,1.6467,1.6531,1.7698,1.6829,1.6579,1.6883,1.5863,1.5285,1.5093,1.4781,1.4598,1.4515,1.4607,1.4827,1.5111,0.0,0.0,0.0,0.0,0.0,0.0,0.0,0.0,0.0,0.0,0.0,0.0,0.0,0.0,0.0,1.6724,1.5428,1.3891,1.4524,1.4668,1.4582,1.4582,0.0,1.576,1.5542,0.0,0.0,0.0,0.0,0.0,0.0,0.0,0.0,0.0,0.0,0.0,0.0,0.0,0.0,0.0,0.0,0.0,0.0,0.0,0.0,0.0,0.0,0.0,0.0,0.0,1.3643,1.3749,1.3152,1.29,1.313,1.2631,1.2387,1.2387,1.2387,1.2387,1.2387,1.2387,1.2387,1.2387,1.2387,1.2387,1.2387,1.2387,1.2358,1.2321,1.2368,1.2387,1.2377,1.2335,1.2344,1.2387,0.0,0.0,0.0,0.0,0.0,0.0,0.0,0.0,0.0,0.0,0.0,0.0,0.0,0.0,0.0,0.0,0.0,0.0,0.0,1.7138,1.6676,1.6708,1.6178,1.6506,1.784,1.686,1.6607,1.717,1.6599,1.6318,1.6346,1.6257,1.5826,1.5102,1.5065,1.4854,1.4533,1.49,1.5074,1.5129,1.5505,0.0,0.0,0.0,0.0,0.0,0.0,0.0,0.0,0.0,0.0,0.0,0.0,0.0,1.6828,1.6862,1.5772,1.4609,1.497,1.4972,1.4863,1.4863,1.5148,0.0,1.5818,0.0,0.0,0.0,0.0,0.0,0.0,0.0,0.0,0.0,0.0,0.0,0.0,0.0,0.0,0.0,0.0,0.0,0.0,0.0,0.0,0.0,0.0,0.0,0.0,0.0,1.5891,1.5708,1.4659,1.4067,1.4088,1.2989,1.2387,1.2387,1.2387,1.2387,1.2387,1.2387,1.2387,1.2387,1.2387,1.2387,1.2387,1.2387,1.2274,1.2128,1.2311,1.2387,1.2363,1.2175,1.2227,1.2387,0.0,0.0,0.0,0.0,0.0,0.0,0.0,0.0,0.0,0.0,0.0,1.9026,1.872,0.0,0.0,0.0,0.0,0.0,0.0,1.7379,1.704,1.704,1.6257,1.6303,1.738,1.6687,1.6557,1.7025,1.6781,1.6679,1.667,1.6166,1.59,1.5835,1.5331,1.5157,1.5258,1.5404,1.5615,1.5872,1.6019,1.623,0.0,0.0,0.0,0.0,0.0,0.0,0.0,0.0,1.794,1.8008,1.8008,1.751,1.6897,1.6897,1.5971,1.4874,1.4824,1.5003,1.5112,1.4743,0.0,0.0,0.0,0.0,0.0,0.0,0.0,0.0,0.0,0.0,0.0,0.0,0.0,0.0,0.0,0.0,0.0,0.0,0.0,0.0,0.0,0.0,0.0,0.0,0.0,0.0,0.0,1.6394,1.597,1.5914,1.5494,1.528,1.528,1.4793,1.4578,1.4578,1.3083,1.2387,1.2382,1.2255,1.2269,1.2377,1.2255,1.2269,1.2372,1.225,1.2227,1.2278,1.2354,1.2307,1.2208,1.2255,1.2321,1.2387,0.0,0.0,0.0,0.0,0.0,0.0,0.0,0.0,1.9496,0.0,0.0,0.0,0.0,1.9146,0.0,0.0,0.0,0.0,1.7988,1.7356,1.697,1.6827,1.614,1.605,1.6651,1.6405,1.6535,1.6973,1.6933,1.6908,1.689,1.6211,1.6037,1.6251,1.5597,1.5432,1.5698,1.5835,1.6056,1.6297,1.645,1.6661,0.0,0.0,0.0,0.0,0.0,0.0,0.0,0.0,1.8008,1.8008,1.8008,1.7647,1.721,1.7088,1.6285,1.536,1.5011,1.5079,1.5126,0.0,0.0,0.0,0.0,0.0,0.0,0.0,0.0,0.0,0.0,0.0,0.0,0.0,0.0,0.0,0.0,0.0,0.0,0.0,0.0,0.0,0.0,0.0,0.0,0.0,0.0,0.0,0.0,1.7411,1.6975,1.6975,1.6611,1.6452,1.6452,1.6074,1.5914,1.5861,1.418,1.3229,1.2975,1.2394,1.2161,1.2278,1.2076,1.2062,1.218,1.2043,1.2067,1.2175,1.2043,1.2034,1.2095,1.2165,1.2274,1.2436,0.0,0.0,0.0,0.0,0.0,0.0,0.0,0.0,2.0118,2.0118,2.0118,0.0,0.0,0.0,0.0,0.0,0.0,0.0,1.7843,1.6921,1.6242,1.5819,1.5722,1.5689,1.5689,1.6101,1.6505,1.6908,1.6899,1.6899,1.6899,1.6462,1.6288,1.6279,1.589,1.5698,1.5725,1.6147,1.6297,1.6358,1.6752,1.6908,1.6908,0.0,0.0,0.0,0.0,0.0,0.0,0.0,1.8008,1.8008,1.8008,1.8008,1.7924,1.7509,1.6828,1.6147,1.5715,1.5269,0.0,0.0,0.0,0.0,0.0,0.0,0.0,0.0,0.0,0.0,0.0,0.0,0.0,0.0,0.0,0.0,0.0,0.0,0.0,0.0,0.0,0.0,0.0,0.0,0.0,0.0,0.0,0.0,0.0,1.9279,1.9279,1.9279,1.8213,1.7628,1.7628,1.6499,1.5908,1.5908,1.5584,1.4972,1.4159,1.2758,1.2134,1.2124,1.1907,1.1817,1.1817,1.1817,1.1813,1.177,1.1364,1.1586,1.2057,1.1846,1.2029,1.2545,0.0,0.0,0.0,0.0,0.0,0.0,0.0,0.0,2.0118,2.0118,2.0118,0.0,0.0,0.0,0.0,0.0,0.0,0.0,1.783,1.7236,1.6674,1.6251,1.561,1.5404,1.568,1.5808,1.6211,1.6908,1.6633,1.6633,1.689,1.6202,1.6184,1.6725,1.6597,1.6541,1.6569,1.6972,1.6991,1.6743,1.6862,1.6968,1.7141,0.0,0.0,0.0,0.0,0.0,0.0,0.0,0.0,0.0,1.8008,1.8178,1.8302,1.7673,1.7669,1.7567,1.6065,1.607,0.0,0.0,0.0,0.0,0.0,0.0,0.0,0.0,0.0,0.0,0.0,0.0,0.0,0.0,0.0,0.0,0.0,0.0,0.0,0.0,0.0,0.0,0.0,0.0,0.0,0.0,0.0,0.0,0.0,1.9279,1.9279,1.9279,1.8736,1.846,1.846,1.8093,1.7932,1.7932,1.702,1.6031,1.5048,1.4202,1.3954,1.4048,1.3853,1.3444,1.2884,1.2122,1.1647,1.1397,1.1567,1.1746,1.1902,1.1841,1.1992,1.2312,0.0,0.0,0.0,0.0,0.0,0.0,2.0118,2.0118,2.0009,1.9791,1.9791,1.9584,0.0,0.0,0.0,1.824,1.8172,0.0,1.746,1.7173,1.6826,1.6379,1.5868,1.5615,1.5689,1.5854,1.6101,1.6422,1.6349,1.6407,1.6661,1.6331,1.6441,1.6908,1.6968,1.7003,1.7056,1.7376,1.7374,1.7135,1.7327,1.7453,1.7612,0.0,0.0,0.0,0.0,0.0,0.0,0.0,0.0,0.0,1.8467,1.8539,1.8453,1.7687,1.7783,1.7735,1.6055,0.0,0.0,0.0,0.0,0.0,0.0,0.0,0.0,0.0,0.0,0.0,0.0,0.0,0.0,0.0,0.0,0.0,0.0,0.0,0.0,0.0,0.0,0.0,0.0,0.0,0.0,0.0,0.0,0.0,0.0,1.9279,1.9213,1.9089,1.8891,1.873,1.8599,1.8591,1.8591,1.8591,1.7753,1.7032,1.6301,1.5121,1.4664,1.4795,1.4581,1.4213,1.3657,1.2611,1.2009,1.1795,1.1618,1.1624,1.1699,1.1699,1.1831,1.2197,0.0,0.0,2.0042,2.0074,0.0,0.0,2.0009,1.9976,1.9769,1.9299,1.9243,1.9034,0.0,0.0,0.0,1.7672,1.7647,1.7407,0.0,1.6908,1.6743,1.6352,1.6306,1.612,1.5698,1.6065,1.6074,1.5689,1.6074,1.6251,1.6321,1.6679,1.6906,1.6943,1.7178,1.7273,1.7245,1.7464,1.7533,1.7542,1.795,1.8112,1.8159,1.8567,0.0,0.0,0.0,0.0,0.0,0.0,0.0,0.0,1.916,1.9043,1.8574,1.7858,1.7592,1.7302,0.0,0.0,0.0,0.0,0.0,0.0,0.0,0.0,0.0,0.0,0.0,0.0,0.0,0.0,0.0,0.0,0.0,0.0,0.0,0.0,0.0,0.0,0.0,0.0,0.0,0.0,0.0,0.0,0.0,0.0,0.0,1.9279,1.9125,1.8803,1.876,1.8584,1.8262,1.8255,1.8255,1.8255,1.7955,1.7816,1.7719,1.5732,1.4839,1.482,1.4569,1.4459,1.4364,1.3307,1.2872,1.2727,1.1819,1.1618,1.1762,1.1742,1.1863,1.2346,0.0,0.0,1.9584,2.0042,0.0,0.0,1.9408,1.911,1.8811,1.87,1.8667,1.8476,1.7944,1.7867,0.0,1.7107,1.7072,1.7003,1.6908,1.6908,1.6872,1.678,1.6486,1.612,1.5698,1.578,1.578,1.5689,1.578,1.5991,1.6321,1.6563,1.6834,1.7151,1.7687,1.7729,1.7455,1.7811,1.7799,1.7542,1.795,1.8192,1.8392,1.8768,1.9031,0.0,0.0,0.0,0.0,0.0,0.0,0.0,1.9258,1.9453,1.9603,1.9402,1.9149,1.8669,0.0,0.0,0.0,0.0,0.0,0.0,0.0,0.0,0.0,0.0,0.0,0.0,0.0,0.0,0.0,0.0,0.0,0.0,0.0,0.0,0.0,0.0,0.0,0.0,0.0,0.0,0.0,0.0,0.0,0.0,1.9279,1.9279,1.9125,1.8803,1.854,1.8247,1.7925,1.7918,1.7918,0.0,1.7845,1.7816,1.776,1.7063,1.6713,1.6658,1.5825,1.5466,1.5412,1.4364,1.398,1.3926,1.374,1.3757,1.3914,1.3757,1.3843,1.4138,0.0,0.0,0.0,0.0,0.0,0.0,0.0,0.0,1.8408,1.8138,1.8104,1.791,1.7373,1.7304,0.0,0.0,1.6908,1.6908,1.6908,1.6908,1.6908,1.6908,1.6707,1.6312,1.5707,1.5979,1.5951,1.5562,1.6057,1.6332,1.6446,1.6842,1.715,1.7358,1.7748,1.7789,1.7608,1.7931,1.7937,1.7793,1.8408,1.874,1.8889,1.9519,1.9827,1.993,1.993,0.0,0.0,0.0,0.0,0.0,0.0,0.0,1.9876,1.9659,1.9166,1.8487,0.0,0.0,0.0,0.0,0.0,0.0,0.0,0.0,0.0,0.0,0.0,0.0,0.0,0.0,0.0,0.0,0.0,0.0,0.0,0.0,0.0,0.0,0.0,0.0,0.0,0.0,0.0,0.0,0.0,1.9279,1.9279,1.9279,1.9052,1.8569,1.8394,1.8072,1.7589,1.7582,1.7582,1.7582,1.7582,1.7582,1.7527,1.7359,1.7279,1.7279,1.6756,1.6513,1.6419,1.5412,1.5032,1.4984,1.4507,1.4358,1.4461,1.4322,1.4358,1.4607,0.0,0.0,0.0,0.0,0.0,0.0,0.0,0.0,0.0,1.7604,1.7579,1.7407,1.6943,1.6908,1.6908,0.0,0.0,0.0,1.6908,1.6908,1.6908,1.6908,1.6908,1.6587,1.5909,1.6429,1.637,1.571,1.6608,1.6987,1.6919,1.7338,1.7529,1.7539,1.7758,1.7817,1.775,1.8008,1.8076,1.8086,1.8945,1.9287,1.9385,2.0282,2.0605,2.0605,2.0605,2.0605,2.0605,2.0605,0.0,0.0,0.0,0.0,1.9946,1.9633,1.8926,1.8078,0.0,0.0,0.0,0.0,0.0,0.0,0.0,0.0,0.0,0.0,0.0,0.0,0.0,0.0,0.0,0.0,0.0,0.0,0.0,0.0,0.0,0.0,0.0,0.0,0.0,0.0,0.0,0.0,0.0,1.9279,1.9279,1.9272,1.8921,1.8321,1.8247,1.7933,1.7333,1.7279,1.7279,1.7279,1.7279,1.7279,1.7279,1.7279,1.7279,1.7279,1.7279,1.7279,1.7232,1.6419,1.6082,1.5988,1.5127,1.4841,1.4841,1.4841,1.4841,1.4937,0.0,0.0,0.0,0.0,0.0,0.0,0.0,0.0,0.0,0.0,1.7003,1.6968,1.6908,1.6908,1.6908,1.6908,1.6908,1.6908,1.6908,0.0,0.0,1.6908,1.6908,1.6853,1.6743,1.6995,1.707,1.6958,1.7402,1.7797,1.8136,1.7835,1.7681,1.7691,1.824,1.828,1.7993,1.8364,1.8305,1.8086,1.8945,1.9287,1.9385,2.0282,2.0605,2.0605,2.0605,2.0605,2.0605,2.0605,2.0566,0.0,0.0,0.0,0.0,2.043,1.9814,0.0,0.0,0.0,0.0,0.0,0.0,0.0,0.0,0.0,0.0,0.0,0.0,0.0,0.0,0.0,0.0,0.0,0.0,0.0,0.0,0.0,0.0,0.0,0.0,0.0,0.0,0.0,0.0,0.0,1.9279,1.9279,1.9279,1.9008,1.8686,1.8313,1.8028,1.7699,1.7286,1.7279,1.7279,1.7279,1.7279,1.7279,1.7279,1.7279,1.7279,1.7279,1.7279,1.7279,1.7279,1.7138,1.7091,1.7091,1.6943,1.6897,1.6897,1.6897,1.6897,1.6897,0.0,0.0,0.0,0.0,0.0,0.0,0.0,0.0,0.0,0.0,0.0,1.6908,1.6908,1.6908,1.6908,1.6908,1.6908,1.6908,1.6908,1.6908,1.6908,1.6908,1.7003,1.6961,1.6739,1.7226,1.7362,1.7135,1.7634,1.8085,1.8511,1.8308,1.8337,1.8614,1.888,1.8896,1.874,1.8926,1.8896,1.8779,1.9394,1.9639,1.9707,2.037,2.0605,2.0605,2.0605,2.0605,2.0605,2.0605,2.0605,2.0605,2.0605,0.0,0.0,0.0,0.0,0.0,0.0,0.0,0.0,0.0,0.0,0.0,0.0,0.0,0.0,0.0,0.0,0.0,0.0,0.0,0.0,0.0,0.0,0.0,0.0,0.0,0.0,0.0,0.0,0.0,0.0,0.0,0.0,0.0,1.9103,1.9001,1.9001,1.8694,1.8364,1.8035,1.7889,1.7655,1.7286,1.7279,1.7279,1.7279,1.7279,1.7279,1.7279,1.7279,1.7279,1.7279,1.7279,1.7279,1.7279,1.7279,1.7279,1.7279,1.7279,1.7279,1.7279,1.7279,1.7279,1.7279,0.0,0.0,0.0,0.0,0.0,0.0,0.0,0.0,0.0,0.0,0.0,1.6908,1.6908,0.0,0.0,0.0,1.6908,1.6908,1.6908,1.6943,1.6968,1.6968,1.7176,1.7139,1.6839,1.7383,1.7552,1.7244,1.7741,1.8281,1.8763,1.8763,1.9092,1.9646,1.9492,1.9394,1.9297,1.9404,1.9385,1.9326,1.9746,1.9912,1.9961,2.0439,2.0605,2.0605,2.0605,2.0605,2.0605,2.0605,2.0605,2.0605,0.0,0.0,0.0,0.0,0.0,0.0,0.0,0.0,0.0,0.0,0.0,0.0,0.0,0.0,0.0,0.0,0.0,0.0,0.0,0.0,0.0,0.0,0.0,0.0,0.0,0.0,0.0,0.0,0.0,0.0,0.0,0.0,0.0,0.0,1.8803,1.8664,1.8664,1.8357,1.8064,1.7823,1.7735,1.7527,1.7286,1.7279,1.7279,1.7279,1.7279,1.7279,1.7279,1.7279,1.7279,1.7279,1.7279,1.7279,1.7279,1.7279,1.7279,1.7279,1.7279,1.7279,1.7279,1.7279,1.7279,1.7279,0.0,0.0,0.0,0.0,0.0,0.0,0.0,0.0,0.0,0.0,0.0,1.6908,1.6908,1.6908,1.6908,1.6908,1.6908,1.6908,1.6908,1.7072,1.7166,1.7166,1.7392,0.0,1.7432,1.7604,1.7696,1.7677,1.7886,1.8437,1.9248,1.9248,1.9734,2.0517,2.0068,1.9658,1.9316,1.9717,0.0,1.9326,0.0,0.0,0.0,0.0,0.0,0.0,0.0,0.0,2.0605,2.0605,2.0605,0.0,0.0,0.0,0.0,0.0,0.0,0.0,0.0,0.0,0.0,0.0,0.0,0.0,0.0,0.0,0.0,0.0,0.0,0.0,0.0,0.0,0.0,0.0,0.0,0.0,0.0,0.0,0.0,0.0,0.0,0.0,0.0,0.0,0.0,0.0,1.8343,1.8328,1.8328,1.8021,1.783,1.7816,1.7468,1.7301,1.7279,1.7279,1.7279,1.7279,1.7279,1.7279,1.7279,1.7279,1.7279,1.7279,1.7279,1.7279,1.7279,1.7279,1.7279,1.7279,1.7279,1.7279,1.7279,1.7279,1.7279,1.7279,0.0,0.0,0.0,0.0,0.0,0.0,0.0,0.0,0.0,0.0,0.0,0.0,0.0,1.7298,1.7298,1.7298,1.7298,1.7298,1.7298,1.7358,1.7392,1.7392,1.7554,1.7757,1.8078,1.7948,1.8032,1.8294,1.81,1.8447,1.9287,1.9287,1.9783,2.0595,2.0439,2.0282,2.0155,2.0302,0.0,0.0,0.0,0.0,0.0,0.0,0.0,0.0,0.0,0.0,0.0,0.0,0.0,0.0,0.0,0.0,2.0605,0.0,0.0,0.0,0.0,0.0,0.0,0.0,0.0,0.0,0.0,0.0,0.0,0.0,0.0,0.0,0.0,0.0,0.0,0.0,0.0,0.0,0.0,0.0,0.0,0.0,0.0,0.0,0.0,0.0,0.0,0.0,0.0,1.7991,1.7991,1.7684,1.7501,1.7501,1.7344,1.723,1.7026,1.7026,1.6923,1.6711,1.6711,1.6711,1.6711,1.6711,1.6711,1.6711,1.6711,1.6945,1.7311,1.7106,1.7143,1.7279,1.7279,1.7279,1.7279,1.7279,1.7279,1.7279,0.0,0.0,0.0,0.0,0.0,1.7116,1.7116,1.721,1.7314,1.7314,0.0,0.0,0.0,0.0,1.7505,1.7505,1.7505,1.7505,1.7505,1.7529,1.7564,1.7564,1.7725,1.8031,1.8476,1.8163,1.8213,1.8598,1.8213,1.8379,1.9072,1.9219,1.9668,2.0352,2.0537,2.0605,0.0,0.0,0.0,2.0605,0.0,0.0,2.0791,0.0,0.0,0.0,0.0,0.0,0.0,0.0,0.0,0.0,0.0,2.0605,2.0605,2.0605,0.0,0.0,0.0,0.0,0.0,0.0,0.0,0.0,0.0,0.0,0.0,0.0,0.0,0.0,0.0,0.0,0.0,0.0,0.0,0.0,0.0,0.0,0.0,0.0,0.0,0.0,0.0,0.0,0.0,0.0,0.0,0.0,1.7501,1.7289,1.7121,1.7011,1.7004,1.6908,1.6734,1.6734,1.6631,1.6411,1.6411,1.6411,1.6411,1.6411,1.6411,1.6404,1.6265,1.6513,1.6996,1.6947,1.702,1.7179,1.7235,1.7279,1.7279,1.7279,1.7279,1.7279,0.0,0.0,1.7505,1.7505,1.7505,1.7505,1.7505,1.7505,1.7505,1.7505,0.0,0.0,0.0,0.0,0.0,1.7542,1.7542,1.7542,1.7542,1.7651,1.7701,1.7725,1.7925,1.8208,1.8617,1.8208,1.8208,1.8637,1.8208,1.8217,1.8646,1.9075,1.9494,1.9951,2.0333,2.0557,2.0605,0.0,2.0615,2.0625,0.0,2.084,2.119,0.0,0.0,0.0,2.1367,2.1171,0.0,0.0,0.0,0.0,0.0,2.0605,2.0605,2.0605,0.0,0.0,0.0,0.0,0.0,0.0,0.0,0.0,0.0,0.0,0.0,0.0,0.0,0.0,0.0,0.0,0.0,0.0,0.0,0.0,0.0,0.0,0.0,0.0,0.0,0.0,0.0,0.0,0.0,0.0,1.7279,1.7186,1.6917,1.6895,1.6741,1.6419,1.6411,1.6411,1.6404,1.6404,1.6397,1.6382,1.6382,1.6382,1.6382,1.6382,1.6382,1.6367,1.603,1.6067,1.6411,1.6734,1.6881,1.6932,1.7194,1.7271,1.7279,1.7279,1.7279,1.7279,0.0,1.7358,1.7505,1.7505,1.7505,1.7505,1.7505,1.7588,1.7647,0.0,0.0,0.0,1.8253,1.8598,1.8792,1.8792,1.8233,1.8115,1.8756,1.826,1.8046,1.8327,1.8724,1.8994,1.9102,1.8646,1.8792,1.9524,1.8792,1.8802,1.9524,1.9042,1.9354,2.0352,1.9228,1.9402,2.0605,2.0605,0.0,0.0,2.1045,2.1083,0.0,0.0,0.0,0.0,0.0,2.0752,0.0,0.0,2.0605,2.0605,0.0,0.0,0.0,0.0,0.0,0.0,2.0605,0.0,0.0,0.0,0.0,0.0,0.0,1.9494,0.0,0.0,0.0,0.0,0.0,0.0,0.0,0.0,0.0,0.0,0.0,0.0,0.0,0.0,0.0,0.0,0.0,0.0,0.0,0.0,1.7279,1.7186,1.6917,1.6675,1.6507,1.6419,1.6411,1.6265,1.6045,1.6038,1.5921,1.5694,1.5694,1.5694,1.5694,1.5694,1.5694,1.5679,1.5599,1.5571,1.5716,1.6038,1.644,1.691,1.6998,1.7128,1.7279,1.7279,1.7279,1.7279,1.7398,1.7554,1.7701,1.7701,1.7701,1.7701,1.7701,1.7759,1.7828,0.0,0.0,0.0,1.8301,1.8275,1.8498,1.9251,1.8479,1.8369,1.9251,1.8829,1.8642,1.888,1.915,1.9365,1.9541,1.9131,1.9238,1.9912,1.9238,1.8969,1.9107,1.9137,1.92,1.9279,1.9131,1.9244,0.0,0.0,0.0,0.0,2.0778,0.0,0.0,2.1268,2.1191,0.0,0.0,0.0,2.1104,2.0732,2.0605,0.0,0.0,0.0,0.0,0.0,0.0,0.0,0.0,0.0,0.0,0.0,0.0,0.0,1.9714,1.9555,1.9277,0.0,0.0,0.0,0.0,0.0,0.0,0.0,0.0,0.0,0.0,0.0,0.0,0.0,0.0,0.0,0.0,1.7279,1.7279,1.7279,1.7279,1.7128,1.6719,1.6221,1.5979,1.5979,1.5979,1.5891,1.5673,1.5673,1.5571,1.5389,1.5389,1.5389,1.5389,1.5389,1.5389,1.5389,1.5389,1.5389,1.5403,1.5593,1.6082,1.6712,1.6851,1.7047,1.7279,1.7279,1.7279,1.7279,0.0,1.7862,1.8008,1.8008,1.8047,1.8042,1.7939,1.7978,1.7973,0.0,1.758,1.756,1.7905,1.7273,1.7459,1.9009,1.8434,1.835,1.924,1.9314,1.9331,1.9355,1.9404,1.958,1.9902,1.9551,1.9561,1.999,1.9561,1.8998,1.8322,1.9259,1.902,1.7839,1.9323,1.9362,1.8327,0.0,0.0,2.111,2.0201,2.0576,0.0,0.0,2.1475,0.0,2.1337,2.1484,2.1689,2.0889,2.0605,0.0,0.0,0.0,0.0,0.0,2.0605,0.0,0.0,0.0,0.0,0.0,0.0,0.0,2.0078,1.9696,1.9371,0.0,0.0,0.0,0.0,0.0,0.0,0.0,0.0,0.0,0.0,0.0,0.0,0.0,0.0,0.0,1.7274,1.7274,1.7274,1.7274,1.7238,1.6974,1.6448,1.5774,1.5389,1.5389,1.5389,1.5389,1.5389,1.5389,1.5389,1.5389,1.5389,1.5389,1.5389,1.5389,1.5389,1.5389,1.5389,1.5389,1.5389,1.5389,1.5782,1.6397,1.6719,1.6996,1.7282,1.7271,1.7279,1.7279,1.7706,1.7862,1.8008,1.8008,1.8256,1.8261,1.7616,1.7777,1.7761,1.7033,1.7223,1.7445,1.7514,1.7643,1.7894,1.8211,1.8092,1.8377,1.9258,1.9297,1.9419,1.9767,2.0127,2.0233,1.9922,1.9834,2.001,2.0478,2.001,1.9895,2.0072,1.8922,1.8928,1.9887,1.7488,1.7796,1.996,0.0,0.0,2.111,2.0233,0.0,2.0717,2.1063,2.1249,2.1307,2.122,2.1249,2.1239,0.0,2.0605,2.0605,0.0,0.0,0.0,0.0,0.0,0.0,0.0,0.0,0.0,0.0,0.0,0.0,2.0498,2.0382,2.0128,0.0,0.0,0.0,0.0,0.0,0.0,0.0,0.0,0.0,0.0,0.0,0.0,0.0,0.0,0.0,1.6991,1.6991,1.6991,1.6991,1.6749,1.6499,1.6419,1.5774,1.5389,1.5389,1.5389,1.5389,1.5389,1.5389,1.5389,1.5389,1.5389,1.5389,1.5389,1.5389,1.5389,1.5389,1.5389,1.5389,1.5389,1.5389,1.5657,1.6038,1.6389,1.6705,1.702,1.723,1.7279,1.7279,1.7862,1.7647,1.7508,1.7681,1.7526,1.7469,1.7661,1.7862,1.7841,1.7393,1.7008,1.6849,1.7022,1.6847,1.7033,1.7917,1.7594,1.7715,1.8607,1.9054,1.9201,1.8942,2.0004,2.0304,1.962,2.0043,2.0342,2.0605,2.0342,2.0159,1.9932,1.9481,1.9323,1.9283,1.8399,1.8479,0.0,0.0,1.8229,1.9834,1.957,0.0,2.0832,2.0855,2.0898,2.0898,2.0898,2.0898,2.0898,2.0898,2.0898,0.0,0.0,2.0723,2.0859,0.0,2.0605,2.0605,0.0,0.0,0.0,2.0605,0.0,0.0,0.0,2.0449,2.042,0.0,0.0,0.0,0.0,0.0,0.0,0.0,0.0,0.0,0.0,0.0,0.0,0.0,0.0,0.0,1.6653,1.6653,1.6653,1.6653,1.6323,1.614,1.614,1.5687,1.5389,1.5389,1.5389,1.5389,1.5389,1.5389,1.5389,1.5389,1.5389,1.5389,1.5389,1.5389,1.5389,1.5389,1.5389,1.5389,1.5389,1.5389,1.5484,1.5659,1.6023,1.6382,1.6697,1.6974,1.7091,1.7113,1.7959,1.751,1.7209,1.7582,1.7026,1.6837,1.7746,1.7825,1.769,1.7538,1.6614,1.6106,1.6482,1.5869,1.6001,1.7549,1.7065,1.7098,1.8019,1.8851,1.9054,1.8519,1.9844,2.0284,1.9578,2.0245,2.0527,2.0362,2.0362,1.9893,1.9054,1.9766,1.9441,1.8278,1.9559,0.0,0.0,0.0,0.0,1.8659,0.0,1.9734,2.0901,2.0693,2.0703,2.086,2.086,2.0801,2.0752,2.1073,0.0,2.1142,2.0908,2.1006,0.0,0.0,0.0,0.0,0.0,0.0,0.0,0.0,0.0,2.0615,0.0,0.0,0.0,0.0,0.0,0.0,0.0,0.0,0.0,0.0,0.0,0.0,0.0,0.0,0.0,0.0,0.0,0.0,0.0,1.6448,1.6279,1.6279,1.6052,1.5913,1.5913,1.5564,1.5389,1.5389,1.5389,1.5389,1.5389,1.5389,1.5389,1.5389,1.5389,1.5389,1.5389,1.5389,1.5389,1.5389,1.5389,1.5389,1.5389,1.5389,1.5389,1.5418,1.5789,1.6067,1.6367,1.6756,1.6903,1.6947,1.7802,1.794,1.7997,1.8379,1.8097,1.7726,1.7514,1.714,1.6579,1.5793,1.5591,1.5622,0.0,0.0,0.0,0.0,0.0,0.0,1.8353,0.0,1.9618,2.0284,2.0479,2.0557,2.045,2.0566,2.0206,1.946,1.946,1.9015,1.8158,1.8238,1.8598,0.0,1.8567,0.0,0.0,0.0,1.8044,0.0,1.8733,1.9112,0.0,2.0448,2.1094,2.1738,2.1738,2.1484,2.1132,0.0,2.119,2.1249,0.0,2.1504,0.0,0.0,0.0,0.0,0.0,0.0,0.0,0.0,2.0869,0.0,0.0,0.0,0.0,0.0,0.0,0.0,0.0,0.0,0.0,0.0,0.0,0.0,0.0,0.0,0.0,0.0,0.0,0.0,0.0,1.6632,1.5965,1.5965,1.5935,1.5913,1.5913,1.5564,1.5389,1.5389,1.5389,1.5389,1.5389,1.5389,1.5389,1.5389,1.5389,1.5389,1.5389,1.5389,1.5389,1.5389,1.5389,1.5389,1.5389,1.5389,1.5389,1.5418,1.5789,1.5935,1.6038,1.6683,1.6903,1.6947,1.7143,1.6916,1.67,1.7081,1.6629,1.6393,1.691,1.6983,1.6841,1.648,1.6147,0.0,0.0,0.0,0.0,0.0,0.0,1.6465,0.0,0.0,1.7948,1.831,1.9323,1.9854,1.9854,2.0323,2.0411,2.005,2.005,1.9883,1.9481,1.9006,1.9213,0.0,1.9125,0.0,1.9271,0.0,0.0,0.0,0.0,0.0,0.0,2.0508,2.084,2.1163,2.1163,2.1006,2.084,0.0,2.1191,0.0,0.0,0.0,0.0,0.0,0.0,0.0,0.0,0.0,0.0,0.0,0.0,0.0,0.0,0.0,2.0605,0.0,0.0,0.0,0.0,0.0,0.0,0.0,0.0,0.0,0.0,0.0,0.0,0.0,0.0,0.0,0.0,0.0,0.0,0.0,1.5593,1.5593,1.5593,1.5462,1.5389,1.5389,1.5389,1.5389,1.5389,1.5389,1.5389,1.5389,1.5389,1.5389,1.5389,1.5389,1.5389,1.5389,1.5389,1.5389,1.5389,1.5389,1.5389,1.5396,1.5535,1.5593,1.5687,1.614,1.6426,1.6661,1.6325,1.6102,1.6,1.6403,1.576,1.5481,1.625,1.6632,1.6858,0.0,0.0,0.0,1.6536,1.6551,0.0,0.0,0.0,1.635,0.0,0.0,1.7368,0.0,0.0,0.0,0.0,2.0284,2.0362,1.9883,1.9883,1.9638,1.9155,1.9015,1.9292,1.9883,0.0,1.9539,1.9301,0.0,0.0,1.9301,1.9301,1.9814,2.0615,2.0742,2.0713,2.0615,2.0703,2.0752,2.0762,2.0928,2.1435,0.0,2.1435,0.0,0.0,0.0,0.0,0.0,2.1885,0.0,0.0,0.0,0.0,0.0,0.0,0.0,0.0,0.0,0.0,0.0,0.0,0.0,0.0,0.0,0.0,0.0,0.0,0.0,0.0,0.0,0.0,0.0,0.0,0.0,0.0,0.0,0.0,1.5389,1.5389,1.5389,1.5389,1.5389,1.5389,1.5389,1.5389,1.5389,1.5389,1.5389,1.5389,1.5389,1.5389,1.5389,1.5389,1.5389,1.5389,1.5389,1.5389,1.5389,1.5389,1.5389,1.5389,1.5389,1.5425,1.5796,1.6111,1.6463,1.5377,1.6103,0.0,0.0,1.6625,1.5916,1.5496,1.5744,0.0,0.0,0.0,0.0,0.0,0.0,0.0,0.0,0.0,1.7444,1.8801,0.0,1.9037,0.0,0.0,2.0566,0.0,0.0,1.9756,1.8078,1.8078,1.7237,1.559,1.7277,1.8078,1.8158,0.0,2.0089,1.9301,1.9301,1.9301,1.9301,1.9301,1.9814,2.0654,0.0,2.0947,2.0664,2.1055,0.0,0.0,2.1709,2.2129,0.0,0.0,0.0,0.0,0.0,0.0,0.0,0.0,0.0,0.0,2.1405,0.0,0.0,0.0,0.0,2.1094,0.0,0.0,0.0,0.0,0.0,0.0,0.0,0.0,0.0,0.0,0.0,0.0,0.0,0.0,0.0,0.0,0.0,0.0,0.0,0.0,0.0,1.5389,1.5389,1.5389,1.5389,1.5389,1.5389,1.5389,1.5389,1.5389,1.5389,1.5389,1.5389,1.5389,1.5389,1.5389,1.5389,1.5389,1.5389,1.5389,1.5389,1.5389,1.5389,1.5389,1.5389,1.5425,1.5796,1.6111,1.6463,1.5367,0.0,0.0,0.0,0.0,0.0,0.0,1.5877,0.0,0.0,0.0,0.0,0.0,0.0,1.8182,0.0,0.0,1.7581,1.788,1.7586,0.0,0.0,0.0,1.8531,0.0,0.0,0.0,0.0,1.9441,1.9402,1.8838,1.8847,1.8856,1.8895,0.0,1.9253,0.0,0.0,0.0,0.0,0.0,2.0615,2.1214,0.0,0.0,2.0664,2.1074,2.119,0.0,2.1738,2.2168,2.249,2.2353,2.2598,2.2828,2.2598,2.2607,0.0,0.0,0.0,2.275,2.2175,0.0,0.0,0.0,0.0,0.0,0.0,0.0,0.0,0.0,0.0,0.0,0.0,0.0,0.0,0.0,0.0,0.0,0.0,0.0,0.0,0.0,0.0,0.0,0.0,0.0,0.0,0.0,1.5389,1.5389,1.5389,1.5389,1.5389,1.5389,1.5389,1.5389,1.5389,1.5389,1.5389,1.5389,1.5389,1.5389,1.5389,1.5389,1.5389,1.5389,1.5389,1.5389,1.5389,1.5389,1.5389,1.5396,1.5513,1.5921,1.6492,1.5411,1.5389,0.0,0.0,0.0,0.0,0.0,0.0,0.0,0.0,1.8101,0.0,1.9228,0.0,1.8913,0.0,1.8401,1.8019,1.7657,1.8041,0.0,1.8146,1.8768,0.0,0.0,0.0,0.0,0.0,0.0,1.9962,1.9638,1.9085,1.9015,1.9301,0.0,0.0,0.0,0.0,2.0372,0.0,0.0,2.1016,0.0,0.0,2.0908,2.1115,0.0,2.1539,2.1726,2.2129,2.2519,2.2824,2.2549,2.2748,2.3057,2.2722,2.2963,2.3286,2.314,2.3315,0.0,2.2881,2.2539,0.0,2.1602,0.0,0.0,0.0,0.0,0.0,0.0,0.0,0.0,0.0,0.0,0.0,0.0,2.0605,0.0,0.0,0.0,0.0,0.0,0.0,0.0,0.0,0.0,0.0,0.0,0.0,1.5389,1.5389,1.5389,1.5389,1.5389,1.5389,1.5389,1.5389,1.5389,1.5389,1.5389,1.5389,1.5389,1.5389,1.5389,1.5389,1.5389,1.5389,1.5389,1.5389,1.5389,1.5389,1.5389,1.5389,1.5826,1.647,1.5455,1.5396,0.0,0.0,1.5652,0.0,0.0,0.0,1.7691,0.0,1.8511,1.9338,1.9367,1.9345,1.9199,1.8884,1.8833,0.0,1.8251,1.9728,0.0,0.0,2.1367,2.2071,2.1719,0.0,0.0,0.0,0.0,0.0,1.7997,1.8037,1.8487,1.9222,1.9341,0.0,2.0566,2.0819,2.0906,2.0945,2.1128,2.1119,2.1004,2.1148,2.1556,2.1979,2.1959,2.2191,2.2592,2.2866,2.3209,2.3503,2.3503,2.3319,2.311,2.2975,2.3363,2.3701,2.3281,2.376,2.4199,2.3354,2.3184,0.0,0.0,0.0,2.2412,0.0,0.0,0.0,0.0,0.0,0.0,0.0,0.0,0.0,0.0,0.0,0.0,0.0,0.0,0.0,0.0,0.0,0.0,0.0,0.0,0.0,0.0,0.0,1.5431,1.5389,1.5389,1.5389,1.5389,1.5389,1.5389,1.5389,1.5389,1.5389,1.5389,1.5389,1.5389,1.5389,1.5389,1.5389,1.5389,1.5389,1.5389,1.5389,1.5389,1.5389,1.5389,1.5403,1.5818,1.6375,1.5455,1.5579,1.5789,0.0,1.5657,1.5564,0.0,0.0,0.0,0.0,1.9184,2.0172,2.0662,2.0281,1.9952,1.9872,1.9425,0.0,0.0,0.0,0.0,1.7985,1.8421,1.8718,1.887,1.8456,0.0,1.8926,0.0,0.0,1.7997,1.8647,1.8727,1.8407,0.0,0.0,1.9923,2.077,2.1128,2.1138,2.1167,2.1686,0.0,0.0,2.2256,2.332,2.2605,2.2644,2.3096,2.3443,2.3621,2.3711,2.3711,2.3667,2.3604,2.3581,2.3755,2.3984,2.3866,2.3914,2.3975,2.4062,2.3613,2.3086,0.0,0.0,0.0,0.0,0.0,0.0,0.0,0.0,0.0,0.0,0.0,0.0,0.0,0.0,0.0,0.0,0.0,0.0,0.0,0.0,0.0,0.0,0.0,0.0,0.0,0.0,0.0,1.5431,1.5389,1.5389,1.5389,1.5389,1.5389,1.5389,1.5389,1.5389,1.5389,1.5389,1.5389,1.5389,1.5389,1.5389,1.5389,1.5389,1.5389,1.5389,1.5389,1.5389,1.5418,1.5701,1.5738,1.5738,1.5455,0.0,0.0,1.6089,0.0,0.0,1.6484,0.0,0.0,1.843,1.952,0.0,2.0552,2.0377,2.0124,2.004,1.9572,0.0,0.0,0.0,0.0,1.8016,1.8567,1.8822,1.8679,1.8607,0.0,1.9174,0.0,0.0,1.9155,1.9253,1.9253,0.0,0.0,2.039,0.0,2.133,2.1653,2.1653,2.173,0.0,0.0,2.2335,2.2938,2.3846,2.3288,2.3277,2.3562,2.3872,2.397,2.397,2.397,2.3884,2.3881,2.4169,2.441,2.4611,2.48,2.4805,2.4825,2.4884,2.4428,2.3935,2.3695,2.351,2.3291,0.0,0.0,0.0,0.0,0.0,0.0,0.0,0.0,0.0,0.0,0.0,0.0,0.0,0.0,0.0,0.0,0.0,0.0,0.0,0.0,0.0,0.0,0.0,0.0,1.5431,1.5528,1.5535,1.5389,1.5528,1.573,1.5948,1.559,1.579,1.6509,1.5756,1.5631,1.5948,1.559,1.5389,1.5389,1.5389,1.5389,1.5389,1.5389,1.5389,1.5411,1.5593,1.5637,1.563,0.0,0.0,0.0,0.0,0.0,0.0,0.0,1.7823,0.0,1.8774,0.0,2.0259,1.9981,2.0157,2.0172,1.9857,0.0,1.9081,1.8467,1.9576,1.9881,1.8978,2.0099,2.0523,2.0034,2.0168,0.0,0.0,0.0,2.0245,2.0245,1.9618,0.0,0.0,0.0,0.0,0.0,2.2015,2.2133,0.0,2.2391,2.2414,2.2398,2.2999,2.3515,2.396,2.394,2.3919,2.4022,2.4159,2.4249,2.4249,2.4249,2.4067,2.4018,2.4747,2.5062,2.5325,2.5758,2.5962,2.598,2.5672,2.5354,2.5018,2.459,2.417,2.3857,2.3799,2.3115,2.2383,0.0,0.0,0.0,0.0,0.0,0.0,0.0,0.0,0.0,0.0,0.0,0.0,0.0,0.0,0.0,0.0,0.0,0.0,0.0,0.0,0.0,1.5597,1.5863,1.59,1.5656,0.0,1.6385,1.677,1.6087,1.6509,1.7957,1.6435,1.6147,1.6821,1.6064,1.5748,1.5748,1.5631,1.5506,1.5389,1.5389,1.5389,1.5389,1.5389,1.5564,1.5811,0.0,0.0,0.0,0.0,0.0,1.7625,1.876,1.8986,1.906,1.9177,2.0267,2.102,2.0962,2.0764,2.0453,2.0179,1.9857,0.0,0.0,0.0,0.0,1.9597,1.9862,2.0409,2.1337,2.0034,1.9731,0.0,1.9115,1.8479,1.8479,1.9204,0.0,0.0,0.0,0.0,2.1768,2.1845,0.0,2.1924,2.2346,2.2729,2.303,2.3163,2.3701,2.4332,2.4012,2.4115,2.4394,2.4433,2.4464,2.4464,2.4464,2.4411,2.4504,2.5011,2.5286,2.5554,2.6001,2.5987,2.5872,2.596,2.5724,2.5342,2.5065,2.4619,2.4209,2.3867,2.3115,2.2383,2.1963,0.0,0.0,0.0,0.0,0.0,0.0,0.0,0.0,0.0,0.0,0.0,0.0,0.0,0.0,0.0,0.0,0.0,0.0,0.0,0.0,0.0,1.6515,0.0,0.0,0.0,1.745,1.7127,1.7417,1.7715,1.7997,1.7674,1.7634,1.7755,1.7594,1.7553,1.7472,1.6788,1.6064,1.5389,1.5389,1.5389,1.5389,1.5389,1.5425,1.5462,0.0,0.0,0.0,0.0,0.0,0.0,0.0,1.9557,0.0,1.9603,2.0216,2.0581,2.0245,2.0362,2.034,2.0018,1.9696,1.9702,2.0094,1.9758,1.9855,2.0579,2.0248,0.0,2.0678,2.0427,2.0034,1.954,1.9778,1.9445,1.8687,1.9775,0.0,0.0,0.0,2.1976,0.0,0.0,0.0,2.2542,2.277,2.3132,2.3567,2.3805,2.4115,2.4466,2.4302,2.4321,2.4497,2.4497,2.4497,2.4497,2.4497,2.4497,2.459,2.5055,2.5255,2.5474,2.6208,2.6207,2.6084,2.6433,2.6069,2.5704,2.5791,2.4996,2.4274,2.4303,2.335,2.2383,2.1963,2.1357,0.0,0.0,0.0,0.0,0.0,0.0,0.0,0.0,0.0,0.0,0.0,0.0,0.0,0.0,0.0,0.0,0.0,0.0,0.0,0.0,0.0,0.0,0.0,0.0,0.0,1.8271,1.8083,1.8479,1.9323,1.7948,1.7553,1.7957,1.7513,1.735,1.735,1.7342,1.6862,1.6064,1.6064,1.579,1.5389,1.5389,1.5389,1.5389,0.0,1.7108,0.0,0.0,1.8189,0.0,1.9279,1.9806,2.0069,1.9886,2.0142,2.012,1.9542,1.993,2.0106,1.9845,1.958,1.9725,2.0381,2.0116,2.0273,2.1203,2.0862,2.0586,2.0518,2.1309,2.0991,0.0,2.0957,2.1035,1.9867,2.0664,0.0,0.0,0.0,0.0,0.0,0.0,2.2615,2.3039,2.3039,2.3318,2.3784,2.4229,2.4363,2.4373,2.4466,2.4497,2.4497,2.4497,2.4497,2.4497,2.4497,2.4497,2.459,2.5055,2.5251,2.5544,2.6351,2.6511,2.6498,2.6809,2.6483,2.6111,2.6416,2.5415,2.453,2.4742,2.3585,2.2412,2.208,2.167,0.0,0.0,0.0,0.0,0.0,0.0,0.0,0.0,0.0,0.0,0.0,0.0,0.0,0.0,0.0,0.0,0.0,0.0,0.0,0.0,0.0,1.8663,1.8409,0.0,1.9115,1.939,1.8843,1.9274,2.0527,1.827,1.7757,1.8642,1.7743,1.7376,1.7409,1.8031,1.7755,1.6984,1.6984,1.655,1.5955,1.6031,1.5929,1.5777,0.0,0.0,0.0,0.0,0.0,0.0,1.9669,1.9823,1.9901,2.0157,2.0479,2.0545,2.0186,2.0146,2.0106,1.9845,1.9786,1.9522,1.9022,1.971,2.0362,2.0742,2.1584,2.2242,2.278,2.2748,2.2692,0.0,0.0,2.1809,0.0,2.1513,0.0,0.0,0.0,0.0,0.0,2.1869,2.2139,2.2563,2.2563,2.2842,2.3298,2.3764,2.3939,2.3991,2.4352,2.4497,2.4497,2.4497,2.4497,2.4497,2.4497,2.4497,2.459,2.5055,2.5513,2.5927,2.648,2.6879,2.7163,2.6938,2.687,2.6754,2.6544,2.6036,2.5461,2.4917,2.3585,2.25,2.2461,2.2109,2.1836,0.0,0.0,0.0,0.0,0.0,0.0,0.0,0.0,0.0,0.0,0.0,0.0,0.0,0.0,0.0,0.0,0.0,0.0,1.9192,0.0,1.9707,1.9639,2.0159,2.0159,1.9761,2.0152,2.044,2.0566,1.9529,1.9743,2.0841,1.9996,1.958,1.9593,1.9288,1.8647,1.7876,1.7876,1.7836,1.7797,1.8168,1.7754,1.7096,0.0,0.0,0.0,0.0,0.0,0.0,0.0,1.9886,1.9867,1.9938,2.023,2.0311,1.9989,1.9952,1.982,1.9551,1.9522,1.9494,1.9456,1.9756,2.0546,2.1841,2.2007,2.2529,2.3493,2.3637,2.3235,0.0,0.0,0.0,0.0,0.0,0.0,0.0,0.0,2.2066,2.1828,2.2097,2.2325,2.2522,2.2801,2.3184,2.3619,2.3805,2.4043,2.4302,2.4435,2.4332,2.4188,2.4404,2.4497,2.4497,2.4497,2.4497,2.4538,2.4714,2.49,2.5171,2.5637,2.5896,2.6067,2.628,2.6306,2.6331,2.6505,2.6089,2.5584,2.5366,2.4112,2.3063,2.2891,2.2549,2.2344,0.0,0.0,0.0,0.0,0.0,0.0,0.0,0.0,0.0,0.0,0.0,0.0,0.0,0.0,0.0,0.0,0.0,0.0,2.044,0.0,2.0421,2.0647,2.0624,2.0498,2.0307,2.076,2.083,2.0586,2.0242,2.0355,2.0812,2.0463,2.0456,2.0678,2.0507,1.9761,1.8794,1.9066,1.869,1.8066,1.8757,1.8616,1.8054,1.843,0.0,1.8621,0.0,1.9081,1.9199,1.9981,1.982,1.9705,1.9808,1.9872,1.9872,1.9645,1.9676,1.958,1.9294,1.9279,1.9352,1.955,1.9747,2.0579,2.2126,2.2145,0.0,2.3797,2.4067,2.369,2.2571,2.3279,0.0,0.0,0.0,0.0,0.0,2.2635,2.2439,2.2035,2.2501,2.2697,2.2729,2.306,2.3298,2.3484,2.3619,2.3784,2.3939,2.4208,2.4146,2.395,2.4342,2.4497,2.4497,2.4497,2.4497,2.4497,2.4497,2.459,2.4776,2.5096,2.5282,2.5502,2.5802,2.5875,2.6013,2.6335,2.6042,2.5603,2.5435,2.4384,2.346,2.3232,2.29,2.2793,2.3183,0.0,0.0,0.0,0.0,0.0,0.0,0.0,2.0938,2.0771,0.0,0.0,0.0,0.0,0.0,0.0,0.0,0.0,0.0,0.0,0.0,2.1035,2.0977,2.0928,2.0762,2.1211,2.126,2.0977,2.1081,2.1015,2.0804,2.1067,2.1326,2.1561,2.1434,2.0801,1.9872,2.0152,1.9723,1.9017,1.977,1.9745,1.9312,1.8723,1.8782,1.8884,1.922,1.9324,1.9434,1.9771,1.9544,1.9396,1.9779,1.9484,1.9286,1.9286,1.9331,1.9279,1.9279,1.9279,1.9111,1.876,1.956,2.0367,0.0,0.0,2.2843,2.3797,2.4067,2.4206,2.4153,0.0,0.0,2.3857,0.0,2.2946,2.2511,2.2977,2.2925,2.2511,2.2977,2.3184,2.3184,2.3184,2.2915,2.2563,2.3018,2.2915,2.2646,2.3557,2.3888,2.395,2.4342,2.4497,2.4497,2.4497,2.4497,2.4497,2.4497,2.4828,2.5179,2.5189,2.5544,2.5875,2.5875,2.5875,2.5875,2.593,2.5885,2.5716,2.5071,2.4173,2.3503,2.3503,2.3266,2.3178,2.345,0.0,0.0,0.0,0.0,0.0,0.0,2.1611,2.1699,2.1229,0.0,0.0,0.0,0.0,0.0,0.0,0.0,0.0,2.0625,2.1456,0.0,2.0625,2.1476,2.165,2.119,2.167,2.1875,2.1885,2.2314,2.2012,2.1253,2.2107,2.2457,2.2461,2.2051,2.1621,2.1181,2.119,2.119,2.1239,2.1678,2.1541,2.1154,1.9103,1.9118,1.9155,1.9257,1.9279,1.9368,1.9463,1.9397,1.9368,1.947,1.9397,1.9279,1.9279,1.9279,1.9287,0.0,1.945,1.9403,0.0,1.9844,2.0704,2.1498,2.2216,2.3149,2.4229,2.4368,2.4411,2.4411,0.0,0.0,0.0,2.4178,2.3867,2.3443,2.3598,2.3401,2.2998,2.3463,2.3474,2.3215,2.3536,2.3567,2.3453,2.3598,2.3753,2.3887,2.4177,2.4136,2.395,2.4342,2.4301,2.4146,2.4404,2.4497,2.4497,2.4497,2.4611,2.4714,2.4714,2.4817,2.4964,2.4964,2.5202,2.544,2.544,2.544,2.531,2.4955,2.4392,2.3937,2.3764,2.3624,2.3624,2.3667,2.3308,0.0,0.0,0.0,0.0,0.0,2.1027,2.0967,0.0,2.0781,0.0,0.0,0.0,0.0,0.0,0.0,0.0,0.0,2.1455,0.0,2.1885,2.1894,2.1816,2.168,2.2109,2.2461,2.2691,2.2578,2.2485,2.2529,2.2809,2.273,2.25,2.2373,2.206,2.1709,2.1992,2.1934,2.1768,2.248,2.2422,2.2002,1.9279,1.9279,1.9279,1.9279,1.9279,1.9279,1.9279,1.9279,1.9279,1.9279,1.9279,1.9428,1.9879,1.9817,0.0,1.9968,2.0161,2.0346,2.037,2.0563,2.1131,2.2242,2.265,2.3367,2.4497,2.4497,0.0,2.4497,2.4497,2.4497,2.4497,2.4497,2.4312,2.3929,2.4053,2.3877,2.3474,2.3939,2.3867,2.3484,2.395,2.3919,2.3639,2.3805,2.3939,2.4011,2.4229,2.4115,2.395,2.4342,2.4311,2.4178,2.4404,2.4497,2.4497,2.4497,2.4497,2.4497,2.4497,2.4497,2.4497,2.4497,2.4714,2.4931,2.4931,2.4931,2.4887,2.48,2.4587,2.4418,2.4233,2.4136,2.4092,2.419,2.3491,2.2886,2.2696,0.0,0.0,0.0,0.0,0.0,0.0,2.082,2.0859,0.0,0.0,0.0,0.0,0.0,0.0,2.1621,2.1533,0.0,2.2275,2.2334,2.2275,2.2129,2.2549,2.2838,2.3081,2.2818,2.2847,2.3091,2.3091,2.2945,2.2744,2.2744,2.25,2.2148,2.2412,2.2353,2.2187,2.2672,2.2789,2.2697,1.9279,1.9279,1.9279,0.0,1.9279,0.0,1.9279,1.9279,1.9279,1.9279,1.9257,1.9694,2.0751,2.0752,2.0922,2.1433,0.0,0.0,0.0,2.17,2.1775,2.3086,2.3188,2.3624,2.4497,2.4497,2.4497,2.4497,2.4497,2.4497,2.4497,2.4497,2.4322,2.395,2.4311,2.427,2.395,2.4321,2.4302,2.396,2.4332,2.3991,2.3329,2.3764,2.366,2.3339,2.3764,2.3929,2.3991,2.4363,2.4497,2.4497,2.4497,2.4497,2.4497,2.4497,2.4497,2.4497,2.4497,2.4518,2.4549,2.4549,2.4549,2.4538,2.4507,2.4497,2.4497,2.4497,2.4718,2.4893,2.4924,2.4702,2.4648,2.488,2.3598,2.2686,2.2869,0.0,0.0,0.0,0.0,0.0,2.124,2.119,2.1074,0.0,0.0,0.0,0.0,0.0,2.085,2.1229,2.1699,2.1943,2.1973,2.2744,2.2896,2.2559,2.2906,2.3091,2.3091,2.3091,2.3091,2.3091,2.3091,2.3091,2.3091,2.3091,2.2867,2.2559,2.2559,2.2559,2.2559,2.2559,2.276,2.3091,0.0,0.0,1.9279,1.9279,1.9279,1.9279,1.9279,1.9279,1.9279,1.9279,1.906,1.9349,2.053,2.1288,2.2077,2.318,2.2858,2.2762,2.3153,2.3727,2.3888,2.3489,2.4279,2.463,2.4507,2.4497,2.4497,2.4497,2.4497,2.4497,2.4497,2.4497,2.4445,2.4342,2.4456,2.4435,2.4342,2.4456,2.4435,2.4352,2.4456,2.4373,2.4187,2.4301,2.427,2.4197,2.4301,2.4342,2.4363,2.4466,2.4497,2.4497,2.4497,2.4497,2.4497,2.4497,2.4497,2.4497,2.4497,2.4755,2.5024,2.5024,2.5024,2.4931,2.458,2.4497,2.4497,2.4497,2.4537,2.4679,2.5073,2.5101,2.5057,2.5101,2.4246,2.3464,2.3154,2.2005,0.0,0.0,2.1273,2.123,2.119,2.119,2.1328,0.0,0.0,0.0,0.0,2.1572,2.1621,2.1728,2.2148,2.2519,2.2789,2.2994,2.3042,2.2945,2.3052,2.3091,2.3091,2.3091,2.3091,2.3091,2.3091,2.3091,2.3091,2.3091,2.3033,2.2945,2.2945,2.2945,2.2945,2.2945,2.3013,2.3091,1.9279,1.9279,1.9279,1.9279,1.9279,1.9279,1.9279,1.9147,1.9052,1.9052,1.8767,1.9005,2.0164,2.117,2.2292,2.3681,2.3634,2.3756,2.4195,2.4305,2.4251,2.4027,2.4553,2.4755,2.4507,2.4497,2.4497,2.4497,2.4497,2.4497,2.4497,2.4497,2.4497,2.4497,2.4497,2.4497,2.4497,2.4497,2.4497,2.4497,2.4497,2.4497,2.4497,2.4497,2.4497,2.4497,2.4497,2.4497,2.4497,2.4497,2.4497,2.4497,2.4497,2.4497,2.4497,2.4497,2.4652,2.4817,2.4817,2.5137,2.5482,2.5241,2.5189,2.5065,2.4611,2.4497,2.4559,2.4766,2.4972,2.5295,2.5751,2.5668,2.5461,2.522,2.4291,2.3401,2.2936,2.2068,0.0,2.1643,2.156,2.15,2.1666,2.1574,2.1631,2.1865,2.1846,0.0,2.1885,2.2246,2.2373,2.2178,2.2393,2.2672,2.3091,2.3091,2.3091,2.3091,2.3091,2.3198,2.3428,2.3188,2.3198,2.3428,2.3179,2.3091,2.3091,2.3091,2.3091,2.3091,2.3091,2.3091,2.3091,2.3091,2.3091,2.3091,1.9199,1.9294,1.9257,1.9213,1.9294,1.9279,1.9279,1.9038,1.8847,1.8796,1.8503,1.8762,1.9991,2.0883,2.2051,2.3702,2.4114,2.4541,2.5142,2.4411,2.4122,2.4475,2.4569,2.4569,2.4497,2.4497,2.4497,2.4497,2.4497,2.4497,2.4497,2.4497,2.4497,2.4497,2.4497,2.4497,2.4497,2.4497,2.4497,2.4497,2.4497,2.4497,2.4497,2.4497,2.4497,2.4497,2.4497,2.4497,2.4497,2.4497,2.4497,2.4497,2.4497,2.4497,2.4497,2.4497,2.4869,2.5251,2.5117,2.5492,2.5792,2.542,2.5326,2.5148,2.4621,2.4549,2.4714,2.5106,2.5575,2.602,2.6532,2.6241,2.5761,2.5388,2.4178,2.3132,2.2666,0.0,2.194,2.2174,2.2099,2.208,2.2347,2.219,2.2095,2.2154,2.2344,2.2383,2.209,2.2812,2.3033,2.2715,2.2637,2.274,2.3091,2.3091,2.3091,2.3091,2.3091,2.3286,2.3682,2.3266,2.334,2.3672,2.3257,2.3091,2.3091,2.3091,2.3091,2.3091,2.3091,2.3091,2.3091,2.3091,2.3091,2.3091,1.8869,1.9089,1.9191,1.8913,1.9096,1.9279,1.9279,1.9287,1.9103,1.8825,1.8503,1.9054,2.0955,2.1186,2.2099,2.4193,2.4577,2.4869,2.5199,2.543,2.5221,2.4538,2.4879,2.49,2.4507,2.4497,2.4497,2.4497,2.4497,2.4497,2.4497,2.4497,2.4497,2.4497,2.4497,2.4497,2.4497,2.4497,2.4497,2.4497,2.4497,2.4497,2.4497,2.4497,2.4497,2.4497,2.4497,2.4497,2.4497,2.4497,2.4497,2.4497,2.4497,2.4497,2.4497,2.4497,2.513,2.5616,2.4807,2.5244,2.5865,2.5792,2.5771,2.5554,2.4693,2.4797,2.5096,2.5168,2.5575,2.602,2.6532,2.6241,2.5854,2.5792,2.4654,2.3649,2.3143,0.0,2.2143,2.2215,2.2655,2.3016,2.3044,2.2844,2.2876,2.3232,2.2761,2.2637,2.2886,2.3418,2.3662,2.3594,2.3232,2.3033,2.3091,2.3091,2.3091,2.3091,2.3091,2.313,2.3198,2.312,2.313,2.3188,2.312,2.3091,2.3091,2.3091,2.3091,2.3091,2.3091,2.3091,2.3091,2.3091,2.3091,2.3091,1.9052,1.9177,1.9228,1.9074,1.9678,1.9983,1.9376,1.9626,1.9649,1.8905,1.8837,1.9256,2.0292,2.1297,2.2326,2.343,2.4196,2.4676,2.4817,2.5047,2.4931,2.4518,2.4704,2.4714,2.4507,2.4497,2.4497,2.4497,2.4497,2.4497,2.4497,2.4497,2.4497,2.4497,2.4497,2.4497,2.4497,2.4497,2.4497,2.4497,2.4497,2.4497,2.4497,2.4497,2.4497,2.4497,2.4497,2.4497,2.4497,2.4497,2.4497,2.4497,2.4497,2.4497,2.4497,2.4497,2.5171,2.5941,2.5989,2.631,2.6604,2.6356,2.6293,2.6082,2.5409,2.542,2.5647,2.5896,2.6113,2.6438,2.6905,2.6407,2.5875,2.5875,2.454,0.0,2.3557,2.2866,2.2611,2.3351,2.3379,2.3547,2.4087,2.3911,2.3717,2.3677,2.3839,2.3846,2.3664,2.4077,2.4375,2.4519,2.3828,2.3594,2.3783,2.3325,2.3218,2.3486,2.3208,2.3218,2.3486,2.3198,2.3227,2.3477,2.3198,2.3091,2.3091,2.3091,2.3091,2.3091,2.3091,2.3091,2.3091,2.3091,2.3091,2.3091,1.895,1.906,1.9236,1.9412,2.0096,2.0425,1.9656,1.9977,1.9943,1.916,1.9295,1.9684,2.0245,2.159,2.2631,2.3018,2.3917,2.4454,2.4497,2.4497,2.4497,2.4497,2.4497,2.4497,2.4497,2.4497,2.4497,2.4497,2.4497,2.4497,2.4497,2.4497,2.4497,2.4497,2.4497,2.4497,2.4497,2.4497,2.4497,2.4497,2.4497,2.4497,2.4497,2.4497,2.4497,2.4497,2.4497,2.4497,2.4497,2.4497,2.4497,2.4497,2.4497,2.4497,2.4497,2.4497,2.5171,2.6096,2.6926,2.7143,2.7061,2.6708,2.6615,2.6501,2.6034,2.5958,2.6144,2.6542,2.6708,2.6884,2.7247,2.6542,2.5875,2.5875,0.0,2.3505,0.0,2.3422,2.3401,2.4518,2.4307,2.4344,2.505,2.4899,2.4614,2.4226,2.4841,2.4937,2.4406,2.4804,2.5149,2.5395,2.4575,2.4189,2.4414,2.3725,2.3559,2.3935,2.3496,2.3467,2.3769,2.3296,2.3276,2.3623,2.3247,2.3091,2.3091,2.3091,2.3091,2.3091,2.3091,2.3091,2.3091,2.3091,2.3091,2.3091,1.7984,1.8408,1.9076,1.9726,1.9867,1.9978,2.0253,2.0057,1.9835,1.9819,1.982,2.0516,2.2272,2.2582,2.3054,2.4011,2.4153,2.4282,2.4497,2.4497,2.4497,2.4497,2.4497,2.4497,2.4497,2.4497,2.4497,2.4497,2.4497,2.4497,2.4497,2.4497,2.4497,2.4497,2.4497,2.4497,2.4497,2.4497,2.4497,2.4497,2.4497,2.4497,2.4497,2.4497,2.4497,2.4497,2.4497,2.4497,2.4497,2.4497,2.4497,2.4497,2.4497,2.4497,2.4497,2.4497,2.5171,2.6034,2.6532,2.6667,2.6656,2.6625,2.6615,2.6501,2.6034,2.6262,2.6573,2.6604,2.6957,2.7268,2.7299,2.6542,2.5875,2.5875,0.0,0.0,2.4394,2.4394,2.4549,2.5075,2.5502,2.5751,2.5823,2.5628,2.5502,2.5472,2.5285,2.5168,2.5138,2.5494,2.5936,2.6388,2.55,2.4795,2.4424,2.4355,2.4336,2.4365,2.3945,2.376,2.3769,2.3296,2.311,2.314,2.311,2.3091,2.3091,2.3091,2.3091,2.3091,2.3091,2.3091,2.3091,2.3091,2.3091,2.3091,1.9049,1.9714,2.0386,2.0676,2.1227,2.147,2.0978,2.1312,2.1418,2.0795,2.107,2.1669,2.2483,2.2936,2.3486,2.413,2.4206,2.4292,2.4497,2.4497,2.4497,2.4497,2.4497,2.4497,2.4497,2.4497,2.4497,2.4497,2.4497,2.4497,2.4497,2.4497,2.4497,2.4497,2.4497,2.4497,2.4497,2.4497,2.4497,2.4497,2.4497,2.4497,2.4497,2.4497,2.4497,2.4497,2.4497,2.4497,2.4497,2.4497,2.4497,2.4497,2.4497,2.4693,2.4972,2.5295,2.5813,2.6387,2.6563,2.6822,2.704,2.704,2.704,2.6998,2.6822,2.6915,2.704,2.704,2.7185,2.7309,2.7309,2.6781,2.6449,2.6739,0.0,2.4974,2.5699,2.5316,2.5199,2.5978,2.5947,2.5989,2.6324,2.6274,2.6115,2.5826,2.6239,2.6247,2.5601,2.5672,2.5798,2.6014,2.5673,2.5448,2.5453,2.4734,2.4414,2.4414,2.3984,2.3652,2.3379,2.3169,2.3091,2.3091,2.3091,2.3091,2.3091,2.3091,2.3091,2.3091,2.3091,2.3091,2.3091,2.3091,2.3091,2.3091,1.9439,2.0077,2.0811,2.1427,2.2035,2.2232,2.1646,2.2073,2.2232,2.1646,2.1956,2.2437,2.3025,2.3405,2.3745,2.4139,2.4105,2.4153,2.4368,2.4454,2.4497,2.4497,2.4497,2.4497,2.4497,2.4497,2.4497,2.4497,2.4497,2.4497,2.4497,2.4497,2.4497,2.4497,2.4497,2.4497,2.4497,2.4497,2.4497,2.4497,2.4497,2.4497,2.4497,2.4497,2.4497,2.4518,2.4662,2.4621,2.4549,2.4828,2.4735,2.4549,2.4828,2.5044,2.5272,2.5751,2.6148,2.6459,2.675,2.7061,2.7309,2.7309,2.7309,2.7309,2.7309,2.7309,2.7309,2.7309,2.7309,2.7309,2.7309,2.6926,2.6718,2.704,2.6144,2.5699,2.6511,2.6041,2.5927,2.6739,2.6553,2.648,2.6801,2.6832,2.6708,2.6376,2.6946,2.6985,2.6205,2.6,2.5975,2.5975,2.5791,2.582,2.61,2.5222,2.4766,2.4619,2.4189,2.3828,2.3491,2.3218,2.3169,2.3286,2.3149,2.3091,2.3091,2.3091,2.3091,2.3091,2.3091,2.3091,2.3091,2.3091,2.3091,2.3091,1.8674,1.9074,1.9964,2.1952,2.1961,2.1832,2.2272,2.1987,2.1832,2.2272,2.2327,2.2851,2.4263,2.4033,2.3879,2.4083,2.3917,2.3927,2.4163,2.4368,2.4497,2.4497,2.4497,2.4497,2.4497,2.4497,2.4497,2.4497,2.4497,2.4497,2.4497,2.4497,2.4497,2.4497,2.4497,2.4497,2.4497,2.4497,2.4497,2.4497,2.4497,2.4497,2.4497,2.4497,2.4497,2.4559,2.5024,2.489,2.4631,2.5564,2.5275,2.4652,2.5595,2.5575,2.5272,2.5761,2.593,2.6127,2.7061,2.7309,2.7309,2.7309,2.7309,2.7309,2.7309,2.7309,2.7309,2.7309,2.7309,2.7309,2.7309,2.6926,2.6625,2.6625,2.6231,2.6096,2.6563,2.6625,2.6791,2.7247,2.7309,2.7309,2.7309,2.7309,2.7309,2.7309,2.7309,2.7167,2.69,2.6651,2.6496,2.6496,2.5975,2.582,2.61,2.582,2.5518,2.5106,2.4619,2.4414,2.4385,2.3481,2.3335,2.376,2.3286,2.3091,2.3091,2.3091,2.3091,2.3091,2.3091,2.3091,2.3091,2.3091,2.3091,2.3091,1.9621,2.0678,2.1687,2.2694,2.3012,2.3124,2.2897,2.2763,2.2735,2.2859,2.2869,2.3015,2.3461,2.3364,2.3418,2.3648,2.3737,2.397,2.4368,2.4454,2.4497,2.4497,2.4497,2.4497,2.4497,2.4497,2.4497,2.4497,2.4497,2.4497,2.4497,2.4497,2.4497,2.4497,2.4497,2.4497,2.4497,2.4497,2.4497,2.4497,2.4497,2.4497,2.4497,2.4497,2.4497,2.4518,2.4652,2.4621,2.4538,2.4807,2.4724,2.46,2.5233,2.5292,2.5378,2.6144,2.6407,2.6542,2.7143,2.7309,2.7309,2.7309,2.7309,2.7309,2.7309,2.7309,2.7309,2.7309,2.7309,2.7309,2.7309,2.7195,2.7102,2.7102,2.6988,2.6946,2.7081,2.7102,2.7154,2.7289,2.7309,2.7309,2.7309,2.7309,2.7309,2.7309,2.7129,2.6996,2.69,2.6651,2.6496,2.6496,2.6159,2.6004,2.61,2.582,2.5518,2.5106,2.4619,2.4258,2.3965,2.3354,2.3169,2.3286,2.3149,2.3091,2.3091,2.3091,2.3091,2.3091,2.3091,2.3091,2.3091,2.3091,2.3091,2.3091,2.0005,2.1193,2.2294,2.2955,2.3315,2.3496,2.3408,2.3208,2.3159,2.3335,2.3198,2.3159,2.3379,2.3198,2.3257,2.3565,2.3723,2.4013,2.4454,2.4497,2.4497,2.4497,2.4497,2.4497,2.4497,2.4497,2.4497,2.4497,2.4497,2.4497,2.4497,2.4497,2.4497,2.4497,2.4497,2.4497,2.4497,2.4497,2.4497,2.4497,2.4497,2.4497,2.4497,2.4497,2.4497,2.4518,2.4704,2.4652,2.4559,2.4954,2.5068,2.5119,2.5399,2.5492,2.5627,2.6397,2.6615,2.6718,2.7185,2.7309,2.7309,2.7309,2.7309,2.7309,2.7309,2.7309,2.7309,2.7309,2.7309,2.7309,2.7309,2.7309,2.7309,2.7309,2.7309,2.7309,2.7309,2.7309,2.7309,2.7309,2.7309,2.7309,2.7309,2.7309,2.7309,2.7309,2.7177,2.6986,2.6747,2.6699,2.6506,2.6207,2.6149,2.6052,2.5965,2.5605,2.5244,2.4805,2.4541,2.4199,2.3769,2.3296,2.3188,2.3389,2.3169,2.3091,2.3091,2.3091,2.3091,2.3091,2.3091,2.3091,2.3091,2.3091,2.3091,2.3091,2.0005,2.0988,2.1919,2.2925,2.3159,2.3335,2.374,2.3457,2.334,2.374,2.3408,2.3247,2.3691,2.3379,2.3257,2.3691,2.3765,2.4013,2.4454,2.4497,2.4497,2.4497,2.4497,2.4497,2.4497,2.4497,2.4497,2.4497,2.4497,2.4497,2.4497,2.4497,2.4497,2.4497,2.4497,2.4497,2.4497,2.4497,2.4497,2.4497,2.4497,2.4497,2.4497,2.4497,2.4497,2.4559,2.4972,2.4859,2.4621,2.5482,2.5813,2.5875,2.5834,2.5889,2.6013,2.648,2.6615,2.6718,2.7185,2.7309,2.7309,2.7309,2.7309,2.7309,2.7309,2.7309,2.7309,2.7309,2.7309,2.7309,2.7309,2.7309,2.7309,2.7309,2.7309,2.7309,2.7309,2.7309,2.7309,2.7309,2.7309,2.7309,2.7309,2.7309,2.7309,2.7309,2.7309,2.7071,2.6544,2.6757,2.6564,2.5781,2.6014,2.5955,2.5732,2.5293,2.4863,2.4473,2.4394,2.416,2.3769,2.3296,2.3315,2.3711,2.331,2.3091,2.3091,2.3091,2.3091,2.3091,2.3091,2.3091,2.3091,2.3091,2.3091,2.3091,1.9869,2.0654,2.1508,2.2876,2.3647,2.4062,2.3828,2.3711,2.3682,2.3779,2.3408,2.313,2.3227,2.3149,2.313,2.3227,2.3587,2.4013,2.4454,2.4497,2.4497,2.4497,2.4497,2.4497,2.4497,2.4497,2.4497,2.4497,2.4497,2.4497,2.4497,2.4497,2.4497,2.4497,2.4497,2.4497,2.4497,2.4497,2.4497,2.4497,2.4497,2.4497,2.4497,2.4497,2.4497,2.4507,2.4611,2.459,2.4528,2.4724,2.5295,2.5823,2.5482,2.5606,2.6013,2.648,2.6615,2.6718,2.7185,2.7309,2.7309,2.7309,2.7309,2.7309,2.7309,2.7309,2.7309,2.7309,2.7309,2.7309,2.7309,2.7309,2.7309,2.7309,2.7309,2.7309,2.7309,2.7309,2.7309,2.7309,2.7309,2.7309,2.7309,2.7309,2.7309,2.7309,2.7309,2.7167,2.6853,2.6853,2.6699,2.6352,2.6197,2.6052,2.6004,2.5426,2.5067,2.4922,2.4248,2.3877,2.3769,2.3296,2.3149,2.3227,2.314,2.3091,2.3091,2.3091,2.3091,2.3091,2.3091,2.3091,2.3091,2.3091,2.3091,2.3091,2.0005,2.1121,2.2212,2.2955,2.3471,2.3867,2.4062,2.3916,2.3867,2.4062,2.3711,2.3369,2.312,2.3276,2.3536,2.3767,2.3787,2.4013,2.4454,2.4497,2.4497,2.4497,2.4497,2.4497,2.4497,2.4497,2.4497,2.4497,2.4497,2.4497,2.4497,2.4497,2.4497,2.4497,2.4497,2.4497,2.4497,2.4497,2.4497,2.4497,2.4497,2.4497,2.4497,2.4497,2.4497,2.4497,2.4497,2.4642,2.4859,2.5109,2.5492,2.5962,2.6134,2.6206,2.6345,2.6812,2.6946,2.6998,2.7247,2.7309,2.7309,2.7309,2.7309,2.7309,2.7309,2.7309,2.7309,2.7309,2.7309,2.7309,2.7309,2.7486,2.751,2.734,2.7438,2.75,2.734,2.7309,2.7309,2.7309,2.7309,2.7309,2.7309,2.7309,2.7309,2.7309,2.7309,2.7167,2.69,2.7034,2.689,2.6496,2.6496,2.64,2.6294,2.5712,2.5399,2.5305,2.445,2.3984,2.3789,2.376,2.3643,2.3447,2.3447,2.3286,2.3091,2.3091,2.3091,2.3091,2.3091,2.3091,2.3091,2.3091,2.3091,2.3091,2.0413,2.173,2.2916,2.3047,2.3159,2.3442,2.4199,2.4014,2.3916,2.4258,2.3945,2.3545,2.314,2.3467,2.386,2.4305,2.4008,2.397,2.4411,2.4569,2.458,2.4507,2.458,2.458,2.4497,2.4497,2.4497,2.4497,2.4497,2.4497,2.4497,2.4497,2.4497,2.4497,2.4497,2.4497,2.4497,2.4497,2.4497,2.4497,2.4497,2.4497,2.4497,2.4497,2.4497,2.4497,2.4497,2.4848,2.5399,2.5761,2.6034,2.6283,2.6978,2.6978,2.6812,2.7195,2.7309,2.7309,2.7309,2.7309,2.7309,2.7309,2.7309,2.7309,2.7309,2.7309,2.7309,2.7309,2.7309,2.7309,2.7309,2.7624,2.78,2.7486,2.7686,2.779,2.7475,2.7351,2.7309,2.7309,2.7309,2.7309,2.7309,2.7309,2.7309,2.7309,2.7309,2.7167,2.69,2.7129,2.7023,2.6496,2.6699,2.6699,2.6496,2.6054,2.5738,2.555,2.494,2.4398,2.3906,2.4258,2.4228,2.3896,2.3896,2.3652,2.3208,2.3252,2.3203,2.3091,2.3135,2.3144,2.3091,2.3091,2.3091,2.3091,2.1329,2.1695,2.2148,2.296,2.3457,2.374,2.3857,2.3828,2.3809,2.3867,2.3496,2.3159,2.3101,2.3149,2.332,2.3593,2.3751,2.3937,2.4196,2.4782,2.4921,2.4518,2.4879,2.491,2.4507,2.4497,2.4497,2.4497,2.4497,2.4497,2.4497,2.4497,2.4497,2.4497,2.4497,2.4497,2.4497,2.4497,2.4497,2.4497,2.4497,2.4497,2.4497,2.4497,2.4497,2.4497,2.4497,2.5078,2.5802,2.5854,2.6459,2.7071,2.6801,2.6946,2.7226,2.7289,2.7309,2.7309,2.7309,2.7309,2.7309,2.7309,2.7309,2.7309,2.7309,2.7309,2.7309,2.7309,2.7309,2.7309,2.7309,2.7624,2.7903,2.7841,2.7883,2.7903,2.7841,2.75,2.7309,2.7309,2.7309,2.7309,2.7309,2.7309,2.7309,2.7309,2.7309,2.7167,2.69,2.6948,2.6794,2.6496,2.6544,2.6544,2.6496,2.6054,2.5785,2.5785,2.5668,2.5176,2.4336,2.4394,2.4385,2.4336,2.4336,2.4092,2.3701,2.387,2.3609,2.3135,2.3363,2.3319,2.3091,2.3091,2.3091,2.3091,2.1606,2.2104,2.2599,2.3047,2.3257,2.3506,2.375,2.3789,2.3789,2.3789,2.3623,2.3408,2.312,2.3315,2.3781,2.4489,2.4182,2.4081,2.4355,2.4392,2.4425,2.4476,2.461,2.4777,2.503,2.4669,2.4621,2.4879,2.4621,2.4497,2.4497,2.4497,2.4497,2.4497,2.4497,2.4497,2.4497,2.4497,2.4497,2.4497,2.4497,2.4497,2.4497,2.4497,2.4662,2.491,2.5202,2.5544,2.5962,2.6175,2.675,2.7268,2.7071,2.7143,2.7309,2.7309,2.7309,2.7309,2.7309,2.7309,2.7309,2.7309,2.7448,2.7634,2.7634,2.7831,2.7872,2.7413,2.7458,2.7634,2.7634,2.8214,2.8607,2.8349,2.8524,2.8607,2.8349,2.8142,2.8017,2.8017,2.779,2.7576,2.749,2.7359,2.7167,2.688,2.6986,2.6938,2.6699,2.6699,2.6602,2.6496,2.6496,2.6496,2.6496,2.6305,2.6099,2.5956,2.6099,2.5774,2.5029,2.5265,2.5151,2.4775,2.4775,2.4404,2.3789,2.3879,2.3614,2.3144,2.3406,2.3416,2.3319,2.3319,2.3319,2.3359]}]]